Wetterdaten: aktuell Donnerstag, 05.12.2019 20:54
Datum Zeit Temp. I. Temp. 2m Temp. Gh Feuchte I. Feuchte 2m Feuchte Gh Luftdruck Regen Wind Richtung Richtung ET Taupunkt Windchill Windben Empfang
05.12.2019 20:54 23,9 C -1,1 C 8,9 C 40 % 89 % 76 % 1027,5 hPa 0,0 l/m 1,6 km/h (1 Bft) O 90 0,000 mm -2,7 C -1,1 C 3,2 km/h (1 Bft) 95,65 %
05.12.2019 20:53 23,9 C -1,1 C 8,9 C 40 % 89 % 76 % 1027,5 hPa 0,0 l/m 1,6 km/h (1 Bft) N-NO 22 0,000 mm -2,7 C -1,1 C 3,2 km/h (1 Bft) 100,00 %
05.12.2019 20:52 24,0 C -1,1 C 8,9 C 40 % 89 % 76 % 1027,5 hPa 0,0 l/m 1,6 km/h (1 Bft) N-NO 22 0,000 mm -2,7 C -1,1 C 3,2 km/h (1 Bft) 95,65 %
05.12.2019 20:51 24,0 C -1,1 C 8,9 C 40 % 89 % 76 % 1027,5 hPa 0,0 l/m 0,0 km/h (0 Bft) S 180 0,000 mm -2,7 C -1,1 C 1,6 km/h (1 Bft) 100,00 %
05.12.2019 20:50 24,0 C -1,1 C 8,9 C 40 % 89 % 76 % 1027,5 hPa 0,0 l/m 0,0 km/h (0 Bft) S 180 0,000 mm -2,7 C -1,1 C 1,6 km/h (1 Bft) 100,00 %
05.12.2019 20:49 24,0 C -1,1 C 8,9 C 40 % 89 % 76 % 1027,6 hPa 0,0 l/m 0,0 km/h (0 Bft) S 180 0,000 mm -2,7 C -1,1 C 1,6 km/h (1 Bft) 100,00 %
05.12.2019 20:48 24,0 C -1,1 C 8,9 C 40 % 89 % 76 % 1027,6 hPa 0,0 l/m 0,0 km/h (0 Bft) S 180 0,000 mm -2,7 C -1,1 C 1,6 km/h (1 Bft) 100,00 %
05.12.2019 20:47 24,0 C -1,1 C 8,9 C 40 % 89 % 76 % 1027,6 hPa 0,0 l/m 0,0 km/h (0 Bft) S 180 0,000 mm -2,7 C -1,1 C 3,2 km/h (1 Bft) 100,00 %
05.12.2019 20:46 24,0 C -1,1 C 8,9 C 40 % 89 % 76 % 1027,5 hPa 0,0 l/m 3,2 km/h (1 Bft) S 180 0,000 mm -2,7 C -1,1 C 4,8 km/h (1 Bft) 100,00 %
05.12.2019 20:45 24,0 C -1,1 C 8,9 C 40 % 89 % 76 % 1027,5 hPa 0,0 l/m 3,2 km/h (1 Bft) S-SO 157 0,000 mm -2,7 C -1,1 C 4,8 km/h (1 Bft) 91,30 %
05.12.2019 20:44 24,0 C -1,1 C 8,9 C 40 % 89 % 76 % 1027,6 hPa 0,0 l/m 1,6 km/h (1 Bft) SO 135 0,000 mm -2,7 C -1,1 C 3,2 km/h (1 Bft) 100,00 %
05.12.2019 20:43 24,0 C -1,1 C 8,9 C 40 % 89 % 76 % 1027,6 hPa 0,0 l/m 3,2 km/h (1 Bft) SO 135 0,000 mm -2,7 C -1,1 C 4,8 km/h (1 Bft) 91,30 %
05.12.2019 20:42 24,0 C -1,1 C 8,9 C 40 % 89 % 76 % 1027,6 hPa 0,0 l/m 1,6 km/h (1 Bft) SO 135 0,000 mm -2,7 C -1,1 C 3,2 km/h (1 Bft) 100,00 %
05.12.2019 20:41 24,0 C -1,1 C 8,9 C 40 % 89 % 76 % 1027,6 hPa 0,0 l/m 1,6 km/h (1 Bft) SO 135 0,000 mm -2,7 C -1,1 C 3,2 km/h (1 Bft) 91,30 %
05.12.2019 20:40 24,0 C -1,1 C 8,9 C 40 % 89 % 77 % 1027,6 hPa 0,0 l/m 3,2 km/h (1 Bft) O 90 0,000 mm -2,7 C -1,1 C 6,4 km/h (2 Bft) 95,65 %
05.12.2019 20:39 24,0 C -1,1 C 8,9 C 40 % 89 % 76 % 1027,6 hPa 0,0 l/m 3,2 km/h (1 Bft) O-SO 112 0,000 mm -2,7 C -1,1 C 6,4 km/h (2 Bft) 100,00 %
05.12.2019 20:38 24,1 C -1,1 C 8,9 C 40 % 89 % 77 % 1027,6 hPa 0,0 l/m 1,6 km/h (1 Bft) O-SO 112 0,000 mm -2,7 C -1,1 C 3,2 km/h (1 Bft) 91,30 %
05.12.2019 20:37 24,0 C -1,1 C 8,9 C 40 % 89 % 76 % 1027,6 hPa 0,0 l/m 1,6 km/h (1 Bft) O-SO 112 0,000 mm -2,7 C -1,1 C 3,2 km/h (1 Bft) 95,65 %
05.12.2019 20:36 24,1 C -1,1 C 8,9 C 40 % 89 % 77 % 1027,7 hPa 0,0 l/m 0,0 km/h (0 Bft) N-NO 22 0,000 mm -2,7 C -1,1 C 1,6 km/h (1 Bft) 95,65 %
05.12.2019 20:35 24,1 C -1,1 C 8,9 C 40 % 89 % 77 % 1027,7 hPa 0,0 l/m 0,0 km/h (0 Bft) N-NO 22 0,000 mm -2,7 C -1,1 C 1,6 km/h (1 Bft) 100,00 %
05.12.2019 20:34 24,1 C -1,1 C 8,9 C 40 % 89 % 76 % 1027,7 hPa 0,0 l/m 0,0 km/h (0 Bft) N-NO 22 0,000 mm -2,7 C -1,1 C 1,6 km/h (1 Bft) 95,65 %
05.12.2019 20:33 24,1 C -1,1 C 8,9 C 40 % 89 % 77 % 1027,6 hPa 0,0 l/m 1,6 km/h (1 Bft) N-NO 22 0,000 mm -2,7 C -1,1 C 1,6 km/h (1 Bft) 100,00 %
05.12.2019 20:32 24,1 C -1,1 C 8,9 C 40 % 89 % 76 % 1027,7 hPa 0,0 l/m 0,0 km/h (0 Bft) N-NO 22 0,000 mm -2,7 C -1,1 C 1,6 km/h (1 Bft) 95,65 %
05.12.2019 20:31 24,1 C -1,1 C 8,9 C 40 % 89 % 77 % 1027,6 hPa 0,0 l/m 0,0 km/h (0 Bft) N-NO 22 0,000 mm -2,7 C -1,1 C 1,6 km/h (1 Bft) 95,65 %
05.12.2019 20:30 24,1 C -1,1 C 8,9 C 40 % 89 % 77 % 1027,7 hPa 0,0 l/m 0,0 km/h (0 Bft) N-NO 22 0,000 mm -2,7 C -1,1 C 1,6 km/h (1 Bft) 95,65 %
05.12.2019 20:29 24,1 C -1,1 C 8,9 C 40 % 89 % 77 % 1027,6 hPa 0,0 l/m 0,0 km/h (0 Bft) N-NO 22 0,000 mm -2,7 C -1,1 C 1,6 km/h (1 Bft) 100,00 %
05.12.2019 20:28 24,1 C -1,1 C 8,9 C 40 % 89 % 77 % 1027,6 hPa 0,0 l/m 0,0 km/h (0 Bft) N-NO 22 0,000 mm -2,7 C -1,1 C 1,6 km/h (1 Bft) 95,65 %
05.12.2019 20:27 24,1 C -1,1 C 8,9 C 40 % 89 % 77 % 1027,6 hPa 0,0 l/m 3,2 km/h (1 Bft) N-NO 22 0,000 mm -2,7 C -1,1 C 3,2 km/h (1 Bft) 100,00 %
05.12.2019 20:26 24,1 C -1,1 C 8,9 C 40 % 89 % 77 % 1027,6 hPa 0,0 l/m 1,6 km/h (1 Bft) N-NO 22 0,000 mm -2,7 C -1,1 C 3,2 km/h (1 Bft) 95,65 %
05.12.2019 20:25 24,1 C -1,1 C 8,9 C 40 % 89 % 77 % 1027,7 hPa 0,0 l/m 0,0 km/h (0 Bft) N-NO 22 0,000 mm -2,7 C -1,1 C 1,6 km/h (1 Bft) 95,65 %
05.12.2019 20:24 24,1 C -1,1 C 8,9 C 40 % 89 % 77 % 1027,5 hPa 0,0 l/m 1,6 km/h (1 Bft) N-NO 22 0,000 mm -2,7 C -1,1 C 3,2 km/h (1 Bft) 95,65 %
05.12.2019 20:23 24,1 C -1,1 C 8,9 C 40 % 89 % 77 % 1027,6 hPa 0,0 l/m 0,0 km/h (0 Bft) N-NO 22 0,000 mm -2,7 C -1,1 C 1,6 km/h (1 Bft) 95,65 %
05.12.2019 20:22 24,1 C -1,1 C 8,9 C 40 % 89 % 76 % 1027,6 hPa 0,0 l/m 1,6 km/h (1 Bft) N-NO 22 0,000 mm -2,7 C -1,1 C 1,6 km/h (1 Bft) 100,00 %
05.12.2019 20:21 24,2 C -1,1 C 8,9 C 40 % 89 % 77 % 1027,6 hPa 0,0 l/m 1,6 km/h (1 Bft) N-NO 22 0,000 mm -2,7 C -1,1 C 1,6 km/h (1 Bft) 95,65 %
05.12.2019 20:20 24,2 C -1,1 C 8,9 C 40 % 89 % 76 % 1027,6 hPa 0,0 l/m 0,0 km/h (0 Bft) N-NO 22 0,000 mm -2,7 C -1,1 C 1,6 km/h (1 Bft) 100,00 %
05.12.2019 20:19 24,2 C -1,1 C 8,9 C 40 % 89 % 77 % 1027,6 hPa 0,0 l/m 1,6 km/h (1 Bft) N-NO 22 0,000 mm -2,7 C -1,1 C 3,2 km/h (1 Bft) 95,65 %
05.12.2019 20:18 24,2 C -1,1 C 8,9 C 40 % 89 % 77 % 1027,7 hPa 0,0 l/m 1,6 km/h (1 Bft) N-NO 22 0,000 mm -2,7 C -1,1 C 3,2 km/h (1 Bft) 100,00 %
05.12.2019 20:17 24,2 C -1,1 C 8,9 C 40 % 89 % 77 % 1027,7 hPa 0,0 l/m 3,2 km/h (1 Bft) N-NO 22 0,000 mm -2,7 C -1,1 C 4,8 km/h (1 Bft) 100,00 %
05.12.2019 20:16 24,2 C -1,1 C 8,9 C 40 % 89 % 77 % 1027,6 hPa 0,0 l/m 1,6 km/h (1 Bft) NO 45 0,000 mm -2,7 C -1,1 C 3,2 km/h (1 Bft) 95,65 %
05.12.2019 20:15 24,2 C -1,1 C 8,9 C 40 % 89 % 77 % 1027,6 hPa 0,0 l/m 1,6 km/h (1 Bft) NO 45 0,000 mm -2,7 C -1,1 C 1,6 km/h (1 Bft) 100,00 %
05.12.2019 20:14 24,2 C -1,1 C 8,9 C 40 % 89 % 77 % 1027,5 hPa 0,0 l/m 1,6 km/h (1 Bft) NO 45 0,000 mm -2,7 C -1,1 C 3,2 km/h (1 Bft) 100,00 %
05.12.2019 20:13 24,2 C -1,2 C 8,9 C 40 % 89 % 77 % 1027,5 hPa 0,0 l/m 1,6 km/h (1 Bft) NO 45 0,000 mm -2,8 C -1,2 C 3,2 km/h (1 Bft) 100,00 %
05.12.2019 20:12 24,2 C -1,2 C 8,9 C 40 % 89 % 77 % 1027,4 hPa 0,0 l/m 1,6 km/h (1 Bft) NO 45 0,000 mm -2,8 C -1,2 C 3,2 km/h (1 Bft) 100,00 %
05.12.2019 20:11 24,2 C -1,2 C 8,9 C 40 % 89 % 77 % 1027,4 hPa 0,0 l/m 1,6 km/h (1 Bft) NO 45 0,000 mm -2,8 C -1,2 C 4,8 km/h (1 Bft) 100,00 %
05.12.2019 20:10 24,3 C -1,2 C 8,9 C 40 % 89 % 77 % 1027,5 hPa 0,0 l/m 1,6 km/h (1 Bft) NO 45 0,000 mm -2,8 C -1,2 C 3,2 km/h (1 Bft) 91,30 %
05.12.2019 20:09 24,3 C -1,2 C 8,9 C 40 % 89 % 77 % 1027,4 hPa 0,0 l/m 1,6 km/h (1 Bft) NO 45 0,000 mm -2,8 C -1,2 C 3,2 km/h (1 Bft) 95,65 %
05.12.2019 20:08 24,3 C -1,2 C 8,9 C 40 % 89 % 77 % 1027,4 hPa 0,0 l/m 1,6 km/h (1 Bft) O 90 0,000 mm -2,8 C -1,2 C 3,2 km/h (1 Bft) 100,00 %
05.12.2019 20:07 24,3 C -1,2 C 8,9 C 40 % 89 % 77 % 1027,4 hPa 0,0 l/m 1,6 km/h (1 Bft) O 90 0,000 mm -2,8 C -1,2 C 3,2 km/h (1 Bft) 95,65 %
05.12.2019 20:06 24,3 C -1,2 C 8,9 C 40 % 89 % 77 % 1027,4 hPa 0,0 l/m 0,0 km/h (0 Bft) O 90 0,000 mm -2,8 C -1,2 C 1,6 km/h (1 Bft) 100,00 %
05.12.2019 20:05 24,3 C -1,2 C 8,9 C 40 % 89 % 77 % 1027,5 hPa 0,0 l/m 0,0 km/h (0 Bft) O 90 0,000 mm -2,8 C -1,2 C 1,6 km/h (1 Bft) 100,00 %
05.12.2019 20:04 24,3 C -1,2 C 8,9 C 40 % 89 % 77 % 1027,4 hPa 0,0 l/m 3,2 km/h (1 Bft) O 90 0,000 mm -2,8 C -1,2 C 3,2 km/h (1 Bft) 100,00 %
05.12.2019 20:03 24,3 C -1,2 C 8,9 C 40 % 89 % 77 % 1027,5 hPa 0,0 l/m 1,6 km/h (1 Bft) O 90 0,000 mm -2,8 C -1,2 C 3,2 km/h (1 Bft) 95,65 %
05.12.2019 20:02 24,3 C -1,2 C 8,9 C 40 % 89 % 77 % 1027,4 hPa 0,0 l/m 3,2 km/h (1 Bft) O 90 0,000 mm -2,8 C -1,2 C 4,8 km/h (1 Bft) 95,65 %
05.12.2019 20:01 24,3 C -1,2 C 8,9 C 40 % 89 % 77 % 1027,5 hPa 0,0 l/m 3,2 km/h (1 Bft) O 90 0,000 mm -2,8 C -1,2 C 4,8 km/h (1 Bft) 100,00 %
05.12.2019 20:00 24,3 C -1,2 C 8,9 C 40 % 89 % 77 % 1027,4 hPa 0,0 l/m 3,2 km/h (1 Bft) SO 135 0,000 mm -2,8 C -1,2 C 4,8 km/h (1 Bft) 100,00 %
05.12.2019 19:59 24,4 C -1,2 C 8,9 C 40 % 89 % 76 % 1027,5 hPa 0,0 l/m 3,2 km/h (1 Bft) S-SO 157 0,000 mm -2,8 C -1,2 C 4,8 km/h (1 Bft) 95,65 %
05.12.2019 19:58 24,4 C -1,2 C 8,9 C 40 % 89 % 77 % 1027,5 hPa 0,0 l/m 0,0 km/h (0 Bft) S-SO 157 0,000 mm -2,8 C -1,2 C 1,6 km/h (1 Bft) 100,00 %
05.12.2019 19:57 24,4 C -1,2 C 8,9 C 40 % 89 % 76 % 1027,5 hPa 0,0 l/m 3,2 km/h (1 Bft) S-SO 157 0,000 mm -2,8 C -1,2 C 6,4 km/h (2 Bft) 100,00 %
05.12.2019 19:56 24,4 C -1,2 C 8,9 C 40 % 89 % 76 % 1027,5 hPa 0,0 l/m 4,8 km/h (1 Bft) SO 135 0,000 mm -2,8 C -2,9 C 6,4 km/h (2 Bft) 95,65 %
05.12.2019 19:55 24,4 C -1,2 C 8,9 C 40 % 89 % 77 % 1027,5 hPa 0,0 l/m 4,8 km/h (1 Bft) SO 135 0,000 mm -2,8 C -2,9 C 4,8 km/h (1 Bft) 91,30 %
05.12.2019 19:54 24,4 C -1,2 C 8,9 C 40 % 89 % 76 % 1027,6 hPa 0,0 l/m 3,2 km/h (1 Bft) SO 135 0,000 mm -2,8 C -1,2 C 4,8 km/h (1 Bft) 95,65 %
05.12.2019 19:53 24,4 C -1,2 C 8,9 C 40 % 89 % 76 % 1027,6 hPa 0,0 l/m 3,2 km/h (1 Bft) O 90 0,000 mm -2,8 C -1,2 C 6,4 km/h (2 Bft) 95,65 %
05.12.2019 19:52 24,4 C -1,2 C 8,9 C 40 % 89 % 77 % 1027,5 hPa 0,0 l/m 1,6 km/h (1 Bft) O 90 0,000 mm -2,8 C -1,2 C 3,2 km/h (1 Bft) 100,00 %
05.12.2019 19:51 24,6 C -1,2 C 8,9 C 40 % 89 % 76 % 1027,5 hPa 0,0 l/m 3,2 km/h (1 Bft) O 90 0,000 mm -2,8 C -1,2 C 4,8 km/h (1 Bft) 95,65 %
05.12.2019 19:50 24,6 C -1,2 C 8,9 C 40 % 89 % 77 % 1027,6 hPa 0,0 l/m 3,2 km/h (1 Bft) SO 135 0,000 mm -2,8 C -1,2 C 3,2 km/h (1 Bft) 95,65 %
05.12.2019 19:49 24,6 C -1,2 C 8,9 C 40 % 89 % 76 % 1027,6 hPa 0,0 l/m 3,2 km/h (1 Bft) SO 135 0,000 mm -2,8 C -1,2 C 4,8 km/h (1 Bft) 100,00 %
05.12.2019 19:48 24,6 C -1,3 C 8,9 C 40 % 89 % 76 % 1027,6 hPa 0,0 l/m 3,2 km/h (1 Bft) SO 135 0,000 mm -2,9 C -1,3 C 4,8 km/h (1 Bft) 91,30 %
05.12.2019 19:47 24,6 C -1,2 C 8,9 C 40 % 89 % 76 % 1027,6 hPa 0,0 l/m 3,2 km/h (1 Bft) SO 135 0,000 mm -2,8 C -1,2 C 3,2 km/h (1 Bft) 95,65 %
05.12.2019 19:46 24,6 C -1,3 C 8,9 C 40 % 89 % 76 % 1027,5 hPa 0,0 l/m 1,6 km/h (1 Bft) SO 135 0,000 mm -2,9 C -1,3 C 3,2 km/h (1 Bft) 95,65 %
05.12.2019 19:45 24,6 C -1,3 C 8,9 C 40 % 89 % 76 % 1027,5 hPa 0,0 l/m 1,6 km/h (1 Bft) SO 135 0,000 mm -2,9 C -1,3 C 1,6 km/h (1 Bft) 100,00 %
05.12.2019 19:44 24,6 C -1,3 C 8,9 C 40 % 89 % 77 % 1027,5 hPa 0,0 l/m 1,6 km/h (1 Bft) SO 135 0,000 mm -2,9 C -1,3 C 3,2 km/h (1 Bft) 95,65 %
05.12.2019 19:43 24,7 C -1,3 C 8,9 C 40 % 89 % 77 % 1027,5 hPa 0,0 l/m 3,2 km/h (1 Bft) SO 135 0,000 mm -2,9 C -1,3 C 4,8 km/h (1 Bft) 95,65 %
05.12.2019 19:42 24,6 C -1,3 C 8,9 C 40 % 89 % 77 % 1027,6 hPa 0,0 l/m 4,8 km/h (1 Bft) O-SO 112 0,000 mm -2,9 C -3,0 C 6,4 km/h (2 Bft) 100,00 %
05.12.2019 19:41 24,6 C -1,3 C 8,9 C 40 % 89 % 77 % 1027,5 hPa 0,0 l/m 3,2 km/h (1 Bft) O-SO 112 0,000 mm -2,9 C -1,3 C 6,4 km/h (2 Bft) 91,30 %
05.12.2019 19:40 24,7 C -1,3 C 8,9 C 40 % 89 % 77 % 1027,6 hPa 0,0 l/m 1,6 km/h (1 Bft) SO 135 0,000 mm -2,9 C -1,3 C 3,2 km/h (1 Bft) 100,00 %
05.12.2019 19:39 24,7 C -1,2 C 8,9 C 40 % 89 % 77 % 1027,5 hPa 0,0 l/m 4,8 km/h (1 Bft) O-SO 112 0,000 mm -2,8 C -2,9 C 6,4 km/h (2 Bft) 95,65 %
05.12.2019 19:38 24,7 C -1,3 C 8,9 C 40 % 89 % 77 % 1027,5 hPa 0,0 l/m 1,6 km/h (1 Bft) O-SO 112 0,000 mm -2,9 C -1,3 C 3,2 km/h (1 Bft) 100,00 %
05.12.2019 19:37 24,7 C -1,3 C 8,9 C 40 % 89 % 77 % 1027,5 hPa 0,0 l/m 1,6 km/h (1 Bft) O-SO 112 0,000 mm -2,9 C -1,3 C 3,2 km/h (1 Bft) 91,30 %
05.12.2019 19:36 24,7 C -1,3 C 8,9 C 40 % 89 % 77 % 1027,5 hPa 0,0 l/m 1,6 km/h (1 Bft) O-SO 112 0,000 mm -2,9 C -1,3 C 4,8 km/h (1 Bft) 100,00 %
05.12.2019 19:35 24,6 C -1,2 C 8,9 C 40 % 89 % 77 % 1027,5 hPa 0,0 l/m 3,2 km/h (1 Bft) O-SO 112 0,000 mm -2,8 C -1,2 C 4,8 km/h (1 Bft) 95,65 %
05.12.2019 19:34 24,7 C -1,3 C 8,9 C 40 % 89 % 77 % 1027,4 hPa 0,0 l/m 3,2 km/h (1 Bft) S 180 0,000 mm -2,9 C -1,3 C 4,8 km/h (1 Bft) 91,30 %
05.12.2019 19:33 24,7 C -1,3 C 8,9 C 40 % 89 % 77 % 1027,4 hPa 0,0 l/m 3,2 km/h (1 Bft) S 180 0,000 mm -2,9 C -1,3 C 8,0 km/h (2 Bft) 95,65 %
05.12.2019 19:32 24,7 C -1,3 C 8,9 C 40 % 89 % 77 % 1027,4 hPa 0,0 l/m 3,2 km/h (1 Bft) S 180 0,000 mm -2,9 C -1,3 C 4,8 km/h (1 Bft) 95,65 %
05.12.2019 19:31 24,7 C -1,3 C 8,9 C 40 % 89 % 77 % 1027,4 hPa 0,0 l/m 1,6 km/h (1 Bft) O-SO 112 0,000 mm -2,9 C -1,3 C 3,2 km/h (1 Bft) 100,00 %
05.12.2019 19:30 24,7 C -1,3 C 8,9 C 40 % 89 % 77 % 1027,4 hPa 0,0 l/m 1,6 km/h (1 Bft) O-SO 112 0,000 mm -2,9 C -1,3 C 3,2 km/h (1 Bft) 95,65 %
05.12.2019 19:29 24,6 C -1,3 C 8,9 C 40 % 89 % 77 % 1027,4 hPa 0,0 l/m 3,2 km/h (1 Bft) O-SO 112 0,000 mm -2,9 C -1,3 C 4,8 km/h (1 Bft) 95,65 %
05.12.2019 19:28 24,6 C -1,2 C 8,9 C 40 % 89 % 77 % 1027,4 hPa 0,0 l/m 3,2 km/h (1 Bft) O-SO 112 0,000 mm -2,8 C -1,2 C 4,8 km/h (1 Bft) 95,65 %
05.12.2019 19:27 24,7 C -1,2 C 8,9 C 40 % 89 % 77 % 1027,3 hPa 0,0 l/m 1,6 km/h (1 Bft) O-SO 112 0,000 mm -2,8 C -1,2 C 4,8 km/h (1 Bft) 91,30 %
05.12.2019 19:26 24,6 C -1,2 C 8,9 C 40 % 89 % 77 % 1027,4 hPa 0,0 l/m 3,2 km/h (1 Bft) O-SO 112 0,000 mm -2,8 C -1,2 C 4,8 km/h (1 Bft) 95,65 %
05.12.2019 19:25 24,7 C -1,2 C 8,9 C 40 % 89 % 77 % 1027,5 hPa 0,0 l/m 4,8 km/h (1 Bft) O-SO 112 0,000 mm -2,8 C -2,9 C 9,7 km/h (2 Bft) 100,00 %
05.12.2019 19:24 24,7 C -1,2 C 8,9 C 40 % 90 % 77 % 1027,3 hPa 0,0 l/m 1,6 km/h (1 Bft) N-NO 22 0,000 mm -2,6 C -1,2 C 9,7 km/h (2 Bft) 100,00 %
05.12.2019 19:23 24,6 C -1,2 C 8,9 C 40 % 90 % 77 % 1027,4 hPa 0,0 l/m 1,6 km/h (1 Bft) N-NO 22 0,000 mm -2,6 C -1,2 C 3,2 km/h (1 Bft) 95,65 %
05.12.2019 19:22 24,6 C -1,2 C 8,9 C 40 % 90 % 77 % 1027,4 hPa 0,0 l/m 3,2 km/h (1 Bft) N-NO 22 0,000 mm -2,6 C -1,2 C 4,8 km/h (1 Bft) 95,65 %
05.12.2019 19:21 24,6 C -1,2 C 8,9 C 40 % 90 % 77 % 1027,4 hPa 0,0 l/m 3,2 km/h (1 Bft) NO 45 0,000 mm -2,6 C -1,2 C 4,8 km/h (1 Bft) 100,00 %
05.12.2019 19:20 24,6 C -1,2 C 8,9 C 40 % 90 % 77 % 1027,4 hPa 0,0 l/m 3,2 km/h (1 Bft) O 90 0,000 mm -2,6 C -1,2 C 4,8 km/h (1 Bft) 95,65 %
05.12.2019 19:19 24,6 C -1,2 C 8,9 C 40 % 90 % 77 % 1027,4 hPa 0,0 l/m 3,2 km/h (1 Bft) O 90 0,000 mm -2,6 C -1,2 C 4,8 km/h (1 Bft) 100,00 %
05.12.2019 19:18 24,6 C -1,2 C 8,9 C 40 % 90 % 77 % 1027,3 hPa 0,0 l/m 3,2 km/h (1 Bft) O-SO 112 0,000 mm -2,6 C -1,2 C 3,2 km/h (1 Bft) 100,00 %
05.12.2019 19:17 24,6 C -1,2 C 8,9 C 40 % 90 % 77 % 1027,4 hPa 0,0 l/m 1,6 km/h (1 Bft) NO 45 0,000 mm -2,6 C -1,2 C 6,4 km/h (2 Bft) 100,00 %
05.12.2019 19:16 24,6 C -1,2 C 8,9 C 40 % 90 % 77 % 1027,4 hPa 0,0 l/m 1,6 km/h (1 Bft) NO 45 0,000 mm -2,6 C -1,2 C 3,2 km/h (1 Bft) 95,65 %
05.12.2019 19:15 24,6 C -1,2 C 8,9 C 40 % 90 % 77 % 1027,4 hPa 0,0 l/m 1,6 km/h (1 Bft) NO 45 0,000 mm -2,6 C -1,2 C 3,2 km/h (1 Bft) 100,00 %
05.12.2019 19:14 24,6 C -1,2 C 8,9 C 40 % 90 % 77 % 1027,4 hPa 0,0 l/m 1,6 km/h (1 Bft) NO 45 0,000 mm -2,6 C -1,2 C 3,2 km/h (1 Bft) 100,00 %
05.12.2019 19:13 24,6 C -1,2 C 8,9 C 40 % 90 % 77 % 1027,4 hPa 0,0 l/m 1,6 km/h (1 Bft) NO 45 0,000 mm -2,6 C -1,2 C 1,6 km/h (1 Bft) 95,65 %
05.12.2019 19:12 24,6 C -1,2 C 8,9 C 40 % 90 % 77 % 1027,4 hPa 0,0 l/m 1,6 km/h (1 Bft) NO 45 0,000 mm -2,6 C -1,2 C 1,6 km/h (1 Bft) 95,65 %
05.12.2019 19:11 24,6 C -1,2 C 8,9 C 40 % 90 % 77 % 1027,4 hPa 0,0 l/m 1,6 km/h (1 Bft) NO 45 0,000 mm -2,6 C -1,2 C 3,2 km/h (1 Bft) 95,65 %
05.12.2019 19:10 24,5 C -1,2 C 8,9 C 40 % 89 % 77 % 1027,4 hPa 0,0 l/m 1,6 km/h (1 Bft) N-NO 22 0,000 mm -2,8 C -1,2 C 1,6 km/h (1 Bft) 95,65 %
05.12.2019 19:09 24,5 C -1,2 C 8,9 C 40 % 89 % 77 % 1027,4 hPa 0,0 l/m 1,6 km/h (1 Bft) N-NO 22 0,000 mm -2,8 C -1,2 C 4,8 km/h (1 Bft) 100,00 %
05.12.2019 19:08 24,5 C -1,3 C 8,9 C 40 % 89 % 77 % 1027,3 hPa 0,0 l/m 0,0 km/h (0 Bft) SO 135 0,000 mm -2,9 C -1,3 C 1,6 km/h (1 Bft) 95,65 %
05.12.2019 19:07 24,4 C -1,2 C 8,9 C 39 % 89 % 77 % 1027,4 hPa 0,0 l/m 0,0 km/h (0 Bft) SO 135 0,000 mm -2,8 C -1,2 C 1,6 km/h (1 Bft) 100,00 %
05.12.2019 19:06 24,4 C -1,2 C 8,9 C 39 % 89 % 77 % 1027,4 hPa 0,0 l/m 0,0 km/h (0 Bft) N 0 0,000 mm -2,8 C -1,2 C 0,0 km/h (0 Bft) 91,30 %
05.12.2019 19:05 24,4 C -1,2 C 8,9 C 39 % 89 % 77 % 1027,4 hPa 0,0 l/m 0,0 km/h (0 Bft) N 0 0,000 mm -2,8 C -1,2 C 0,0 km/h (0 Bft) 91,30 %
05.12.2019 19:04 24,4 C -1,2 C 8,9 C 39 % 89 % 77 % 1027,4 hPa 0,0 l/m 0,0 km/h (0 Bft) SO 135 0,000 mm -2,8 C -1,2 C 1,6 km/h (1 Bft) 95,65 %
05.12.2019 19:03 24,4 C -1,2 C 8,9 C 39 % 89 % 77 % 1027,3 hPa 0,0 l/m 1,6 km/h (1 Bft) SO 135 0,000 mm -2,8 C -1,2 C 3,2 km/h (1 Bft) 100,00 %
05.12.2019 19:02 24,4 C -1,2 C 8,9 C 39 % 89 % 77 % 1027,3 hPa 0,0 l/m 1,6 km/h (1 Bft) SO 135 0,000 mm -2,8 C -1,2 C 3,2 km/h (1 Bft) 91,30 %
05.12.2019 19:01 24,4 C -1,2 C 8,9 C 39 % 89 % 77 % 1027,3 hPa 0,0 l/m 1,6 km/h (1 Bft) SO 135 0,000 mm -2,8 C -1,2 C 1,6 km/h (1 Bft) 100,00 %
05.12.2019 19:00 24,4 C -1,2 C 8,9 C 39 % 89 % 77 % 1027,3 hPa 0,0 l/m 3,2 km/h (1 Bft) SO 135 0,000 mm -2,8 C -1,2 C 3,2 km/h (1 Bft) 91,30 %
05.12.2019 18:59 24,4 C -1,2 C 8,9 C 39 % 89 % 77 % 1027,3 hPa 0,0 l/m 3,2 km/h (1 Bft) O 90 0,000 mm -2,8 C -1,2 C 3,2 km/h (1 Bft) 95,65 %
05.12.2019 18:58 24,4 C -1,2 C 8,9 C 38 % 89 % 77 % 1027,3 hPa 0,0 l/m 3,2 km/h (1 Bft) O 90 0,000 mm -2,8 C -1,2 C 4,8 km/h (1 Bft) 95,65 %
05.12.2019 18:57 24,4 C -1,2 C 8,9 C 38 % 89 % 77 % 1027,3 hPa 0,0 l/m 0,0 km/h (0 Bft) N 0 0,000 mm -2,8 C -1,2 C 0,0 km/h (0 Bft) 100,00 %
05.12.2019 18:56 24,3 C -1,2 C 8,9 C 38 % 89 % 77 % 1027,3 hPa 0,0 l/m 0,0 km/h (0 Bft) O 90 0,000 mm -2,8 C -1,2 C 1,6 km/h (1 Bft) 91,30 %
05.12.2019 18:55 24,4 C -1,2 C 8,9 C 38 % 89 % 77 % 1027,2 hPa 0,0 l/m 0,0 km/h (0 Bft) O 90 0,000 mm -2,8 C -1,2 C 1,6 km/h (1 Bft) 95,65 %
05.12.2019 18:54 24,3 C -1,2 C 8,9 C 38 % 89 % 77 % 1027,3 hPa 0,0 l/m 0,0 km/h (0 Bft) O 90 0,000 mm -2,8 C -1,2 C 1,6 km/h (1 Bft) 95,65 %
05.12.2019 18:53 24,3 C -1,2 C 8,9 C 38 % 89 % 77 % 1027,2 hPa 0,0 l/m 0,0 km/h (0 Bft) O 90 0,000 mm -2,8 C -1,2 C 1,6 km/h (1 Bft) 100,00 %
05.12.2019 18:52 24,3 C -1,2 C 8,9 C 38 % 89 % 77 % 1027,2 hPa 0,0 l/m 0,0 km/h (0 Bft) O 90 0,000 mm -2,8 C -1,2 C 1,6 km/h (1 Bft) 86,96 %
05.12.2019 18:51 24,3 C -1,2 C 8,9 C 38 % 89 % 77 % 1027,2 hPa 0,0 l/m 1,6 km/h (1 Bft) O 90 0,000 mm -2,8 C -1,2 C 1,6 km/h (1 Bft) 95,65 %
05.12.2019 18:50 24,3 C -1,2 C 8,9 C 38 % 89 % 77 % 1027,2 hPa 0,0 l/m 3,2 km/h (1 Bft) O 90 0,000 mm -2,8 C -1,2 C 3,2 km/h (1 Bft) 95,65 %
05.12.2019 18:49 24,3 C -1,2 C 8,9 C 38 % 89 % 77 % 1027,2 hPa 0,0 l/m 3,2 km/h (1 Bft) SO 135 0,000 mm -2,8 C -1,2 C 6,4 km/h (2 Bft) 95,65 %
05.12.2019 18:48 24,3 C -1,2 C 8,9 C 38 % 90 % 77 % 1027,2 hPa 0,0 l/m 6,4 km/h (2 Bft) O-SO 112 0,000 mm -2,6 C -3,6 C 9,7 km/h (2 Bft) 100,00 %
05.12.2019 18:47 24,3 C -1,2 C 8,9 C 37 % 90 % 78 % 1027,3 hPa 0,0 l/m 6,4 km/h (2 Bft) O-SO 112 0,000 mm -2,6 C -3,6 C 9,7 km/h (2 Bft) 95,65 %
05.12.2019 18:46 24,2 C -1,2 C 8,9 C 37 % 90 % 78 % 1027,3 hPa 0,0 l/m 3,2 km/h (1 Bft) O-SO 112 0,000 mm -2,6 C -1,2 C 6,4 km/h (2 Bft) 95,65 %
05.12.2019 18:45 24,2 C -1,2 C 8,9 C 37 % 90 % 78 % 1027,2 hPa 0,0 l/m 1,6 km/h (1 Bft) O-NO 67 0,000 mm -2,6 C -1,2 C 4,8 km/h (1 Bft) 91,30 %
05.12.2019 18:44 24,2 C -1,2 C 8,9 C 37 % 89 % 78 % 1027,2 hPa 0,0 l/m 1,6 km/h (1 Bft) O-NO 67 0,000 mm -2,8 C -1,2 C 1,6 km/h (1 Bft) 100,00 %
05.12.2019 18:43 24,2 C -1,2 C 8,9 C 37 % 90 % 78 % 1027,2 hPa 0,0 l/m 0,0 km/h (0 Bft) O-NO 67 0,000 mm -2,6 C -1,2 C 1,6 km/h (1 Bft) 95,65 %
05.12.2019 18:42 24,2 C -1,2 C 8,9 C 37 % 90 % 78 % 1027,2 hPa 0,0 l/m 1,6 km/h (1 Bft) O-NO 67 0,000 mm -2,6 C -1,2 C 1,6 km/h (1 Bft) 100,00 %
05.12.2019 18:41 24,1 C -1,1 C 8,9 C 37 % 90 % 78 % 1027,1 hPa 0,0 l/m 1,6 km/h (1 Bft) O-NO 67 0,000 mm -2,5 C -1,1 C 3,2 km/h (1 Bft) 95,65 %
05.12.2019 18:40 24,2 C -1,2 C 8,9 C 37 % 90 % 78 % 1027,1 hPa 0,0 l/m 3,2 km/h (1 Bft) O-NO 67 0,000 mm -2,6 C -1,2 C 4,8 km/h (1 Bft) 95,65 %
05.12.2019 18:39 24,1 C -1,2 C 8,9 C 37 % 90 % 78 % 1027,2 hPa 0,0 l/m 3,2 km/h (1 Bft) O-NO 67 0,000 mm -2,6 C -1,2 C 3,2 km/h (1 Bft) 95,65 %
05.12.2019 18:38 24,1 C -1,2 C 8,9 C 37 % 90 % 78 % 1027,2 hPa 0,0 l/m 3,2 km/h (1 Bft) O-NO 67 0,000 mm -2,6 C -1,2 C 4,8 km/h (1 Bft) 95,65 %
05.12.2019 18:37 24,1 C -1,2 C 8,9 C 37 % 90 % 78 % 1027,2 hPa 0,0 l/m 1,6 km/h (1 Bft) O-NO 67 0,000 mm -2,6 C -1,2 C 3,2 km/h (1 Bft) 86,96 %
05.12.2019 18:36 24,1 C -1,2 C 8,9 C 37 % 89 % 78 % 1027,2 hPa 0,0 l/m 1,6 km/h (1 Bft) O-NO 67 0,000 mm -2,8 C -1,2 C 4,8 km/h (1 Bft) 100,00 %
05.12.2019 18:35 24,1 C -1,2 C 8,9 C 37 % 90 % 78 % 1027,2 hPa 0,0 l/m 3,2 km/h (1 Bft) O-NO 67 0,000 mm -2,6 C -1,2 C 4,8 km/h (1 Bft) 100,00 %
05.12.2019 18:34 24,1 C -1,2 C 8,9 C 37 % 89 % 78 % 1027,1 hPa 0,0 l/m 3,2 km/h (1 Bft) O-NO 67 0,000 mm -2,8 C -1,2 C 6,4 km/h (2 Bft) 95,65 %
05.12.2019 18:33 24,1 C -1,2 C 8,9 C 37 % 89 % 78 % 1027,1 hPa 0,0 l/m 1,6 km/h (1 Bft) O-NO 67 0,000 mm -2,8 C -1,2 C 3,2 km/h (1 Bft) 100,00 %
05.12.2019 18:32 24,0 C -1,2 C 8,9 C 36 % 90 % 78 % 1027,2 hPa 0,0 l/m 1,6 km/h (1 Bft) O-NO 67 0,000 mm -2,6 C -1,2 C 3,2 km/h (1 Bft) 100,00 %
05.12.2019 18:31 24,0 C -1,2 C 8,9 C 36 % 89 % 78 % 1027,2 hPa 0,0 l/m 1,6 km/h (1 Bft) O-NO 67 0,000 mm -2,8 C -1,2 C 3,2 km/h (1 Bft) 95,65 %
05.12.2019 18:30 24,0 C -1,2 C 8,9 C 36 % 89 % 78 % 1027,2 hPa 0,0 l/m 1,6 km/h (1 Bft) O-NO 67 0,000 mm -2,8 C -1,2 C 3,2 km/h (1 Bft) 100,00 %
05.12.2019 18:29 24,0 C -1,2 C 8,9 C 36 % 90 % 78 % 1027,2 hPa 0,0 l/m 0,0 km/h (0 Bft) O-NO 67 0,000 mm -2,6 C -1,2 C 3,2 km/h (1 Bft) 100,00 %
05.12.2019 18:28 24,0 C -1,2 C 8,9 C 36 % 90 % 78 % 1027,1 hPa 0,0 l/m 1,6 km/h (1 Bft) O-NO 67 0,000 mm -2,6 C -1,2 C 3,2 km/h (1 Bft) 95,65 %
05.12.2019 18:27 23,9 C -1,2 C 8,3 C 36 % 90 % 78 % 1027,2 hPa 0,0 l/m 1,6 km/h (1 Bft) O-NO 67 0,000 mm -2,6 C -1,2 C 4,8 km/h (1 Bft) 100,00 %
05.12.2019 18:26 23,9 C -1,2 C 8,3 C 36 % 90 % 78 % 1027,2 hPa 0,0 l/m 3,2 km/h (1 Bft) O-NO 67 0,000 mm -2,6 C -1,2 C 4,8 km/h (1 Bft) 100,00 %
05.12.2019 18:25 23,9 C -1,2 C 8,3 C 36 % 90 % 78 % 1027,1 hPa 0,0 l/m 0,0 km/h (0 Bft) N-NO 22 0,000 mm -2,6 C -1,2 C 3,2 km/h (1 Bft) 100,00 %
05.12.2019 18:24 23,9 C -1,2 C 8,3 C 36 % 90 % 78 % 1027,2 hPa 0,0 l/m 0,0 km/h (0 Bft) N-NO 22 0,000 mm -2,6 C -1,2 C 1,6 km/h (1 Bft) 95,65 %
05.12.2019 18:23 23,9 C -1,2 C 8,3 C 36 % 90 % 78 % 1027,1 hPa 0,0 l/m 1,6 km/h (1 Bft) N-NO 22 0,000 mm -2,6 C -1,2 C 3,2 km/h (1 Bft) 100,00 %
05.12.2019 18:22 23,9 C -1,2 C 8,3 C 36 % 90 % 78 % 1027,1 hPa 0,0 l/m 4,8 km/h (1 Bft) N-NO 22 0,000 mm -2,6 C -2,9 C 8,0 km/h (2 Bft) 95,65 %
05.12.2019 18:21 23,9 C -1,2 C 8,3 C 36 % 90 % 78 % 1027,1 hPa 0,0 l/m 3,2 km/h (1 Bft) N-NO 22 0,000 mm -2,6 C -1,2 C 6,4 km/h (2 Bft) 100,00 %
05.12.2019 18:20 23,9 C -1,2 C 8,3 C 36 % 89 % 78 % 1027,1 hPa 0,0 l/m 1,6 km/h (1 Bft) O-NO 67 0,000 mm -2,8 C -1,2 C 3,2 km/h (1 Bft) 95,65 %
05.12.2019 18:19 23,9 C -1,2 C 8,3 C 36 % 89 % 78 % 1027,2 hPa 0,0 l/m 1,6 km/h (1 Bft) NO 45 0,000 mm -2,8 C -1,2 C 6,4 km/h (2 Bft) 100,00 %
05.12.2019 18:18 23,9 C -1,2 C 8,3 C 36 % 89 % 78 % 1027,2 hPa 0,0 l/m 1,6 km/h (1 Bft) NO 45 0,000 mm -2,8 C -1,2 C 3,2 km/h (1 Bft) 95,65 %
05.12.2019 18:17 23,9 C -1,2 C 8,3 C 37 % 89 % 78 % 1027,1 hPa 0,0 l/m 0,0 km/h (0 Bft) O 90 0,000 mm -2,8 C -1,2 C 1,6 km/h (1 Bft) 95,65 %
05.12.2019 18:16 23,8 C -1,2 C 8,3 C 37 % 89 % 78 % 1027,2 hPa 0,0 l/m 0,0 km/h (0 Bft) O 90 0,000 mm -2,8 C -1,2 C 1,6 km/h (1 Bft) 100,00 %
05.12.2019 18:15 23,8 C -1,2 C 8,3 C 37 % 89 % 78 % 1027,2 hPa 0,0 l/m 0,0 km/h (0 Bft) N 0 0,000 mm -2,8 C -1,2 C 0,0 km/h (0 Bft) 100,00 %
05.12.2019 18:14 23,8 C -1,2 C 8,3 C 37 % 89 % 78 % 1027,1 hPa 0,0 l/m 0,0 km/h (0 Bft) N 0 0,000 mm -2,8 C -1,2 C 0,0 km/h (0 Bft) 100,00 %
05.12.2019 18:13 23,8 C -1,2 C 8,3 C 36 % 89 % 78 % 1027,1 hPa 0,0 l/m 0,0 km/h (0 Bft) O 90 0,000 mm -2,8 C -1,2 C 1,6 km/h (1 Bft) 100,00 %
05.12.2019 18:12 23,8 C -1,2 C 8,3 C 36 % 89 % 78 % 1027,1 hPa 0,0 l/m 1,6 km/h (1 Bft) O 90 0,000 mm -2,8 C -1,2 C 1,6 km/h (1 Bft) 100,00 %
05.12.2019 18:11 23,8 C -1,2 C 8,3 C 36 % 89 % 78 % 1027,2 hPa 0,0 l/m 1,6 km/h (1 Bft) O 90 0,000 mm -2,8 C -1,2 C 3,2 km/h (1 Bft) 91,30 %
05.12.2019 18:10 23,7 C -1,2 C 8,3 C 36 % 89 % 78 % 1027,2 hPa 0,0 l/m 1,6 km/h (1 Bft) O 90 0,000 mm -2,8 C -1,2 C 3,2 km/h (1 Bft) 91,30 %
05.12.2019 18:09 23,7 C -1,2 C 8,3 C 36 % 90 % 78 % 1027,2 hPa 0,0 l/m 1,6 km/h (1 Bft) O 90 0,000 mm -2,6 C -1,2 C 1,6 km/h (1 Bft) 95,65 %
05.12.2019 18:08 23,7 C -1,2 C 8,3 C 36 % 89 % 78 % 1027,2 hPa 0,0 l/m 0,0 km/h (0 Bft) O 90 0,000 mm -2,8 C -1,2 C 1,6 km/h (1 Bft) 100,00 %
05.12.2019 18:07 23,7 C -1,2 C 8,3 C 36 % 90 % 78 % 1027,2 hPa 0,0 l/m 1,6 km/h (1 Bft) O 90 0,000 mm -2,6 C -1,2 C 3,2 km/h (1 Bft) 95,65 %
05.12.2019 18:06 23,7 C -1,2 C 8,3 C 36 % 89 % 78 % 1027,2 hPa 0,0 l/m 1,6 km/h (1 Bft) O 90 0,000 mm -2,8 C -1,2 C 3,2 km/h (1 Bft) 95,65 %
05.12.2019 18:05 23,7 C -1,2 C 8,3 C 36 % 89 % 78 % 1027,3 hPa 0,0 l/m 0,0 km/h (0 Bft) O 90 0,000 mm -2,8 C -1,2 C 1,6 km/h (1 Bft) 100,00 %
05.12.2019 18:04 23,7 C -1,2 C 8,3 C 36 % 89 % 78 % 1027,2 hPa 0,0 l/m 0,0 km/h (0 Bft) N 0 0,000 mm -2,8 C -1,2 C 0,0 km/h (0 Bft) 91,30 %
05.12.2019 18:03 23,7 C -1,2 C 8,3 C 36 % 89 % 78 % 1027,2 hPa 0,0 l/m 0,0 km/h (0 Bft) N 0 0,000 mm -2,8 C -1,2 C 0,0 km/h (0 Bft) 95,65 %
05.12.2019 18:02 23,7 C -1,2 C 8,3 C 36 % 89 % 78 % 1027,1 hPa 0,0 l/m 0,0 km/h (0 Bft) O 90 0,000 mm -2,8 C -1,2 C 1,6 km/h (1 Bft) 95,65 %
05.12.2019 18:01 23,7 C -1,3 C 8,3 C 36 % 89 % 78 % 1027,1 hPa 0,0 l/m 0,0 km/h (0 Bft) O 90 0,000 mm -2,9 C -1,3 C 1,6 km/h (1 Bft) 100,00 %
05.12.2019 18:00 23,7 C -1,3 C 8,3 C 36 % 89 % 78 % 1027,3 hPa 0,0 l/m 0,0 km/h (0 Bft) O 90 0,000 mm -2,9 C -1,3 C 1,6 km/h (1 Bft) 95,65 %
05.12.2019 17:59 23,7 C -1,3 C 8,3 C 36 % 89 % 78 % 1027,3 hPa 0,0 l/m 0,0 km/h (0 Bft) O 90 0,000 mm -2,9 C -1,3 C 1,6 km/h (1 Bft) 100,00 %
05.12.2019 17:58 23,7 C -1,3 C 8,3 C 36 % 89 % 78 % 1027,1 hPa 0,0 l/m 1,6 km/h (1 Bft) O 90 0,000 mm -2,9 C -1,3 C 1,6 km/h (1 Bft) 95,65 %
05.12.2019 17:57 23,7 C -1,3 C 8,3 C 37 % 89 % 78 % 1027,1 hPa 0,0 l/m 3,2 km/h (1 Bft) O 90 0,000 mm -2,9 C -1,3 C 3,2 km/h (1 Bft) 95,65 %
05.12.2019 17:56 23,8 C -1,2 C 8,3 C 36 % 89 % 78 % 1027,1 hPa 0,0 l/m 3,2 km/h (1 Bft) O 90 0,000 mm -2,8 C -1,2 C 4,8 km/h (1 Bft) 95,65 %
05.12.2019 17:55 23,8 C -1,2 C 8,3 C 37 % 89 % 78 % 1027,1 hPa 0,0 l/m 3,2 km/h (1 Bft) O-SO 112 0,000 mm -2,8 C -1,2 C 3,2 km/h (1 Bft) 95,65 %
05.12.2019 17:54 23,7 C -1,3 C 8,3 C 37 % 89 % 78 % 1027,1 hPa 0,0 l/m 4,8 km/h (1 Bft) O-SO 112 0,000 mm -2,9 C -3,0 C 6,4 km/h (2 Bft) 100,00 %
05.12.2019 17:53 23,8 C -1,3 C 8,3 C 37 % 89 % 78 % 1027,1 hPa 0,0 l/m 4,8 km/h (1 Bft) O-SO 112 0,000 mm -2,9 C -3,0 C 6,4 km/h (2 Bft) 95,65 %
05.12.2019 17:52 23,8 C -1,3 C 8,3 C 37 % 89 % 78 % 1027,2 hPa 0,0 l/m 4,8 km/h (1 Bft) O 90 0,000 mm -2,9 C -3,0 C 6,4 km/h (2 Bft) 95,65 %
05.12.2019 17:51 23,8 C -1,3 C 8,3 C 37 % 89 % 78 % 1027,1 hPa 0,0 l/m 4,8 km/h (1 Bft) O 90 0,000 mm -2,9 C -3,0 C 8,0 km/h (2 Bft) 91,30 %
05.12.2019 17:50 23,8 C -1,3 C 8,3 C 37 % 89 % 78 % 1027,1 hPa 0,0 l/m 3,2 km/h (1 Bft) SO 135 0,000 mm -2,9 C -1,3 C 4,8 km/h (1 Bft) 100,00 %
05.12.2019 17:49 23,8 C -1,3 C 8,3 C 37 % 89 % 78 % 1027,1 hPa 0,0 l/m 1,6 km/h (1 Bft) SO 135 0,000 mm -2,9 C -1,3 C 4,8 km/h (1 Bft) 86,96 %
05.12.2019 17:48 23,8 C -1,3 C 8,3 C 37 % 89 % 77 % 1027,1 hPa 0,0 l/m 0,0 km/h (0 Bft) O-NO 67 0,000 mm -2,9 C -1,3 C 1,6 km/h (1 Bft) 95,65 %
05.12.2019 17:47 23,8 C -1,3 C 8,3 C 37 % 89 % 77 % 1027,2 hPa 0,0 l/m 0,0 km/h (0 Bft) N 0 0,000 mm -2,9 C -1,3 C 0,0 km/h (0 Bft) 100,00 %
05.12.2019 17:46 23,8 C -1,3 C 8,3 C 38 % 89 % 77 % 1027,1 hPa 0,0 l/m 0,0 km/h (0 Bft) N 0 0,000 mm -2,9 C -1,3 C 0,0 km/h (0 Bft) 95,65 %
05.12.2019 17:45 23,8 C -1,3 C 8,3 C 38 % 89 % 77 % 1027,1 hPa 0,0 l/m 3,2 km/h (1 Bft) O-SO 112 0,000 mm -2,9 C -1,3 C 6,4 km/h (2 Bft) 100,00 %
05.12.2019 17:44 23,8 C -1,3 C 8,3 C 38 % 89 % 77 % 1027,2 hPa 0,0 l/m 4,8 km/h (1 Bft) O 90 0,000 mm -2,9 C -3,0 C 6,4 km/h (2 Bft) 95,65 %
05.12.2019 17:43 23,8 C -1,3 C 8,3 C 38 % 89 % 77 % 1027,1 hPa 0,0 l/m 1,6 km/h (1 Bft) O 90 0,000 mm -2,9 C -1,3 C 3,2 km/h (1 Bft) 100,00 %
05.12.2019 17:42 23,8 C -1,3 C 8,3 C 38 % 89 % 77 % 1027,1 hPa 0,0 l/m 1,6 km/h (1 Bft) O 90 0,000 mm -2,9 C -1,3 C 3,2 km/h (1 Bft) 86,96 %
05.12.2019 17:41 23,8 C -1,3 C 8,3 C 39 % 89 % 77 % 1027,0 hPa 0,0 l/m 3,2 km/h (1 Bft) O 90 0,000 mm -2,9 C -1,3 C 4,8 km/h (1 Bft) 100,00 %
05.12.2019 17:40 23,8 C -1,3 C 8,9 C 38 % 89 % 77 % 1027,1 hPa 0,0 l/m 3,2 km/h (1 Bft) O-SO 112 0,000 mm -2,9 C -1,3 C 4,8 km/h (1 Bft) 100,00 %
05.12.2019 17:39 23,8 C -1,3 C 8,9 C 39 % 89 % 77 % 1027,1 hPa 0,0 l/m 3,2 km/h (1 Bft) SO 135 0,000 mm -2,9 C -1,3 C 4,8 km/h (1 Bft) 95,65 %
05.12.2019 17:38 23,8 C -1,2 C 8,9 C 39 % 89 % 76 % 1027,0 hPa 0,0 l/m 1,6 km/h (1 Bft) O-NO 67 0,000 mm -2,8 C -1,2 C 3,2 km/h (1 Bft) 100,00 %
05.12.2019 17:37 23,8 C -1,2 C 8,9 C 39 % 89 % 76 % 1027,0 hPa 0,0 l/m 1,6 km/h (1 Bft) O-NO 67 0,000 mm -2,8 C -1,2 C 3,2 km/h (1 Bft) 95,65 %
05.12.2019 17:36 23,8 C -1,2 C 8,9 C 39 % 89 % 76 % 1027,0 hPa 0,0 l/m 1,6 km/h (1 Bft) O-NO 67 0,000 mm -2,8 C -1,2 C 3,2 km/h (1 Bft) 100,00 %
05.12.2019 17:35 23,8 C -1,2 C 8,9 C 39 % 89 % 76 % 1027,0 hPa 0,0 l/m 3,2 km/h (1 Bft) O-NO 67 0,000 mm -2,8 C -1,2 C 3,2 km/h (1 Bft) 95,65 %
05.12.2019 17:34 23,7 C -1,2 C 8,9 C 39 % 89 % 76 % 1027,0 hPa 0,0 l/m 4,8 km/h (1 Bft) O 90 0,000 mm -2,8 C -2,9 C 6,4 km/h (2 Bft) 100,00 %
05.12.2019 17:33 23,7 C -1,3 C 8,9 C 39 % 89 % 76 % 1027,0 hPa 0,0 l/m 3,2 km/h (1 Bft) O 90 0,000 mm -2,9 C -1,3 C 6,4 km/h (2 Bft) 100,00 %
05.12.2019 17:32 23,7 C -1,2 C 8,9 C 39 % 89 % 76 % 1026,9 hPa 0,0 l/m 0,0 km/h (0 Bft) N 0 0,000 mm -2,8 C -1,2 C 0,0 km/h (0 Bft) 100,00 %
05.12.2019 17:31 23,7 C -1,2 C 8,9 C 39 % 89 % 76 % 1026,9 hPa 0,0 l/m 0,0 km/h (0 Bft) N-NO 22 0,000 mm -2,8 C -1,2 C 1,6 km/h (1 Bft) 100,00 %
05.12.2019 17:30 23,7 C -1,3 C 8,9 C 39 % 89 % 76 % 1026,9 hPa 0,0 l/m 3,2 km/h (1 Bft) N-NO 22 0,000 mm -2,9 C -1,3 C 4,8 km/h (1 Bft) 100,00 %
05.12.2019 17:29 23,7 C -1,3 C 8,9 C 39 % 89 % 76 % 1026,8 hPa 0,0 l/m 3,2 km/h (1 Bft) N-NO 22 0,000 mm -2,9 C -1,3 C 4,8 km/h (1 Bft) 100,00 %
05.12.2019 17:28 23,7 C -1,3 C 8,9 C 39 % 89 % 76 % 1026,9 hPa 0,0 l/m 3,2 km/h (1 Bft) NO 45 0,000 mm -2,9 C -1,3 C 4,8 km/h (1 Bft) 91,30 %
05.12.2019 17:27 23,7 C -1,3 C 8,9 C 39 % 89 % 76 % 1026,9 hPa 0,0 l/m 1,6 km/h (1 Bft) O-NO 67 0,000 mm -2,9 C -1,3 C 3,2 km/h (1 Bft) 100,00 %
05.12.2019 17:26 23,7 C -1,3 C 8,9 C 39 % 89 % 76 % 1026,9 hPa 0,0 l/m 1,6 km/h (1 Bft) O-NO 67 0,000 mm -2,9 C -1,3 C 4,8 km/h (1 Bft) 100,00 %
05.12.2019 17:25 23,7 C -1,3 C 8,9 C 39 % 89 % 76 % 1026,9 hPa 0,0 l/m 1,6 km/h (1 Bft) SO 135 0,000 mm -2,9 C -1,3 C 3,2 km/h (1 Bft) 100,00 %
05.12.2019 17:24 23,7 C -1,3 C 8,9 C 39 % 89 % 76 % 1026,9 hPa 0,0 l/m 3,2 km/h (1 Bft) SO 135 0,000 mm -2,9 C -1,3 C 4,8 km/h (1 Bft) 95,65 %
05.12.2019 17:23 23,7 C -1,3 C 8,9 C 39 % 89 % 76 % 1026,8 hPa 0,0 l/m 3,2 km/h (1 Bft) S-SW 202 0,000 mm -2,9 C -1,3 C 4,8 km/h (1 Bft) 100,00 %
05.12.2019 17:22 23,7 C -1,3 C 8,9 C 39 % 89 % 76 % 1026,8 hPa 0,0 l/m 3,2 km/h (1 Bft) S-SW 202 0,000 mm -2,9 C -1,3 C 4,8 km/h (1 Bft) 95,65 %
05.12.2019 17:21 23,7 C -1,2 C 8,9 C 39 % 89 % 77 % 1026,9 hPa 0,0 l/m 3,2 km/h (1 Bft) S 180 0,000 mm -2,8 C -1,2 C 6,4 km/h (2 Bft) 95,65 %
05.12.2019 17:20 23,7 C -1,3 C 8,9 C 39 % 89 % 77 % 1026,9 hPa 0,0 l/m 4,8 km/h (1 Bft) O-SO 112 0,000 mm -2,9 C -3,0 C 8,0 km/h (2 Bft) 95,65 %
05.12.2019 17:19 23,7 C -1,3 C 8,9 C 39 % 89 % 77 % 1026,8 hPa 0,0 l/m 4,8 km/h (1 Bft) SO 135 0,000 mm -2,9 C -3,0 C 8,0 km/h (2 Bft) 100,00 %
05.12.2019 17:18 23,7 C -1,3 C 8,9 C 39 % 89 % 77 % 1026,9 hPa 0,0 l/m 3,2 km/h (1 Bft) O-SO 112 0,000 mm -2,9 C -1,3 C 6,4 km/h (2 Bft) 91,30 %
05.12.2019 17:17 23,7 C -1,2 C 8,9 C 39 % 89 % 77 % 1026,8 hPa 0,0 l/m 3,2 km/h (1 Bft) O-SO 112 0,000 mm -2,8 C -1,2 C 4,8 km/h (1 Bft) 100,00 %
05.12.2019 17:16 23,7 C -1,3 C 8,9 C 39 % 89 % 77 % 1026,8 hPa 0,0 l/m 3,2 km/h (1 Bft) SO 135 0,000 mm -2,9 C -1,3 C 4,8 km/h (1 Bft) 91,30 %
05.12.2019 17:15 23,7 C -1,3 C 8,9 C 39 % 89 % 77 % 1026,8 hPa 0,0 l/m 3,2 km/h (1 Bft) SO 135 0,000 mm -2,9 C -1,3 C 4,8 km/h (1 Bft) 95,65 %
05.12.2019 17:14 23,7 C -1,3 C 8,9 C 39 % 89 % 77 % 1026,9 hPa 0,0 l/m 3,2 km/h (1 Bft) O 90 0,000 mm -2,9 C -1,3 C 4,8 km/h (1 Bft) 91,30 %
05.12.2019 17:13 23,7 C -1,3 C 8,9 C 39 % 89 % 77 % 1026,9 hPa 0,0 l/m 1,6 km/h (1 Bft) O 90 0,000 mm -2,9 C -1,3 C 3,2 km/h (1 Bft) 95,65 %
05.12.2019 17:12 23,7 C -1,3 C 8,9 C 39 % 89 % 77 % 1026,9 hPa 0,0 l/m 1,6 km/h (1 Bft) O 90 0,000 mm -2,9 C -1,3 C 4,8 km/h (1 Bft) 100,00 %
05.12.2019 17:11 23,7 C -1,3 C 8,9 C 39 % 89 % 77 % 1026,8 hPa 0,0 l/m 3,2 km/h (1 Bft) SO 135 0,000 mm -2,9 C -1,3 C 3,2 km/h (1 Bft) 95,65 %
05.12.2019 17:10 23,7 C -1,3 C 8,9 C 39 % 89 % 77 % 1026,8 hPa 0,0 l/m 1,6 km/h (1 Bft) SO 135 0,000 mm -2,9 C -1,3 C 1,6 km/h (1 Bft) 100,00 %
05.12.2019 17:09 23,7 C -1,3 C 8,9 C 39 % 89 % 77 % 1026,8 hPa 0,0 l/m 1,6 km/h (1 Bft) SO 135 0,000 mm -2,9 C -1,3 C 3,2 km/h (1 Bft) 95,65 %
05.12.2019 17:08 23,7 C -1,3 C 8,9 C 39 % 89 % 77 % 1026,9 hPa 0,0 l/m 3,2 km/h (1 Bft) SO 135 0,000 mm -2,9 C -1,3 C 3,2 km/h (1 Bft) 100,00 %
05.12.2019 17:07 23,7 C -1,3 C 8,9 C 39 % 89 % 77 % 1026,9 hPa 0,0 l/m 3,2 km/h (1 Bft) S-SW 202 0,000 mm -2,9 C -1,3 C 4,8 km/h (1 Bft) 91,30 %
05.12.2019 17:06 23,7 C -1,3 C 8,9 C 39 % 89 % 77 % 1026,9 hPa 0,0 l/m 1,6 km/h (1 Bft) S-SW 202 0,000 mm -2,9 C -1,3 C 3,2 km/h (1 Bft) 86,96 %
05.12.2019 17:05 23,7 C -1,3 C 8,9 C 39 % 89 % 77 % 1026,9 hPa 0,0 l/m 1,6 km/h (1 Bft) S-SW 202 0,000 mm -2,9 C -1,3 C 3,2 km/h (1 Bft) 95,65 %
05.12.2019 17:04 23,7 C -1,3 C 8,9 C 39 % 89 % 77 % 1026,9 hPa 0,0 l/m 3,2 km/h (1 Bft) S-SW 202 0,000 mm -2,9 C -1,3 C 4,8 km/h (1 Bft) 100,00 %
05.12.2019 17:03 23,7 C -1,3 C 8,9 C 39 % 89 % 77 % 1027,0 hPa 0,0 l/m 3,2 km/h (1 Bft) S 180 0,000 mm -2,9 C -1,3 C 6,4 km/h (2 Bft) 91,30 %
05.12.2019 17:02 23,7 C -1,3 C 8,9 C 39 % 89 % 78 % 1026,9 hPa 0,0 l/m 4,8 km/h (1 Bft) S-SW 202 0,000 mm -2,9 C -3,0 C 6,4 km/h (2 Bft) 95,65 %
05.12.2019 17:01 23,7 C -1,3 C 8,9 C 39 % 89 % 78 % 1026,9 hPa 0,0 l/m 4,8 km/h (1 Bft) S 180 0,000 mm -2,9 C -3,0 C 6,4 km/h (2 Bft) 95,65 %
05.12.2019 17:00 23,7 C -1,2 C 8,9 C 39 % 89 % 78 % 1026,9 hPa 0,0 l/m 3,2 km/h (1 Bft) S-SO 157 0,000 mm -2,8 C -1,2 C 4,8 km/h (1 Bft) 95,65 %
05.12.2019 16:59 23,7 C -1,2 C 8,9 C 39 % 89 % 78 % 1027,0 hPa 0,0 l/m 3,2 km/h (1 Bft) S-SO 157 0,000 mm -2,8 C -1,2 C 4,8 km/h (1 Bft) 91,30 %
05.12.2019 16:58 23,7 C -1,2 C 8,9 C 39 % 89 % 78 % 1026,8 hPa 0,0 l/m 3,2 km/h (1 Bft) S 180 0,000 mm -2,8 C -1,2 C 6,4 km/h (2 Bft) 95,65 %
05.12.2019 16:57 23,7 C -1,2 C 8,9 C 39 % 89 % 78 % 1026,8 hPa 0,0 l/m 1,6 km/h (1 Bft) S 180 0,000 mm -2,8 C -1,2 C 3,2 km/h (1 Bft) 100,00 %
05.12.2019 16:56 23,7 C -1,2 C 8,9 C 39 % 89 % 78 % 1026,8 hPa 0,0 l/m 1,6 km/h (1 Bft) S 180 0,000 mm -2,8 C -1,2 C 3,2 km/h (1 Bft) 100,00 %
05.12.2019 16:55 23,7 C -1,2 C 8,9 C 39 % 89 % 78 % 1027,0 hPa 0,0 l/m 1,6 km/h (1 Bft) S 180 0,000 mm -2,8 C -1,2 C 3,2 km/h (1 Bft) 100,00 %
05.12.2019 16:54 23,7 C -1,2 C 8,9 C 39 % 89 % 78 % 1027,0 hPa 0,0 l/m 4,8 km/h (1 Bft) S 180 0,000 mm -2,8 C -2,9 C 6,4 km/h (2 Bft) 95,65 %
05.12.2019 16:53 23,7 C -1,2 C 8,9 C 39 % 89 % 78 % 1026,9 hPa 0,0 l/m 4,8 km/h (1 Bft) S-SO 157 0,000 mm -2,8 C -2,9 C 6,4 km/h (2 Bft) 91,30 %
05.12.2019 16:52 23,7 C -1,2 C 8,9 C 39 % 89 % 78 % 1026,8 hPa 0,0 l/m 4,8 km/h (1 Bft) S-SO 157 0,000 mm -2,8 C -2,9 C 8,0 km/h (2 Bft) 100,00 %
05.12.2019 16:51 23,7 C -1,2 C 8,9 C 39 % 89 % 78 % 1026,9 hPa 0,0 l/m 4,8 km/h (1 Bft) S-SO 157 0,000 mm -2,8 C -2,9 C 11,3 km/h (2 Bft) 100,00 %
05.12.2019 16:50 23,7 C -1,2 C 8,9 C 39 % 89 % 78 % 1026,8 hPa 0,0 l/m 4,8 km/h (1 Bft) O-SO 112 0,000 mm -2,8 C -2,9 C 6,4 km/h (2 Bft) 95,65 %
05.12.2019 16:49 23,7 C -1,2 C 8,9 C 39 % 89 % 78 % 1027,0 hPa 0,0 l/m 4,8 km/h (1 Bft) O 90 0,000 mm -2,8 C -2,9 C 4,8 km/h (1 Bft) 100,00 %
05.12.2019 16:48 23,7 C -1,2 C 8,9 C 39 % 88 % 78 % 1026,8 hPa 0,0 l/m 3,2 km/h (1 Bft) SO 135 0,000 mm -2,9 C -1,2 C 6,4 km/h (2 Bft) 100,00 %
05.12.2019 16:47 23,7 C -1,2 C 8,9 C 39 % 88 % 78 % 1026,9 hPa 0,0 l/m 1,6 km/h (1 Bft) O-NO 67 0,000 mm -2,9 C -1,2 C 3,2 km/h (1 Bft) 95,65 %
05.12.2019 16:46 23,7 C -1,2 C 8,9 C 39 % 88 % 78 % 1026,9 hPa 0,0 l/m 1,6 km/h (1 Bft) O-NO 67 0,000 mm -2,9 C -1,2 C 3,2 km/h (1 Bft) 95,65 %
05.12.2019 16:45 23,7 C -1,2 C 8,9 C 39 % 88 % 78 % 1026,9 hPa 0,0 l/m 1,6 km/h (1 Bft) O-NO 67 0,000 mm -2,9 C -1,2 C 1,6 km/h (1 Bft) 95,65 %
05.12.2019 16:44 23,7 C -1,2 C 8,9 C 39 % 88 % 78 % 1026,9 hPa 0,0 l/m 0,0 km/h (0 Bft) O-NO 67 0,000 mm -2,9 C -1,2 C 1,6 km/h (1 Bft) 91,30 %
05.12.2019 16:43 23,7 C -1,2 C 8,9 C 39 % 89 % 78 % 1027,0 hPa 0,0 l/m 1,6 km/h (1 Bft) O-NO 67 0,000 mm -2,8 C -1,2 C 3,2 km/h (1 Bft) 100,00 %
05.12.2019 16:42 23,7 C -1,2 C 8,9 C 39 % 89 % 78 % 1026,9 hPa 0,0 l/m 1,6 km/h (1 Bft) O-NO 67 0,000 mm -2,8 C -1,2 C 3,2 km/h (1 Bft) 100,00 %
05.12.2019 16:41 23,7 C -1,2 C 8,9 C 39 % 88 % 78 % 1026,9 hPa 0,0 l/m 1,6 km/h (1 Bft) O-NO 67 0,000 mm -2,9 C -1,2 C 3,2 km/h (1 Bft) 95,65 %
05.12.2019 16:40 23,7 C -1,2 C 8,9 C 39 % 88 % 78 % 1026,9 hPa 0,0 l/m 1,6 km/h (1 Bft) O-NO 67 0,000 mm -2,9 C -1,2 C 1,6 km/h (1 Bft) 100,00 %
05.12.2019 16:39 23,7 C -1,2 C 8,9 C 39 % 88 % 78 % 1027,0 hPa 0,0 l/m 0,0 km/h (0 Bft) O-NO 67 0,000 mm -2,9 C -1,2 C 1,6 km/h (1 Bft) 95,65 %
05.12.2019 16:38 23,7 C -1,2 C 8,9 C 39 % 88 % 78 % 1026,9 hPa 0,0 l/m 1,6 km/h (1 Bft) O-NO 67 0,000 mm -2,9 C -1,2 C 3,2 km/h (1 Bft) 95,65 %
05.12.2019 16:37 23,7 C -1,1 C 8,9 C 39 % 88 % 78 % 1026,9 hPa 0,0 l/m 3,2 km/h (1 Bft) O 90 0,000 mm -2,8 C -1,1 C 4,8 km/h (1 Bft) 100,00 %
05.12.2019 16:36 23,7 C -1,1 C 8,9 C 39 % 88 % 78 % 1027,0 hPa 0,0 l/m 3,2 km/h (1 Bft) S-SO 157 0,000 mm -2,8 C -1,1 C 4,8 km/h (1 Bft) 100,00 %
05.12.2019 16:35 23,7 C -1,1 C 8,9 C 39 % 88 % 78 % 1026,9 hPa 0,0 l/m 1,6 km/h (1 Bft) S-SO 157 0,000 mm -2,8 C -1,1 C 3,2 km/h (1 Bft) 100,00 %
05.12.2019 16:34 23,7 C -1,1 C 8,9 C 39 % 88 % 78 % 1026,8 hPa 0,0 l/m 1,6 km/h (1 Bft) S-SO 157 0,000 mm -2,8 C -1,1 C 3,2 km/h (1 Bft) 100,00 %
05.12.2019 16:33 23,7 C -1,1 C 8,9 C 39 % 88 % 78 % 1026,9 hPa 0,0 l/m 1,6 km/h (1 Bft) S-SO 157 0,000 mm -2,8 C -1,1 C 4,8 km/h (1 Bft) 100,00 %
05.12.2019 16:32 23,7 C -1,1 C 8,9 C 39 % 88 % 78 % 1026,9 hPa 0,0 l/m 1,6 km/h (1 Bft) S 180 0,000 mm -2,8 C -1,1 C 3,2 km/h (1 Bft) 91,30 %
05.12.2019 16:31 23,7 C -1,1 C 8,9 C 39 % 88 % 78 % 1026,9 hPa 0,0 l/m 3,2 km/h (1 Bft) S 180 0,000 mm -2,8 C -1,1 C 3,2 km/h (1 Bft) 100,00 %
05.12.2019 16:30 23,7 C -1,1 C 8,9 C 39 % 88 % 78 % 1026,8 hPa 0,0 l/m 3,2 km/h (1 Bft) S 180 0,000 mm -2,8 C -1,1 C 4,8 km/h (1 Bft) 95,65 %
05.12.2019 16:29 23,7 C -1,1 C 8,9 C 39 % 88 % 78 % 1026,8 hPa 0,0 l/m 3,2 km/h (1 Bft) S 180 0,000 mm -2,8 C -1,1 C 6,4 km/h (2 Bft) 95,65 %
05.12.2019 16:28 23,7 C -1,1 C 8,9 C 39 % 88 % 78 % 1026,9 hPa 0,0 l/m 4,8 km/h (1 Bft) O-SO 112 0,000 mm -2,8 C -2,7 C 8,0 km/h (2 Bft) 100,00 %
05.12.2019 16:27 23,7 C -1,1 C 8,9 C 39 % 88 % 78 % 1026,8 hPa 0,0 l/m 3,2 km/h (1 Bft) NO 45 0,000 mm -2,8 C -1,1 C 3,2 km/h (1 Bft) 95,65 %
05.12.2019 16:26 23,8 C -1,0 C 8,9 C 39 % 88 % 78 % 1026,9 hPa 0,0 l/m 3,2 km/h (1 Bft) O-SO 112 0,000 mm -2,7 C -1,0 C 4,8 km/h (1 Bft) 95,65 %
05.12.2019 16:25 23,8 C -1,0 C 8,9 C 39 % 88 % 78 % 1026,9 hPa 0,0 l/m 3,2 km/h (1 Bft) SO 135 0,000 mm -2,7 C -1,0 C 6,4 km/h (2 Bft) 91,30 %
05.12.2019 16:24 23,7 C -0,9 C 8,9 C 39 % 88 % 78 % 1027,0 hPa 0,0 l/m 3,2 km/h (1 Bft) SO 135 0,000 mm -2,6 C -0,9 C 6,4 km/h (2 Bft) 100,00 %
05.12.2019 16:23 23,8 C -0,9 C 8,9 C 39 % 88 % 78 % 1026,9 hPa 0,0 l/m 1,6 km/h (1 Bft) O 90 0,000 mm -2,6 C -0,9 C 3,2 km/h (1 Bft) 95,65 %
05.12.2019 16:22 23,8 C -1,0 C 8,9 C 39 % 88 % 77 % 1026,8 hPa 0,0 l/m 1,6 km/h (1 Bft) O 90 0,000 mm -2,7 C -1,0 C 3,2 km/h (1 Bft) 95,65 %
05.12.2019 16:21 23,7 C -0,9 C 8,9 C 39 % 88 % 77 % 1026,9 hPa 0,0 l/m 1,6 km/h (1 Bft) NO 45 0,000 mm -2,6 C -0,9 C 6,4 km/h (2 Bft) 100,00 %
05.12.2019 16:20 23,8 C -0,9 C 8,9 C 39 % 88 % 77 % 1026,9 hPa 0,0 l/m 0,0 km/h (0 Bft) NO 45 0,000 mm -2,6 C -0,9 C 1,6 km/h (1 Bft) 95,65 %
05.12.2019 16:19 23,8 C -0,9 C 8,9 C 39 % 88 % 77 % 1026,9 hPa 0,0 l/m 0,0 km/h (0 Bft) NO 45 0,000 mm -2,6 C -0,9 C 1,6 km/h (1 Bft) 100,00 %
05.12.2019 16:18 23,8 C -0,9 C 8,9 C 39 % 88 % 77 % 1026,8 hPa 0,0 l/m 0,0 km/h (0 Bft) NO 45 0,000 mm -2,6 C -0,9 C 1,6 km/h (1 Bft) 91,30 %
05.12.2019 16:17 23,8 C -0,9 C 8,9 C 39 % 88 % 77 % 1026,8 hPa 0,0 l/m 1,6 km/h (1 Bft) NO 45 0,000 mm -2,6 C -0,9 C 3,2 km/h (1 Bft) 100,00 %
05.12.2019 16:16 23,8 C -0,9 C 8,9 C 39 % 88 % 77 % 1026,8 hPa 0,0 l/m 3,2 km/h (1 Bft) NO 45 0,000 mm -2,6 C -0,9 C 4,8 km/h (1 Bft) 95,65 %
05.12.2019 16:15 23,8 C -0,9 C 8,9 C 39 % 88 % 77 % 1026,7 hPa 0,0 l/m 1,6 km/h (1 Bft) O-NO 67 0,000 mm -2,6 C -0,9 C 1,6 km/h (1 Bft) 100,00 %
05.12.2019 16:14 23,8 C -0,9 C 8,9 C 39 % 88 % 76 % 1026,8 hPa 0,0 l/m 1,6 km/h (1 Bft) O-NO 67 0,000 mm -2,6 C -0,9 C 3,2 km/h (1 Bft) 95,65 %
05.12.2019 16:13 23,8 C -0,9 C 8,9 C 39 % 88 % 76 % 1026,8 hPa 0,0 l/m 1,6 km/h (1 Bft) O-NO 67 0,000 mm -2,6 C -0,9 C 3,2 km/h (1 Bft) 95,65 %
05.12.2019 16:12 23,8 C -0,9 C 8,9 C 39 % 88 % 76 % 1026,8 hPa 0,0 l/m 1,6 km/h (1 Bft) O-NO 67 0,000 mm -2,6 C -0,9 C 3,2 km/h (1 Bft) 100,00 %
05.12.2019 16:11 23,8 C -0,9 C 8,9 C 39 % 88 % 76 % 1026,7 hPa 0,0 l/m 0,0 km/h (0 Bft) SO 135 0,000 mm -2,6 C -0,9 C 1,6 km/h (1 Bft) 91,30 %
05.12.2019 16:10 23,8 C -0,9 C 9,4 C 39 % 88 % 76 % 1026,7 hPa 0,0 l/m 1,6 km/h (1 Bft) SO 135 0,000 mm -2,6 C -0,9 C 1,6 km/h (1 Bft) 100,00 %
05.12.2019 16:09 23,8 C -0,9 C 9,4 C 39 % 88 % 76 % 1026,7 hPa 0,0 l/m 3,2 km/h (1 Bft) SO 135 0,000 mm -2,6 C -0,9 C 3,2 km/h (1 Bft) 91,30 %
05.12.2019 16:08 23,8 C -0,9 C 9,4 C 39 % 88 % 76 % 1026,6 hPa 0,0 l/m 3,2 km/h (1 Bft) O 90 0,000 mm -2,6 C -0,9 C 4,8 km/h (1 Bft) 100,00 %
05.12.2019 16:07 23,8 C -0,9 C 9,4 C 39 % 88 % 76 % 1026,7 hPa 0,0 l/m 3,2 km/h (1 Bft) O 90 0,000 mm -2,6 C -0,9 C 3,2 km/h (1 Bft) 95,65 %
05.12.2019 16:06 23,8 C -0,9 C 9,4 C 39 % 88 % 76 % 1026,5 hPa 0,0 l/m 3,2 km/h (1 Bft) O 90 0,000 mm -2,6 C -0,9 C 4,8 km/h (1 Bft) 100,00 %
05.12.2019 16:05 23,8 C -0,9 C 9,4 C 39 % 88 % 76 % 1026,6 hPa 0,0 l/m 4,8 km/h (1 Bft) O 90 0,000 mm -2,6 C -2,5 C 6,4 km/h (2 Bft) 95,65 %
05.12.2019 16:04 23,8 C -0,9 C 9,4 C 39 % 88 % 76 % 1026,5 hPa 0,0 l/m 3,2 km/h (1 Bft) SO 135 0,000 mm -2,6 C -0,9 C 4,8 km/h (1 Bft) 86,96 %
05.12.2019 16:03 23,8 C -0,9 C 9,4 C 39 % 87 % 76 % 1026,5 hPa 0,0 l/m 3,2 km/h (1 Bft) O-SO 112 0,000 mm -2,8 C -0,9 C 4,8 km/h (1 Bft) 100,00 %
05.12.2019 16:02 23,8 C -0,8 C 9,4 C 39 % 87 % 76 % 1026,5 hPa 0,0 l/m 1,6 km/h (1 Bft) O 90 0,000 mm -2,7 C -0,8 C 3,2 km/h (1 Bft) 95,65 %
05.12.2019 16:01 23,8 C -0,8 C 9,4 C 39 % 87 % 77 % 1026,5 hPa 0,0 l/m 1,6 km/h (1 Bft) O 90 0,000 mm -2,7 C -0,8 C 3,2 km/h (1 Bft) 100,00 %
05.12.2019 16:00 23,8 C -0,8 C 9,4 C 39 % 88 % 77 % 1026,6 hPa 0,0 l/m 0,0 km/h (0 Bft) N 0 0,000 mm -2,5 C -0,8 C 0,0 km/h (0 Bft) 95,65 %
05.12.2019 15:59 23,8 C -0,8 C 9,4 C 39 % 87 % 77 % 1026,4 hPa 0,0 l/m 0,0 km/h (0 Bft) N 0 0,000 mm -2,7 C -0,8 C 0,0 km/h (0 Bft) 100,00 %
05.12.2019 15:58 23,8 C -0,8 C 9,4 C 39 % 87 % 77 % 1026,4 hPa 0,0 l/m 3,2 km/h (1 Bft) O-NO 67 0,000 mm -2,7 C -0,8 C 4,8 km/h (1 Bft) 100,00 %
05.12.2019 15:57 23,8 C -0,8 C 9,4 C 39 % 88 % 77 % 1026,4 hPa 0,0 l/m 1,6 km/h (1 Bft) O-NO 67 0,000 mm -2,5 C -0,8 C 3,2 km/h (1 Bft) 95,65 %
05.12.2019 15:56 23,8 C -0,8 C 9,4 C 39 % 88 % 77 % 1026,5 hPa 0,0 l/m 1,6 km/h (1 Bft) NO 45 0,000 mm -2,5 C -0,8 C 3,2 km/h (1 Bft) 100,00 %
05.12.2019 15:55 23,8 C -0,8 C 9,4 C 39 % 88 % 77 % 1026,5 hPa 0,0 l/m 1,6 km/h (1 Bft) NO 45 0,000 mm -2,5 C -0,8 C 4,8 km/h (1 Bft) 95,65 %
05.12.2019 15:54 23,8 C -0,8 C 9,4 C 39 % 88 % 77 % 1026,5 hPa 0,0 l/m 1,6 km/h (1 Bft) O-NO 67 0,000 mm -2,5 C -0,8 C 4,8 km/h (1 Bft) 100,00 %
05.12.2019 15:53 23,8 C -0,8 C 9,4 C 39 % 88 % 77 % 1026,6 hPa 0,0 l/m 3,2 km/h (1 Bft) O 90 0,000 mm -2,5 C -0,8 C 4,8 km/h (1 Bft) 100,00 %
05.12.2019 15:52 23,9 C -0,8 C 9,4 C 39 % 88 % 78 % 1026,5 hPa 0,0 l/m 3,2 km/h (1 Bft) O 90 0,000 mm -2,5 C -0,8 C 4,8 km/h (1 Bft) 100,00 %
05.12.2019 15:51 23,9 C -0,8 C 9,4 C 39 % 88 % 78 % 1026,7 hPa 0,0 l/m 3,2 km/h (1 Bft) O 90 0,000 mm -2,5 C -0,8 C 4,8 km/h (1 Bft) 95,65 %
05.12.2019 15:50 23,8 C -0,8 C 9,4 C 39 % 87 % 78 % 1026,6 hPa 0,0 l/m 1,6 km/h (1 Bft) O 90 0,000 mm -2,7 C -0,8 C 3,2 km/h (1 Bft) 95,65 %
05.12.2019 15:49 23,8 C -0,8 C 9,4 C 39 % 87 % 78 % 1026,7 hPa 0,0 l/m 1,6 km/h (1 Bft) O 90 0,000 mm -2,7 C -0,8 C 3,2 km/h (1 Bft) 100,00 %
05.12.2019 15:48 23,8 C -0,8 C 9,4 C 39 % 87 % 78 % 1026,7 hPa 0,0 l/m 1,6 km/h (1 Bft) O 90 0,000 mm -2,7 C -0,8 C 3,2 km/h (1 Bft) 100,00 %
05.12.2019 15:47 23,9 C -0,8 C 9,4 C 39 % 87 % 78 % 1026,6 hPa 0,0 l/m 3,2 km/h (1 Bft) O 90 0,000 mm -2,7 C -0,8 C 4,8 km/h (1 Bft) 100,00 %
05.12.2019 15:46 23,9 C -0,8 C 9,4 C 39 % 87 % 78 % 1026,7 hPa 0,0 l/m 3,2 km/h (1 Bft) O 90 0,000 mm -2,7 C -0,8 C 4,8 km/h (1 Bft) 95,65 %
05.12.2019 15:45 23,8 C -0,8 C 9,4 C 39 % 87 % 78 % 1026,6 hPa 0,0 l/m 0,0 km/h (0 Bft) O 90 0,000 mm -2,7 C -0,8 C 1,6 km/h (1 Bft) 100,00 %
05.12.2019 15:44 23,9 C -0,8 C 9,4 C 39 % 87 % 78 % 1026,7 hPa 0,0 l/m 1,6 km/h (1 Bft) O 90 0,000 mm -2,7 C -0,8 C 3,2 km/h (1 Bft) 100,00 %
05.12.2019 15:43 23,8 C -0,8 C 9,4 C 39 % 87 % 78 % 1026,6 hPa 0,0 l/m 1,6 km/h (1 Bft) O 90 0,000 mm -2,7 C -0,8 C 3,2 km/h (1 Bft) 95,65 %
05.12.2019 15:42 23,9 C -0,8 C 9,4 C 39 % 87 % 78 % 1026,6 hPa 0,0 l/m 1,6 km/h (1 Bft) O 90 0,000 mm -2,7 C -0,8 C 3,2 km/h (1 Bft) 95,65 %
05.12.2019 15:41 23,9 C -0,8 C 9,4 C 39 % 87 % 78 % 1026,7 hPa 0,0 l/m 3,2 km/h (1 Bft) O 90 0,000 mm -2,7 C -0,8 C 4,8 km/h (1 Bft) 100,00 %
05.12.2019 15:40 23,9 C -0,8 C 9,4 C 39 % 87 % 78 % 1026,4 hPa 0,0 l/m 1,6 km/h (1 Bft) O 90 0,000 mm -2,7 C -0,8 C 3,2 km/h (1 Bft) 95,65 %
05.12.2019 15:39 23,9 C -0,8 C 9,4 C 39 % 88 % 78 % 1026,5 hPa 0,0 l/m 0,0 km/h (0 Bft) O 90 0,000 mm -2,5 C -0,8 C 1,6 km/h (1 Bft) 100,00 %
05.12.2019 15:38 23,9 C -0,8 C 9,4 C 39 % 88 % 78 % 1026,5 hPa 0,0 l/m 0,0 km/h (0 Bft) O 90 0,000 mm -2,5 C -0,8 C 1,6 km/h (1 Bft) 100,00 %
05.12.2019 15:37 23,9 C -0,8 C 9,4 C 39 % 88 % 77 % 1026,5 hPa 0,0 l/m 1,6 km/h (1 Bft) O 90 0,000 mm -2,5 C -0,8 C 3,2 km/h (1 Bft) 95,65 %
05.12.2019 15:36 23,9 C -0,8 C 9,4 C 39 % 88 % 77 % 1026,4 hPa 0,0 l/m 1,6 km/h (1 Bft) N-NO 22 0,000 mm -2,5 C -0,8 C 3,2 km/h (1 Bft) 95,65 %
05.12.2019 15:35 23,9 C -0,8 C 9,4 C 39 % 88 % 77 % 1026,4 hPa 0,0 l/m 0,0 km/h (0 Bft) N-NO 22 0,000 mm -2,5 C -0,8 C 1,6 km/h (1 Bft) 95,65 %
05.12.2019 15:34 23,9 C -0,8 C 9,4 C 39 % 87 % 77 % 1026,6 hPa 0,0 l/m 0,0 km/h (0 Bft) N-NO 22 0,000 mm -2,7 C -0,8 C 1,6 km/h (1 Bft) 100,00 %
05.12.2019 15:33 23,9 C -0,8 C 9,4 C 39 % 87 % 77 % 1026,5 hPa 0,0 l/m 1,6 km/h (1 Bft) N-NO 22 0,000 mm -2,7 C -0,8 C 3,2 km/h (1 Bft) 95,65 %
05.12.2019 15:32 23,9 C -0,8 C 9,4 C 39 % 87 % 77 % 1026,7 hPa 0,0 l/m 1,6 km/h (1 Bft) N-NO 22 0,000 mm -2,7 C -0,8 C 4,8 km/h (1 Bft) 100,00 %
05.12.2019 15:31 23,9 C -0,8 C 9,4 C 39 % 87 % 77 % 1026,5 hPa 0,0 l/m 1,6 km/h (1 Bft) O-SO 112 0,000 mm -2,7 C -0,8 C 3,2 km/h (1 Bft) 91,30 %
05.12.2019 15:30 23,9 C -0,8 C 9,4 C 39 % 87 % 77 % 1026,6 hPa 0,0 l/m 3,2 km/h (1 Bft) O-SO 112 0,000 mm -2,7 C -0,8 C 4,8 km/h (1 Bft) 100,00 %
05.12.2019 15:29 23,9 C -0,8 C 9,4 C 39 % 87 % 77 % 1026,5 hPa 0,0 l/m 3,2 km/h (1 Bft) SO 135 0,000 mm -2,7 C -0,8 C 4,8 km/h (1 Bft) 91,30 %
05.12.2019 15:28 23,9 C -0,8 C 9,4 C 39 % 87 % 77 % 1026,7 hPa 0,0 l/m 3,2 km/h (1 Bft) SO 135 0,000 mm -2,7 C -0,8 C 4,8 km/h (1 Bft) 100,00 %
05.12.2019 15:27 23,9 C -0,8 C 9,4 C 39 % 87 % 77 % 1026,5 hPa 0,0 l/m 1,6 km/h (1 Bft) SO 135 0,000 mm -2,7 C -0,8 C 3,2 km/h (1 Bft) 95,65 %
05.12.2019 15:26 23,9 C -0,8 C 9,4 C 39 % 87 % 76 % 1026,7 hPa 0,0 l/m 1,6 km/h (1 Bft) SO 135 0,000 mm -2,7 C -0,8 C 1,6 km/h (1 Bft) 100,00 %
05.12.2019 15:25 23,9 C -0,8 C 9,4 C 39 % 87 % 76 % 1026,7 hPa 0,0 l/m 0,0 km/h (0 Bft) SO 135 0,000 mm -2,7 C -0,8 C 1,6 km/h (1 Bft) 95,65 %
05.12.2019 15:24 23,9 C -0,8 C 9,4 C 39 % 87 % 76 % 1026,5 hPa 0,0 l/m 1,6 km/h (1 Bft) SO 135 0,000 mm -2,7 C -0,8 C 3,2 km/h (1 Bft) 100,00 %
05.12.2019 15:23 23,9 C -0,7 C 9,4 C 39 % 87 % 76 % 1026,7 hPa 0,0 l/m 1,6 km/h (1 Bft) SO 135 0,000 mm -2,6 C -0,7 C 3,2 km/h (1 Bft) 95,65 %
05.12.2019 15:22 23,9 C -0,8 C 9,4 C 39 % 87 % 76 % 1026,8 hPa 0,0 l/m 3,2 km/h (1 Bft) O-SO 112 0,000 mm -2,7 C -0,8 C 4,8 km/h (1 Bft) 91,30 %
05.12.2019 15:21 23,9 C -0,7 C 9,4 C 39 % 87 % 76 % 1026,6 hPa 0,0 l/m 1,6 km/h (1 Bft) O-NO 67 0,000 mm -2,6 C -0,7 C 3,2 km/h (1 Bft) 100,00 %
05.12.2019 15:20 23,9 C -0,7 C 9,4 C 39 % 87 % 76 % 1026,8 hPa 0,0 l/m 1,6 km/h (1 Bft) O-NO 67 0,000 mm -2,6 C -0,7 C 3,2 km/h (1 Bft) 95,65 %
05.12.2019 15:19 23,9 C -0,7 C 10,0 C 39 % 87 % 76 % 1026,7 hPa 0,0 l/m 1,6 km/h (1 Bft) O-NO 67 0,000 mm -2,6 C -0,7 C 1,6 km/h (1 Bft) 100,00 %
05.12.2019 15:18 23,9 C -0,8 C 10,0 C 39 % 87 % 76 % 1026,5 hPa 0,0 l/m 1,6 km/h (1 Bft) O-NO 67 0,000 mm -2,7 C -0,8 C 3,2 km/h (1 Bft) 95,65 %
05.12.2019 15:17 23,9 C -0,7 C 10,0 C 39 % 87 % 76 % 1026,6 hPa 0,0 l/m 1,6 km/h (1 Bft) O-NO 67 0,000 mm -2,6 C -0,7 C 3,2 km/h (1 Bft) 100,00 %
05.12.2019 15:16 23,9 C -0,7 C 10,0 C 39 % 87 % 76 % 1026,7 hPa 0,0 l/m 1,6 km/h (1 Bft) O-NO 67 0,000 mm -2,6 C -0,7 C 3,2 km/h (1 Bft) 91,30 %
05.12.2019 15:15 24,0 C -0,7 C 10,0 C 39 % 87 % 76 % 1026,5 hPa 0,0 l/m 1,6 km/h (1 Bft) O-NO 67 0,000 mm -2,6 C -0,7 C 4,8 km/h (1 Bft) 95,65 %
05.12.2019 15:14 23,9 C -0,7 C 10,0 C 39 % 87 % 76 % 1026,5 hPa 0,0 l/m 1,6 km/h (1 Bft) O-NO 67 0,000 mm -2,6 C -0,7 C 3,2 km/h (1 Bft) 95,65 %
05.12.2019 15:13 23,9 C -0,7 C 10,0 C 39 % 87 % 76 % 1026,6 hPa 0,0 l/m 1,6 km/h (1 Bft) O-NO 67 0,000 mm -2,6 C -0,7 C 3,2 km/h (1 Bft) 100,00 %
05.12.2019 15:12 23,9 C -0,7 C 10,0 C 39 % 87 % 76 % 1026,6 hPa 0,0 l/m 1,6 km/h (1 Bft) NO 45 0,000 mm -2,6 C -0,7 C 3,2 km/h (1 Bft) 95,65 %
05.12.2019 15:11 24,0 C -0,7 C 10,0 C 39 % 87 % 76 % 1026,6 hPa 0,0 l/m 1,6 km/h (1 Bft) NO 45 0,000 mm -2,6 C -0,7 C 1,6 km/h (1 Bft) 100,00 %
05.12.2019 15:10 24,0 C -0,7 C 10,0 C 39 % 87 % 76 % 1026,6 hPa 0,0 l/m 1,6 km/h (1 Bft) NO 45 0,000 mm -2,6 C -0,7 C 1,6 km/h (1 Bft) 95,65 %
05.12.2019 15:09 24,0 C -0,7 C 10,0 C 39 % 87 % 76 % 1026,4 hPa 0,0 l/m 3,2 km/h (1 Bft) NO 45 0,000 mm -2,6 C -0,7 C 4,8 km/h (1 Bft) 95,65 %
05.12.2019 15:08 24,0 C -0,7 C 10,0 C 39 % 87 % 76 % 1026,5 hPa 0,0 l/m 3,2 km/h (1 Bft) O 90 0,000 mm -2,6 C -0,7 C 6,4 km/h (2 Bft) 100,00 %
05.12.2019 15:07 24,0 C -0,7 C 10,0 C 39 % 87 % 76 % 1026,4 hPa 0,0 l/m 3,2 km/h (1 Bft) O-NO 67 0,000 mm -2,6 C -0,7 C 6,4 km/h (2 Bft) 95,65 %
05.12.2019 15:06 24,0 C -0,7 C 10,0 C 39 % 87 % 76 % 1026,4 hPa 0,0 l/m 1,6 km/h (1 Bft) O 90 0,000 mm -2,6 C -0,7 C 3,2 km/h (1 Bft) 95,65 %
05.12.2019 15:05 24,0 C -0,7 C 10,0 C 39 % 87 % 77 % 1026,5 hPa 0,0 l/m 1,6 km/h (1 Bft) SO 135 0,000 mm -2,6 C -0,7 C 4,8 km/h (1 Bft) 100,00 %
05.12.2019 15:04 24,0 C -0,7 C 10,0 C 39 % 87 % 77 % 1026,4 hPa 0,0 l/m 1,6 km/h (1 Bft) SO 135 0,000 mm -2,6 C -0,7 C 4,8 km/h (1 Bft) 95,65 %
05.12.2019 15:03 24,0 C -0,7 C 10,0 C 39 % 87 % 77 % 1026,5 hPa 0,0 l/m 4,8 km/h (1 Bft) O 90 0,000 mm -2,6 C -2,3 C 6,4 km/h (2 Bft) 100,00 %
05.12.2019 15:02 24,0 C -0,7 C 10,0 C 39 % 87 % 77 % 1026,4 hPa 0,0 l/m 6,4 km/h (2 Bft) O-SO 112 0,000 mm -2,6 C -3,0 C 9,7 km/h (2 Bft) 100,00 %
05.12.2019 15:01 24,1 C -0,6 C 10,0 C 39 % 87 % 77 % 1026,5 hPa 0,0 l/m 3,2 km/h (1 Bft) NO 45 0,000 mm -2,5 C -0,6 C 6,4 km/h (2 Bft) 91,30 %
05.12.2019 15:00 24,1 C -0,6 C 10,0 C 39 % 87 % 77 % 1026,4 hPa 0,0 l/m 1,6 km/h (1 Bft) NO 45 0,000 mm -2,5 C -0,6 C 3,2 km/h (1 Bft) 100,00 %
05.12.2019 14:59 24,0 C -0,6 C 10,0 C 39 % 87 % 77 % 1026,4 hPa 0,0 l/m 0,0 km/h (0 Bft) NO 45 0,000 mm -2,5 C -0,6 C 1,6 km/h (1 Bft) 100,00 %
05.12.2019 14:58 24,0 C -0,6 C 10,0 C 39 % 87 % 77 % 1026,4 hPa 0,0 l/m 1,6 km/h (1 Bft) NO 45 0,000 mm -2,5 C -0,6 C 3,2 km/h (1 Bft) 100,00 %
05.12.2019 14:57 24,1 C -0,6 C 10,0 C 39 % 87 % 77 % 1026,4 hPa 0,0 l/m 3,2 km/h (1 Bft) N-NO 22 0,000 mm -2,5 C -0,6 C 4,8 km/h (1 Bft) 100,00 %
05.12.2019 14:56 24,1 C -0,6 C 10,0 C 39 % 86 % 77 % 1026,4 hPa 0,0 l/m 1,6 km/h (1 Bft) N-NO 22 0,000 mm -2,6 C -0,6 C 3,2 km/h (1 Bft) 100,00 %
05.12.2019 14:55 24,1 C -0,6 C 10,0 C 39 % 86 % 77 % 1026,4 hPa 0,0 l/m 1,6 km/h (1 Bft) O-SO 112 0,000 mm -2,6 C -0,6 C 3,2 km/h (1 Bft) 95,65 %
05.12.2019 14:54 24,1 C -0,6 C 10,0 C 39 % 86 % 77 % 1026,4 hPa 0,0 l/m 3,2 km/h (1 Bft) O-SO 112 0,000 mm -2,6 C -0,6 C 4,8 km/h (1 Bft) 95,65 %
05.12.2019 14:53 24,1 C -0,6 C 10,0 C 39 % 86 % 77 % 1026,5 hPa 0,0 l/m 3,2 km/h (1 Bft) O-SO 112 0,000 mm -2,6 C -0,6 C 6,4 km/h (2 Bft) 95,65 %
05.12.2019 14:52 24,0 C -0,6 C 10,0 C 39 % 87 % 77 % 1026,5 hPa 0,0 l/m 4,8 km/h (1 Bft) O 90 0,000 mm -2,5 C -2,2 C 8,0 km/h (2 Bft) 100,00 %
05.12.2019 14:51 24,1 C -0,5 C 10,0 C 39 % 86 % 77 % 1026,4 hPa 0,0 l/m 3,2 km/h (1 Bft) N-NO 22 0,000 mm -2,5 C -0,5 C 4,8 km/h (1 Bft) 100,00 %
05.12.2019 14:50 24,1 C -0,6 C 10,0 C 39 % 86 % 77 % 1026,5 hPa 0,0 l/m 3,2 km/h (1 Bft) N-NO 22 0,000 mm -2,6 C -0,6 C 4,8 km/h (1 Bft) 100,00 %
05.12.2019 14:49 24,1 C -0,5 C 10,0 C 39 % 86 % 77 % 1026,4 hPa 0,0 l/m 3,2 km/h (1 Bft) O 90 0,000 mm -2,5 C -0,5 C 4,8 km/h (1 Bft) 100,00 %
05.12.2019 14:48 24,1 C -0,5 C 10,0 C 39 % 86 % 77 % 1026,5 hPa 0,0 l/m 1,6 km/h (1 Bft) NO 45 0,000 mm -2,5 C -0,5 C 3,2 km/h (1 Bft) 100,00 %
05.12.2019 14:47 24,1 C -0,5 C 10,0 C 39 % 86 % 77 % 1026,4 hPa 0,0 l/m 3,2 km/h (1 Bft) O 90 0,000 mm -2,5 C -0,5 C 4,8 km/h (1 Bft) 100,00 %
05.12.2019 14:46 24,1 C -0,5 C 10,0 C 39 % 86 % 77 % 1026,4 hPa 0,0 l/m 1,6 km/h (1 Bft) O-NO 67 0,000 mm -2,5 C -0,5 C 1,6 km/h (1 Bft) 95,65 %
05.12.2019 14:45 24,1 C -0,5 C 10,0 C 39 % 86 % 76 % 1026,5 hPa 0,0 l/m 3,2 km/h (1 Bft) NO 45 0,000 mm -2,5 C -0,5 C 6,4 km/h (2 Bft) 95,65 %
05.12.2019 14:44 24,1 C -0,5 C 10,0 C 39 % 86 % 76 % 1026,5 hPa 0,0 l/m 3,2 km/h (1 Bft) NO 45 0,000 mm -2,5 C -0,5 C 4,8 km/h (1 Bft) 100,00 %
05.12.2019 14:43 24,1 C -0,4 C 10,0 C 39 % 86 % 76 % 1026,4 hPa 0,0 l/m 3,2 km/h (1 Bft) O 90 0,000 mm -2,4 C -0,4 C 4,8 km/h (1 Bft) 100,00 %
05.12.2019 14:42 24,1 C -0,4 C 10,0 C 39 % 86 % 76 % 1026,4 hPa 0,0 l/m 1,6 km/h (1 Bft) O 90 0,000 mm -2,4 C -0,4 C 3,2 km/h (1 Bft) 91,30 %
05.12.2019 14:41 24,1 C -0,4 C 10,0 C 39 % 86 % 76 % 1026,5 hPa 0,0 l/m 3,2 km/h (1 Bft) O 90 0,000 mm -2,4 C -0,4 C 3,2 km/h (1 Bft) 95,65 %
05.12.2019 14:40 24,1 C -0,4 C 10,0 C 39 % 86 % 76 % 1026,5 hPa 0,0 l/m 3,2 km/h (1 Bft) N-NO 22 0,000 mm -2,4 C -0,4 C 4,8 km/h (1 Bft) 95,65 %
05.12.2019 14:39 24,1 C -0,4 C 10,0 C 39 % 86 % 76 % 1026,6 hPa 0,0 l/m 3,2 km/h (1 Bft) NO 45 0,000 mm -2,4 C -0,4 C 3,2 km/h (1 Bft) 95,65 %
05.12.2019 14:38 24,1 C -0,4 C 10,0 C 39 % 86 % 76 % 1026,5 hPa 0,0 l/m 1,6 km/h (1 Bft) NO 45 0,000 mm -2,4 C -0,4 C 4,8 km/h (1 Bft) 100,00 %
05.12.2019 14:37 24,1 C -0,4 C 10,0 C 39 % 86 % 76 % 1026,6 hPa 0,0 l/m 1,6 km/h (1 Bft) NO 45 0,000 mm -2,4 C -0,4 C 4,8 km/h (1 Bft) 95,65 %
05.12.2019 14:36 24,1 C -0,4 C 10,0 C 39 % 87 % 75 % 1026,5 hPa 0,0 l/m 1,6 km/h (1 Bft) N-NO 22 0,000 mm -2,3 C -0,4 C 3,2 km/h (1 Bft) 91,30 %
05.12.2019 14:35 24,1 C -0,4 C 10,0 C 39 % 87 % 75 % 1026,5 hPa 0,0 l/m 3,2 km/h (1 Bft) N-NO 22 0,000 mm -2,3 C -0,4 C 6,4 km/h (2 Bft) 100,00 %
05.12.2019 14:34 24,1 C -0,4 C 10,6 C 39 % 87 % 75 % 1026,7 hPa 0,0 l/m 6,4 km/h (2 Bft) N-NO 22 0,000 mm -2,3 C -2,6 C 8,0 km/h (2 Bft) 91,30 %
05.12.2019 14:33 24,1 C -0,4 C 10,6 C 39 % 87 % 75 % 1026,6 hPa 0,0 l/m 6,4 km/h (2 Bft) N-NO 22 0,000 mm -2,3 C -2,6 C 8,0 km/h (2 Bft) 100,00 %
05.12.2019 14:32 24,1 C -0,4 C 10,6 C 39 % 86 % 75 % 1026,4 hPa 0,0 l/m 6,4 km/h (2 Bft) N-NO 22 0,000 mm -2,4 C -2,6 C 9,7 km/h (2 Bft) 91,30 %
05.12.2019 14:31 24,2 C -0,4 C 10,6 C 39 % 87 % 75 % 1026,5 hPa 0,0 l/m 4,8 km/h (1 Bft) N-NO 22 0,000 mm -2,3 C -1,9 C 6,4 km/h (2 Bft) 100,00 %
05.12.2019 14:30 24,1 C -0,4 C 10,6 C 39 % 86 % 75 % 1026,5 hPa 0,0 l/m 3,2 km/h (1 Bft) N-NO 22 0,000 mm -2,4 C -0,4 C 4,8 km/h (1 Bft) 91,30 %
05.12.2019 14:29 24,1 C -0,4 C 10,6 C 39 % 86 % 75 % 1026,5 hPa 0,0 l/m 3,2 km/h (1 Bft) NO 45 0,000 mm -2,4 C -0,4 C 6,4 km/h (2 Bft) 100,00 %
05.12.2019 14:28 24,1 C -0,4 C 10,6 C 39 % 86 % 75 % 1026,5 hPa 0,0 l/m 3,2 km/h (1 Bft) NO 45 0,000 mm -2,4 C -0,4 C 8,0 km/h (2 Bft) 95,65 %
05.12.2019 14:27 24,2 C -0,4 C 10,6 C 39 % 87 % 75 % 1026,5 hPa 0,0 l/m 4,8 km/h (1 Bft) N-NO 22 0,000 mm -2,3 C -1,9 C 6,4 km/h (2 Bft) 95,65 %
05.12.2019 14:26 24,2 C -0,4 C 10,6 C 39 % 86 % 75 % 1026,5 hPa 0,0 l/m 3,2 km/h (1 Bft) N-NO 22 0,000 mm -2,4 C -0,4 C 6,4 km/h (2 Bft) 100,00 %
05.12.2019 14:25 24,2 C -0,4 C 10,6 C 39 % 86 % 75 % 1026,5 hPa 0,0 l/m 3,2 km/h (1 Bft) O-NO 67 0,000 mm -2,4 C -0,4 C 6,4 km/h (2 Bft) 86,96 %
05.12.2019 14:24 24,2 C -0,4 C 10,6 C 39 % 86 % 76 % 1026,5 hPa 0,0 l/m 3,2 km/h (1 Bft) O 90 0,000 mm -2,4 C -0,4 C 4,8 km/h (1 Bft) 91,30 %
05.12.2019 14:23 24,2 C -0,4 C 10,6 C 39 % 86 % 76 % 1026,5 hPa 0,0 l/m 3,2 km/h (1 Bft) O-SO 112 0,000 mm -2,4 C -0,4 C 4,8 km/h (1 Bft) 95,65 %
05.12.2019 14:22 24,2 C -0,4 C 10,6 C 39 % 86 % 76 % 1026,7 hPa 0,0 l/m 4,8 km/h (1 Bft) O-SO 112 0,000 mm -2,4 C -1,9 C 6,4 km/h (2 Bft) 100,00 %
05.12.2019 14:21 24,2 C -0,4 C 10,6 C 39 % 86 % 76 % 1026,6 hPa 0,0 l/m 3,2 km/h (1 Bft) O-SO 112 0,000 mm -2,4 C -0,4 C 4,8 km/h (1 Bft) 95,65 %
05.12.2019 14:20 24,2 C -0,4 C 10,6 C 39 % 86 % 76 % 1026,5 hPa 0,0 l/m 4,8 km/h (1 Bft) O-SO 112 0,000 mm -2,4 C -1,9 C 6,4 km/h (2 Bft) 95,65 %
05.12.2019 14:19 24,2 C -0,4 C 10,6 C 39 % 86 % 76 % 1026,5 hPa 0,0 l/m 1,6 km/h (1 Bft) SO 135 0,000 mm -2,4 C -0,4 C 3,2 km/h (1 Bft) 100,00 %
05.12.2019 14:18 24,2 C -0,4 C 10,6 C 39 % 86 % 76 % 1026,5 hPa 0,0 l/m 3,2 km/h (1 Bft) SO 135 0,000 mm -2,4 C -0,4 C 6,4 km/h (2 Bft) 91,30 %
05.12.2019 14:17 24,2 C -0,4 C 10,6 C 39 % 86 % 76 % 1026,6 hPa 0,0 l/m 3,2 km/h (1 Bft) N-NO 22 0,000 mm -2,4 C -0,4 C 6,4 km/h (2 Bft) 100,00 %
05.12.2019 14:16 24,2 C -0,4 C 10,6 C 39 % 86 % 77 % 1026,6 hPa 0,0 l/m 4,8 km/h (1 Bft) N-NO 22 0,000 mm -2,4 C -1,9 C 6,4 km/h (2 Bft) 95,65 %
05.12.2019 14:15 24,2 C -0,4 C 10,6 C 39 % 86 % 77 % 1026,5 hPa 0,0 l/m 3,2 km/h (1 Bft) N-NO 22 0,000 mm -2,4 C -0,4 C 4,8 km/h (1 Bft) 100,00 %
05.12.2019 14:14 24,2 C -0,4 C 10,6 C 39 % 86 % 77 % 1026,7 hPa 0,0 l/m 3,2 km/h (1 Bft) O-NO 67 0,000 mm -2,4 C -0,4 C 4,8 km/h (1 Bft) 95,65 %
05.12.2019 14:13 24,2 C -0,4 C 10,6 C 39 % 86 % 77 % 1026,7 hPa 0,0 l/m 3,2 km/h (1 Bft) O 90 0,000 mm -2,4 C -0,4 C 3,2 km/h (1 Bft) 100,00 %
05.12.2019 14:12 24,2 C -0,4 C 10,6 C 39 % 86 % 77 % 1026,5 hPa 0,0 l/m 1,6 km/h (1 Bft) O 90 0,000 mm -2,4 C -0,4 C 3,2 km/h (1 Bft) 95,65 %
05.12.2019 14:11 24,2 C -0,4 C 10,6 C 39 % 87 % 77 % 1026,7 hPa 0,0 l/m 1,6 km/h (1 Bft) NO 45 0,000 mm -2,3 C -0,4 C 4,8 km/h (1 Bft) 95,65 %
05.12.2019 14:10 24,2 C -0,4 C 10,6 C 39 % 86 % 77 % 1026,7 hPa 0,0 l/m 3,2 km/h (1 Bft) N-NO 22 0,000 mm -2,4 C -0,4 C 4,8 km/h (1 Bft) 100,00 %
05.12.2019 14:09 24,2 C -0,4 C 10,6 C 39 % 87 % 77 % 1026,7 hPa 0,0 l/m 3,2 km/h (1 Bft) NO 45 0,000 mm -2,3 C -0,4 C 4,8 km/h (1 Bft) 95,65 %
05.12.2019 14:08 24,2 C -0,4 C 10,6 C 39 % 86 % 77 % 1026,6 hPa 0,0 l/m 1,6 km/h (1 Bft) NO 45 0,000 mm -2,4 C -0,4 C 4,8 km/h (1 Bft) 95,65 %
05.12.2019 14:07 24,2 C -0,5 C 10,6 C 39 % 86 % 77 % 1026,7 hPa 0,0 l/m 1,6 km/h (1 Bft) N-NO 22 0,000 mm -2,5 C -0,5 C 4,8 km/h (1 Bft) 100,00 %
05.12.2019 14:06 24,2 C -0,5 C 10,6 C 39 % 86 % 77 % 1026,5 hPa 0,0 l/m 4,8 km/h (1 Bft) N-NO 22 0,000 mm -2,5 C -2,1 C 6,4 km/h (2 Bft) 100,00 %
05.12.2019 14:05 24,2 C -0,5 C 10,6 C 39 % 86 % 77 % 1026,7 hPa 0,0 l/m 4,8 km/h (1 Bft) N-NO 22 0,000 mm -2,5 C -2,1 C 6,4 km/h (2 Bft) 100,00 %
05.12.2019 14:04 24,2 C -0,5 C 10,6 C 39 % 86 % 77 % 1026,7 hPa 0,0 l/m 1,6 km/h (1 Bft) N-NW 337 0,000 mm -2,5 C -0,5 C 4,8 km/h (1 Bft) 91,30 %
05.12.2019 14:03 24,2 C -0,5 C 10,6 C 39 % 86 % 77 % 1026,7 hPa 0,0 l/m 1,6 km/h (1 Bft) N-NW 337 0,000 mm -2,5 C -0,5 C 3,2 km/h (1 Bft) 100,00 %
05.12.2019 14:02 24,2 C -0,6 C 10,6 C 39 % 86 % 77 % 1026,6 hPa 0,0 l/m 1,6 km/h (1 Bft) O-NO 67 0,000 mm -2,6 C -0,6 C 4,8 km/h (1 Bft) 100,00 %
05.12.2019 14:01 24,3 C -0,5 C 10,6 C 39 % 86 % 76 % 1026,7 hPa 0,0 l/m 0,0 km/h (0 Bft) O-NO 67 0,000 mm -2,5 C -0,5 C 1,6 km/h (1 Bft) 100,00 %
05.12.2019 14:00 24,3 C -0,5 C 10,6 C 39 % 86 % 76 % 1026,7 hPa 0,0 l/m 1,6 km/h (1 Bft) O-NO 67 0,000 mm -2,5 C -0,5 C 3,2 km/h (1 Bft) 100,00 %
05.12.2019 13:59 24,3 C -0,5 C 10,6 C 39 % 86 % 76 % 1026,7 hPa 0,0 l/m 1,6 km/h (1 Bft) O-NO 67 0,000 mm -2,5 C -0,5 C 3,2 km/h (1 Bft) 95,65 %
05.12.2019 13:58 24,3 C -0,5 C 10,6 C 39 % 85 % 76 % 1026,7 hPa 0,0 l/m 3,2 km/h (1 Bft) O-NO 67 0,000 mm -2,7 C -0,5 C 3,2 km/h (1 Bft) 100,00 %
05.12.2019 13:57 24,3 C -0,5 C 10,6 C 39 % 85 % 76 % 1026,8 hPa 0,0 l/m 6,4 km/h (2 Bft) SO 135 0,000 mm -2,7 C -2,8 C 11,3 km/h (2 Bft) 91,30 %
05.12.2019 13:56 24,3 C -0,5 C 10,6 C 39 % 86 % 76 % 1026,7 hPa 0,0 l/m 6,4 km/h (2 Bft) O-NO 67 0,000 mm -2,5 C -2,8 C 9,7 km/h (2 Bft) 100,00 %
05.12.2019 13:55 24,3 C -0,5 C 10,6 C 39 % 86 % 76 % 1026,7 hPa 0,0 l/m 3,2 km/h (1 Bft) S-SO 157 0,000 mm -2,5 C -0,5 C 6,4 km/h (2 Bft) 95,65 %
05.12.2019 13:54 24,3 C -0,5 C 10,6 C 39 % 86 % 76 % 1026,8 hPa 0,0 l/m 3,2 km/h (1 Bft) O 90 0,000 mm -2,5 C -0,5 C 4,8 km/h (1 Bft) 100,00 %
05.12.2019 13:53 24,3 C -0,4 C 10,6 C 39 % 86 % 76 % 1026,8 hPa 0,0 l/m 1,6 km/h (1 Bft) SO 135 0,000 mm -2,4 C -0,4 C 3,2 km/h (1 Bft) 95,65 %
05.12.2019 13:52 24,3 C -0,4 C 10,6 C 39 % 86 % 76 % 1026,8 hPa 0,0 l/m 3,2 km/h (1 Bft) S-SO 157 0,000 mm -2,4 C -0,4 C 6,4 km/h (2 Bft) 100,00 %
05.12.2019 13:51 24,2 C -0,4 C 10,6 C 39 % 86 % 76 % 1026,7 hPa 0,0 l/m 4,8 km/h (1 Bft) SO 135 0,000 mm -2,4 C -1,9 C 11,3 km/h (2 Bft) 95,65 %
05.12.2019 13:50 24,3 C -0,4 C 10,6 C 39 % 85 % 76 % 1026,7 hPa 0,0 l/m 4,8 km/h (1 Bft) O-SO 112 0,000 mm -2,6 C -1,9 C 8,0 km/h (2 Bft) 95,65 %
05.12.2019 13:49 24,3 C -0,4 C 10,6 C 39 % 85 % 75 % 1026,7 hPa 0,0 l/m 6,4 km/h (2 Bft) SO 135 0,000 mm -2,6 C -2,6 C 9,7 km/h (2 Bft) 91,30 %
05.12.2019 13:48 24,2 C -0,4 C 10,6 C 39 % 86 % 75 % 1026,7 hPa 0,0 l/m 6,4 km/h (2 Bft) O-SO 112 0,000 mm -2,4 C -2,6 C 9,7 km/h (2 Bft) 100,00 %
05.12.2019 13:47 24,3 C -0,4 C 10,6 C 39 % 86 % 75 % 1026,7 hPa 0,0 l/m 9,7 km/h (2 Bft) O-SO 112 0,000 mm -2,4 C -3,7 C 12,9 km/h (3 Bft) 95,65 %
05.12.2019 13:46 24,2 C -0,4 C 10,6 C 39 % 86 % 75 % 1026,7 hPa 0,0 l/m 8,0 km/h (2 Bft) O 90 0,000 mm -2,4 C -3,2 C 12,9 km/h (3 Bft) 95,65 %
05.12.2019 13:45 24,2 C -0,4 C 10,6 C 39 % 86 % 75 % 1026,7 hPa 0,0 l/m 4,8 km/h (1 Bft) O-SO 112 0,000 mm -2,4 C -1,9 C 6,4 km/h (2 Bft) 100,00 %
05.12.2019 13:44 24,2 C -0,4 C 10,6 C 39 % 86 % 75 % 1026,6 hPa 0,0 l/m 4,8 km/h (1 Bft) O-SO 112 0,000 mm -2,4 C -1,9 C 8,0 km/h (2 Bft) 95,65 %
05.12.2019 13:43 24,2 C -0,4 C 10,6 C 39 % 86 % 75 % 1026,6 hPa 0,0 l/m 8,0 km/h (2 Bft) O-SO 112 0,000 mm -2,4 C -3,2 C 9,7 km/h (2 Bft) 91,30 %
05.12.2019 13:42 24,3 C -0,4 C 10,6 C 39 % 86 % 75 % 1026,7 hPa 0,0 l/m 6,4 km/h (2 Bft) O-SO 112 0,000 mm -2,4 C -2,6 C 9,7 km/h (2 Bft) 95,65 %
05.12.2019 13:41 24,2 C -0,4 C 10,6 C 39 % 86 % 75 % 1026,5 hPa 0,0 l/m 6,4 km/h (2 Bft) O 90 0,000 mm -2,4 C -2,6 C 9,7 km/h (2 Bft) 100,00 %
05.12.2019 13:40 24,2 C -0,4 C 10,6 C 39 % 85 % 76 % 1026,7 hPa 0,0 l/m 4,8 km/h (1 Bft) O-SO 112 0,000 mm -2,6 C -1,9 C 6,4 km/h (2 Bft) 95,65 %
05.12.2019 13:39 24,2 C -0,4 C 10,6 C 39 % 85 % 76 % 1026,7 hPa 0,0 l/m 3,2 km/h (1 Bft) O-SO 112 0,000 mm -2,6 C -0,4 C 4,8 km/h (1 Bft) 100,00 %
05.12.2019 13:38 24,2 C -0,4 C 10,6 C 39 % 86 % 76 % 1026,6 hPa 0,0 l/m 4,8 km/h (1 Bft) O 90 0,000 mm -2,4 C -1,9 C 9,7 km/h (2 Bft) 95,65 %
05.12.2019 13:37 24,2 C -0,4 C 10,6 C 39 % 85 % 76 % 1026,7 hPa 0,0 l/m 6,4 km/h (2 Bft) O-SO 112 0,000 mm -2,6 C -2,6 C 9,7 km/h (2 Bft) 95,65 %
05.12.2019 13:36 24,2 C -0,4 C 10,6 C 39 % 85 % 76 % 1026,6 hPa 0,0 l/m 9,7 km/h (2 Bft) O-SO 112 0,000 mm -2,6 C -3,7 C 14,5 km/h (3 Bft) 91,30 %
05.12.2019 13:35 24,2 C -0,4 C 10,6 C 39 % 85 % 76 % 1026,8 hPa 0,0 l/m 4,8 km/h (1 Bft) SO 135 0,000 mm -2,6 C -1,9 C 6,4 km/h (2 Bft) 100,00 %
05.12.2019 13:34 24,2 C -0,3 C 10,6 C 39 % 85 % 76 % 1026,8 hPa 0,0 l/m 6,4 km/h (2 Bft) SO 135 0,000 mm -2,5 C -2,5 C 8,0 km/h (2 Bft) 95,65 %
05.12.2019 13:33 24,2 C -0,3 C 10,6 C 39 % 85 % 76 % 1026,7 hPa 0,0 l/m 4,8 km/h (1 Bft) SO 135 0,000 mm -2,5 C -1,8 C 8,0 km/h (2 Bft) 100,00 %
05.12.2019 13:32 24,2 C -0,3 C 10,6 C 39 % 85 % 76 % 1026,7 hPa 0,0 l/m 3,2 km/h (1 Bft) O-SO 112 0,000 mm -2,5 C -0,3 C 6,4 km/h (2 Bft) 95,65 %
05.12.2019 13:31 24,2 C -0,3 C 10,6 C 39 % 86 % 76 % 1026,8 hPa 0,0 l/m 6,4 km/h (2 Bft) O 90 0,000 mm -2,3 C -2,5 C 11,3 km/h (2 Bft) 100,00 %
05.12.2019 13:30 24,2 C -0,3 C 10,6 C 39 % 85 % 77 % 1026,8 hPa 0,0 l/m 6,4 km/h (2 Bft) O 90 0,000 mm -2,5 C -2,5 C 11,3 km/h (2 Bft) 95,65 %
05.12.2019 13:29 24,2 C -0,3 C 10,6 C 39 % 85 % 77 % 1026,8 hPa 0,0 l/m 4,8 km/h (1 Bft) O 90 0,000 mm -2,5 C -1,8 C 6,4 km/h (2 Bft) 91,30 %
05.12.2019 13:28 24,2 C -0,3 C 10,6 C 39 % 86 % 77 % 1026,7 hPa 0,0 l/m 6,4 km/h (2 Bft) O-SO 112 0,000 mm -2,3 C -2,5 C 11,3 km/h (2 Bft) 100,00 %
05.12.2019 13:27 24,2 C -0,3 C 10,6 C 39 % 86 % 77 % 1026,8 hPa 0,0 l/m 4,8 km/h (1 Bft) SO 135 0,000 mm -2,3 C -1,8 C 6,4 km/h (2 Bft) 95,65 %
05.12.2019 13:26 24,2 C -0,3 C 10,6 C 39 % 86 % 77 % 1026,7 hPa 0,0 l/m 6,4 km/h (2 Bft) O-SO 112 0,000 mm -2,3 C -2,5 C 6,4 km/h (2 Bft) 91,30 %
05.12.2019 13:25 24,1 C -0,3 C 10,6 C 39 % 86 % 77 % 1026,8 hPa 0,0 l/m 3,2 km/h (1 Bft) O 90 0,000 mm -2,3 C -0,3 C 4,8 km/h (1 Bft) 100,00 %
05.12.2019 13:24 24,1 C -0,3 C 10,6 C 39 % 86 % 77 % 1026,8 hPa 0,0 l/m 1,6 km/h (1 Bft) O-SO 112 0,000 mm -2,3 C -0,3 C 6,4 km/h (2 Bft) 100,00 %
05.12.2019 13:23 24,1 C -0,3 C 10,6 C 39 % 86 % 77 % 1026,8 hPa 0,0 l/m 3,2 km/h (1 Bft) O-SO 112 0,000 mm -2,3 C -0,3 C 4,8 km/h (1 Bft) 100,00 %
05.12.2019 13:22 24,1 C -0,3 C 10,6 C 39 % 85 % 77 % 1026,8 hPa 0,0 l/m 3,2 km/h (1 Bft) O-SO 112 0,000 mm -2,5 C -0,3 C 4,8 km/h (1 Bft) 91,30 %
05.12.2019 13:21 24,1 C -0,3 C 10,6 C 39 % 85 % 77 % 1026,8 hPa 0,0 l/m 3,2 km/h (1 Bft) O-SO 112 0,000 mm -2,5 C -0,3 C 4,8 km/h (1 Bft) 100,00 %
05.12.2019 13:20 24,1 C -0,3 C 10,6 C 39 % 85 % 77 % 1026,8 hPa 0,0 l/m 1,6 km/h (1 Bft) O-SO 112 0,000 mm -2,5 C -0,3 C 4,8 km/h (1 Bft) 100,00 %
05.12.2019 13:19 24,1 C -0,3 C 10,6 C 39 % 85 % 77 % 1026,9 hPa 0,0 l/m 1,6 km/h (1 Bft) O-SO 112 0,000 mm -2,5 C -0,3 C 4,8 km/h (1 Bft) 100,00 %
05.12.2019 13:18 24,1 C -0,3 C 10,6 C 39 % 85 % 77 % 1026,9 hPa 0,0 l/m 3,2 km/h (1 Bft) O-SO 112 0,000 mm -2,5 C -0,3 C 6,4 km/h (2 Bft) 100,00 %
05.12.2019 13:17 24,1 C -0,3 C 10,6 C 39 % 86 % 77 % 1026,8 hPa 0,0 l/m 4,8 km/h (1 Bft) O-SO 112 0,000 mm -2,3 C -1,8 C 6,4 km/h (2 Bft) 100,00 %
05.12.2019 13:16 24,1 C -0,3 C 10,6 C 39 % 86 % 77 % 1026,8 hPa 0,0 l/m 4,8 km/h (1 Bft) S-SO 157 0,000 mm -2,3 C -1,8 C 6,4 km/h (2 Bft) 95,65 %
05.12.2019 13:15 24,1 C -0,3 C 10,6 C 39 % 86 % 77 % 1026,8 hPa 0,0 l/m 3,2 km/h (1 Bft) S 180 0,000 mm -2,3 C -0,3 C 6,4 km/h (2 Bft) 91,30 %
05.12.2019 13:14 24,1 C -0,3 C 10,6 C 39 % 85 % 77 % 1026,9 hPa 0,0 l/m 4,8 km/h (1 Bft) O 90 0,000 mm -2,5 C -1,8 C 6,4 km/h (2 Bft) 100,00 %
05.12.2019 13:13 24,1 C -0,3 C 10,6 C 39 % 86 % 76 % 1026,8 hPa 0,0 l/m 3,2 km/h (1 Bft) O-SO 112 0,000 mm -2,3 C -0,3 C 4,8 km/h (1 Bft) 95,65 %
05.12.2019 13:12 24,1 C -0,3 C 10,6 C 39 % 86 % 76 % 1026,8 hPa 0,0 l/m 1,6 km/h (1 Bft) O-SO 112 0,000 mm -2,3 C -0,3 C 3,2 km/h (1 Bft) 100,00 %
05.12.2019 13:11 24,1 C -0,3 C 10,6 C 39 % 86 % 76 % 1026,9 hPa 0,0 l/m 3,2 km/h (1 Bft) NO 45 0,000 mm -2,3 C -0,3 C 6,4 km/h (2 Bft) 100,00 %
05.12.2019 13:10 24,0 C -0,3 C 10,6 C 39 % 86 % 76 % 1026,9 hPa 0,0 l/m 1,6 km/h (1 Bft) NO 45 0,000 mm -2,3 C -0,3 C 3,2 km/h (1 Bft) 100,00 %
05.12.2019 13:09 24,1 C -0,3 C 10,6 C 39 % 86 % 76 % 1026,9 hPa 0,0 l/m 1,6 km/h (1 Bft) NO 45 0,000 mm -2,3 C -0,3 C 4,8 km/h (1 Bft) 100,00 %
05.12.2019 13:08 24,1 C -0,3 C 10,6 C 39 % 86 % 76 % 1027,0 hPa 0,0 l/m 1,6 km/h (1 Bft) O 90 0,000 mm -2,3 C -0,3 C 3,2 km/h (1 Bft) 91,30 %
05.12.2019 13:07 24,1 C -0,3 C 10,6 C 39 % 86 % 76 % 1026,9 hPa 0,0 l/m 1,6 km/h (1 Bft) O 90 0,000 mm -2,3 C -0,3 C 1,6 km/h (1 Bft) 95,65 %
05.12.2019 13:06 24,1 C -0,3 C 10,6 C 39 % 85 % 76 % 1026,9 hPa 0,0 l/m 3,2 km/h (1 Bft) O 90 0,000 mm -2,5 C -0,3 C 4,8 km/h (1 Bft) 100,00 %
05.12.2019 13:05 24,1 C -0,4 C 10,6 C 39 % 85 % 76 % 1026,9 hPa 0,0 l/m 3,2 km/h (1 Bft) O 90 0,000 mm -2,6 C -0,4 C 6,4 km/h (2 Bft) 100,00 %
05.12.2019 13:04 24,1 C -0,4 C 10,6 C 39 % 85 % 76 % 1026,8 hPa 0,0 l/m 4,8 km/h (1 Bft) S-SO 157 0,000 mm -2,6 C -1,9 C 8,0 km/h (2 Bft) 100,00 %
05.12.2019 13:03 24,1 C -0,3 C 10,6 C 39 % 86 % 76 % 1026,9 hPa 0,0 l/m 6,4 km/h (2 Bft) O 90 0,000 mm -2,3 C -2,5 C 9,7 km/h (2 Bft) 100,00 %
05.12.2019 13:02 24,1 C -0,3 C 10,6 C 39 % 86 % 76 % 1026,9 hPa 0,0 l/m 3,2 km/h (1 Bft) O 90 0,000 mm -2,3 C -0,3 C 4,8 km/h (1 Bft) 95,65 %
05.12.2019 13:01 24,1 C -0,3 C 10,6 C 39 % 86 % 75 % 1026,9 hPa 0,0 l/m 4,8 km/h (1 Bft) O 90 0,000 mm -2,3 C -1,8 C 6,4 km/h (2 Bft) 95,65 %
05.12.2019 13:00 24,1 C -0,4 C 10,6 C 39 % 85 % 76 % 1026,9 hPa 0,0 l/m 1,6 km/h (1 Bft) NO 45 0,000 mm -2,6 C -0,4 C 3,2 km/h (1 Bft) 100,00 %
05.12.2019 12:59 24,1 C -0,3 C 10,6 C 39 % 86 % 76 % 1026,9 hPa 0,0 l/m 3,2 km/h (1 Bft) O-NO 67 0,000 mm -2,3 C -0,3 C 4,8 km/h (1 Bft) 100,00 %
05.12.2019 12:58 24,1 C -0,3 C 10,6 C 39 % 85 % 76 % 1026,9 hPa 0,0 l/m 6,4 km/h (2 Bft) O 90 0,000 mm -2,5 C -2,5 C 9,7 km/h (2 Bft) 100,00 %
05.12.2019 12:57 24,1 C -0,3 C 10,6 C 39 % 85 % 76 % 1026,9 hPa 0,0 l/m 4,8 km/h (1 Bft) O-NO 67 0,000 mm -2,5 C -1,8 C 6,4 km/h (2 Bft) 95,65 %
05.12.2019 12:56 24,1 C -0,3 C 10,6 C 39 % 86 % 76 % 1026,8 hPa 0,0 l/m 4,8 km/h (1 Bft) O 90 0,000 mm -2,3 C -1,8 C 9,7 km/h (2 Bft) 95,65 %
05.12.2019 12:55 24,1 C -0,3 C 10,6 C 39 % 86 % 76 % 1026,8 hPa 0,0 l/m 3,2 km/h (1 Bft) N-NO 22 0,000 mm -2,3 C -0,3 C 4,8 km/h (1 Bft) 95,65 %
05.12.2019 12:54 24,1 C -0,3 C 10,6 C 39 % 85 % 76 % 1026,9 hPa 0,0 l/m 3,2 km/h (1 Bft) NO 45 0,000 mm -2,5 C -0,3 C 4,8 km/h (1 Bft) 95,65 %
05.12.2019 12:53 24,1 C -0,3 C 10,6 C 39 % 85 % 76 % 1026,9 hPa 0,0 l/m 3,2 km/h (1 Bft) NO 45 0,000 mm -2,5 C -0,3 C 6,4 km/h (2 Bft) 100,00 %
05.12.2019 12:52 24,1 C -0,3 C 10,6 C 39 % 86 % 76 % 1026,9 hPa 0,0 l/m 3,2 km/h (1 Bft) O-SO 112 0,000 mm -2,3 C -0,3 C 9,7 km/h (2 Bft) 95,65 %
05.12.2019 12:51 24,1 C -0,3 C 10,6 C 39 % 86 % 76 % 1026,9 hPa 0,0 l/m 3,2 km/h (1 Bft) O-NO 67 0,000 mm -2,3 C -0,3 C 6,4 km/h (2 Bft) 100,00 %
05.12.2019 12:50 24,1 C -0,3 C 10,6 C 39 % 86 % 76 % 1026,9 hPa 0,0 l/m 3,2 km/h (1 Bft) O-SO 112 0,000 mm -2,3 C -0,3 C 4,8 km/h (1 Bft) 91,30 %
05.12.2019 12:49 24,1 C -0,3 C 10,6 C 39 % 86 % 76 % 1026,9 hPa 0,0 l/m 3,2 km/h (1 Bft) O-SO 112 0,000 mm -2,3 C -0,3 C 11,3 km/h (2 Bft) 95,65 %
05.12.2019 12:48 24,1 C -0,3 C 10,6 C 39 % 86 % 76 % 1027,0 hPa 0,0 l/m 4,8 km/h (1 Bft) O 90 0,000 mm -2,3 C -1,8 C 6,4 km/h (2 Bft) 95,65 %
05.12.2019 12:47 24,1 C -0,3 C 10,6 C 39 % 86 % 76 % 1027,0 hPa 0,0 l/m 3,2 km/h (1 Bft) O 90 0,000 mm -2,3 C -0,3 C 4,8 km/h (1 Bft) 95,65 %
05.12.2019 12:46 24,1 C -0,3 C 10,6 C 39 % 86 % 76 % 1026,9 hPa 0,0 l/m 1,6 km/h (1 Bft) O 90 0,000 mm -2,3 C -0,3 C 3,2 km/h (1 Bft) 95,65 %
05.12.2019 12:45 24,1 C -0,3 C 10,6 C 39 % 86 % 76 % 1027,0 hPa 0,0 l/m 3,2 km/h (1 Bft) O 90 0,000 mm -2,3 C -0,3 C 6,4 km/h (2 Bft) 100,00 %
05.12.2019 12:44 24,1 C -0,3 C 10,6 C 39 % 86 % 77 % 1026,9 hPa 0,0 l/m 3,2 km/h (1 Bft) O-NO 67 0,000 mm -2,3 C -0,3 C 4,8 km/h (1 Bft) 95,65 %
05.12.2019 12:43 24,1 C -0,3 C 10,6 C 39 % 87 % 77 % 1027,0 hPa 0,0 l/m 4,8 km/h (1 Bft) O-NO 67 0,000 mm -2,2 C -1,8 C 9,7 km/h (2 Bft) 91,30 %
05.12.2019 12:42 24,1 C -0,3 C 10,6 C 39 % 86 % 77 % 1027,0 hPa 0,0 l/m 6,4 km/h (2 Bft) NO 45 0,000 mm -2,3 C -2,5 C 12,9 km/h (3 Bft) 95,65 %
05.12.2019 12:41 24,1 C -0,3 C 10,6 C 39 % 86 % 77 % 1027,1 hPa 0,0 l/m 4,8 km/h (1 Bft) N-NO 22 0,000 mm -2,3 C -1,8 C 6,4 km/h (2 Bft) 95,65 %
05.12.2019 12:40 24,1 C -0,3 C 10,6 C 39 % 86 % 77 % 1027,0 hPa 0,0 l/m 1,6 km/h (1 Bft) O-NO 67 0,000 mm -2,3 C -0,3 C 1,6 km/h (1 Bft) 95,65 %
05.12.2019 12:39 24,1 C -0,3 C 10,6 C 39 % 86 % 77 % 1027,1 hPa 0,0 l/m 1,6 km/h (1 Bft) O 90 0,000 mm -2,3 C -0,3 C 4,8 km/h (1 Bft) 95,65 %
05.12.2019 12:38 24,1 C -0,3 C 10,6 C 39 % 86 % 77 % 1027,2 hPa 0,0 l/m 1,6 km/h (1 Bft) O 90 0,000 mm -2,3 C -0,3 C 3,2 km/h (1 Bft) 100,00 %
05.12.2019 12:37 24,1 C -0,4 C 10,6 C 39 % 86 % 77 % 1027,1 hPa 0,0 l/m 1,6 km/h (1 Bft) O 90 0,000 mm -2,4 C -0,4 C 3,2 km/h (1 Bft) 95,65 %
05.12.2019 12:36 24,1 C -0,4 C 10,6 C 39 % 86 % 77 % 1027,3 hPa 0,0 l/m 1,6 km/h (1 Bft) O 90 0,000 mm -2,4 C -0,4 C 3,2 km/h (1 Bft) 100,00 %
05.12.2019 12:35 24,1 C -0,4 C 10,6 C 39 % 86 % 77 % 1027,2 hPa 0,0 l/m 1,6 km/h (1 Bft) N 360 0,000 mm -2,4 C -0,4 C 3,2 km/h (1 Bft) 95,65 %
05.12.2019 12:34 24,1 C -0,4 C 10,6 C 39 % 86 % 77 % 1027,2 hPa 0,0 l/m 3,2 km/h (1 Bft) O 90 0,000 mm -2,4 C -0,4 C 3,2 km/h (1 Bft) 95,65 %
05.12.2019 12:33 24,1 C -0,4 C 10,6 C 39 % 86 % 77 % 1027,2 hPa 0,0 l/m 3,2 km/h (1 Bft) O 90 0,000 mm -2,4 C -0,4 C 4,8 km/h (1 Bft) 95,65 %
05.12.2019 12:32 24,1 C -0,4 C 10,6 C 39 % 86 % 77 % 1027,3 hPa 0,0 l/m 3,2 km/h (1 Bft) O-NO 67 0,000 mm -2,4 C -0,4 C 8,0 km/h (2 Bft) 95,65 %
05.12.2019 12:31 24,1 C -0,4 C 10,6 C 39 % 86 % 77 % 1027,3 hPa 0,0 l/m 1,6 km/h (1 Bft) O-NO 67 0,000 mm -2,4 C -0,4 C 3,2 km/h (1 Bft) 100,00 %
05.12.2019 12:30 24,1 C -0,4 C 10,6 C 39 % 86 % 76 % 1027,3 hPa 0,0 l/m 3,2 km/h (1 Bft) O 90 0,000 mm -2,4 C -0,4 C 6,4 km/h (2 Bft) 95,65 %
05.12.2019 12:29 24,1 C -0,4 C 10,6 C 39 % 86 % 76 % 1027,2 hPa 0,0 l/m 1,6 km/h (1 Bft) N-NO 22 0,000 mm -2,4 C -0,4 C 3,2 km/h (1 Bft) 100,00 %
05.12.2019 12:28 24,1 C -0,4 C 10,6 C 39 % 86 % 76 % 1027,2 hPa 0,0 l/m 4,8 km/h (1 Bft) N-NO 22 0,000 mm -2,4 C -1,9 C 6,4 km/h (2 Bft) 95,65 %
05.12.2019 12:27 24,1 C -0,4 C 10,6 C 39 % 86 % 76 % 1027,2 hPa 0,0 l/m 1,6 km/h (1 Bft) N-NO 22 0,000 mm -2,4 C -0,4 C 3,2 km/h (1 Bft) 95,65 %
05.12.2019 12:26 24,1 C -0,4 C 10,6 C 39 % 86 % 76 % 1027,3 hPa 0,0 l/m 3,2 km/h (1 Bft) N-NO 22 0,000 mm -2,4 C -0,4 C 4,8 km/h (1 Bft) 91,30 %
05.12.2019 12:25 24,0 C -0,4 C 10,6 C 39 % 86 % 76 % 1027,3 hPa 0,0 l/m 3,2 km/h (1 Bft) N-NO 22 0,000 mm -2,4 C -0,4 C 6,4 km/h (2 Bft) 95,65 %
05.12.2019 12:24 24,1 C -0,4 C 10,6 C 39 % 86 % 76 % 1027,3 hPa 0,0 l/m 0,0 km/h (0 Bft) O-SO 112 0,000 mm -2,4 C -0,4 C 3,2 km/h (1 Bft) 95,65 %
05.12.2019 12:23 24,0 C -0,4 C 10,6 C 39 % 86 % 76 % 1027,3 hPa 0,0 l/m 0,0 km/h (0 Bft) N 0 0,000 mm -2,4 C -0,4 C 0,0 km/h (0 Bft) 95,65 %
05.12.2019 12:22 24,1 C -0,4 C 10,6 C 39 % 86 % 76 % 1027,3 hPa 0,0 l/m 0,0 km/h (0 Bft) N 0 0,000 mm -2,4 C -0,4 C 0,0 km/h (0 Bft) 95,65 %
05.12.2019 12:21 24,0 C -0,4 C 10,6 C 39 % 86 % 76 % 1027,2 hPa 0,0 l/m 0,0 km/h (0 Bft) N 0 0,000 mm -2,4 C -0,4 C 0,0 km/h (0 Bft) 82,61 %
05.12.2019 12:20 24,0 C -0,4 C 10,6 C 39 % 86 % 76 % 1027,2 hPa 0,0 l/m 0,0 km/h (0 Bft) S-SO 157 0,000 mm -2,4 C -0,4 C 1,6 km/h (1 Bft) 100,00 %
05.12.2019 12:19 24,0 C -0,4 C 10,6 C 39 % 86 % 76 % 1027,2 hPa 0,0 l/m 1,6 km/h (1 Bft) S-SO 157 0,000 mm -2,4 C -0,4 C 1,6 km/h (1 Bft) 86,96 %
05.12.2019 12:18 24,0 C -0,4 C 10,6 C 39 % 85 % 75 % 1027,4 hPa 0,0 l/m 1,6 km/h (1 Bft) S-SO 157 0,000 mm -2,6 C -0,4 C 1,6 km/h (1 Bft) 95,65 %
05.12.2019 12:17 24,0 C -0,5 C 10,6 C 39 % 85 % 75 % 1027,3 hPa 0,0 l/m 0,0 km/h (0 Bft) S-SO 157 0,000 mm -2,7 C -0,5 C 1,6 km/h (1 Bft) 91,30 %
05.12.2019 12:16 24,0 C -0,4 C 10,6 C 39 % 85 % 75 % 1027,3 hPa 0,0 l/m 1,6 km/h (1 Bft) S-SO 157 0,000 mm -2,6 C -0,4 C 3,2 km/h (1 Bft) 100,00 %
05.12.2019 12:15 24,0 C -0,4 C 10,6 C 39 % 86 % 75 % 1027,3 hPa 0,0 l/m 1,6 km/h (1 Bft) SO 135 0,000 mm -2,4 C -0,4 C 6,4 km/h (2 Bft) 95,65 %
05.12.2019 12:14 24,0 C -0,4 C 10,6 C 39 % 86 % 75 % 1027,3 hPa 0,0 l/m 3,2 km/h (1 Bft) SO 135 0,000 mm -2,4 C -0,4 C 3,2 km/h (1 Bft) 100,00 %
05.12.2019 12:13 24,0 C -0,4 C 10,6 C 39 % 86 % 75 % 1027,2 hPa 0,0 l/m 4,8 km/h (1 Bft) SO 135 0,000 mm -2,4 C -1,9 C 6,4 km/h (2 Bft) 95,65 %
05.12.2019 12:12 24,0 C -0,4 C 10,6 C 39 % 85 % 76 % 1027,2 hPa 0,0 l/m 4,8 km/h (1 Bft) O-SO 112 0,000 mm -2,6 C -1,9 C 6,4 km/h (2 Bft) 91,30 %
05.12.2019 12:11 24,0 C -0,4 C 10,6 C 39 % 85 % 76 % 1027,2 hPa 0,0 l/m 4,8 km/h (1 Bft) O-SO 112 0,000 mm -2,6 C -1,9 C 6,4 km/h (2 Bft) 95,65 %
05.12.2019 12:10 24,0 C -0,4 C 10,6 C 39 % 86 % 76 % 1027,3 hPa 0,0 l/m 1,6 km/h (1 Bft) O-SO 112 0,000 mm -2,4 C -0,4 C 3,2 km/h (1 Bft) 95,65 %
05.12.2019 12:09 24,0 C -0,4 C 10,6 C 39 % 86 % 76 % 1027,2 hPa 0,0 l/m 1,6 km/h (1 Bft) O-NO 67 0,000 mm -2,4 C -0,4 C 3,2 km/h (1 Bft) 95,65 %
05.12.2019 12:08 24,0 C -0,4 C 10,6 C 39 % 86 % 76 % 1027,2 hPa 0,0 l/m 1,6 km/h (1 Bft) N-NO 22 0,000 mm -2,4 C -0,4 C 3,2 km/h (1 Bft) 95,65 %
05.12.2019 12:07 23,9 C -0,4 C 10,6 C 39 % 86 % 76 % 1027,2 hPa 0,0 l/m 3,2 km/h (1 Bft) N-NO 22 0,000 mm -2,4 C -0,4 C 8,0 km/h (2 Bft) 95,65 %
05.12.2019 12:06 24,0 C -0,4 C 10,6 C 39 % 86 % 76 % 1027,2 hPa 0,0 l/m 3,2 km/h (1 Bft) NO 45 0,000 mm -2,4 C -0,4 C 4,8 km/h (1 Bft) 91,30 %
05.12.2019 12:05 24,0 C -0,4 C 10,6 C 39 % 86 % 76 % 1027,2 hPa 0,0 l/m 1,6 km/h (1 Bft) NO 45 0,000 mm -2,4 C -0,4 C 3,2 km/h (1 Bft) 95,65 %
05.12.2019 12:04 24,0 C -0,4 C 10,6 C 39 % 86 % 76 % 1027,3 hPa 0,0 l/m 4,8 km/h (1 Bft) NO 45 0,000 mm -2,4 C -1,9 C 8,0 km/h (2 Bft) 95,65 %
05.12.2019 12:03 24,0 C -0,4 C 10,6 C 39 % 86 % 76 % 1027,2 hPa 0,0 l/m 6,4 km/h (2 Bft) N-NO 22 0,000 mm -2,4 C -2,6 C 11,3 km/h (2 Bft) 100,00 %
05.12.2019 12:02 24,0 C -0,4 C 10,6 C 39 % 86 % 76 % 1027,3 hPa 0,0 l/m 6,4 km/h (2 Bft) N-NO 22 0,000 mm -2,4 C -2,6 C 12,9 km/h (3 Bft) 95,65 %
05.12.2019 12:01 24,0 C -0,4 C 10,6 C 39 % 86 % 76 % 1027,3 hPa 0,0 l/m 3,2 km/h (1 Bft) N 360 0,000 mm -2,4 C -0,4 C 4,8 km/h (1 Bft) 100,00 %
05.12.2019 12:00 24,0 C -0,4 C 10,6 C 39 % 86 % 76 % 1027,3 hPa 0,0 l/m 3,2 km/h (1 Bft) NO 45 0,000 mm -2,4 C -0,4 C 4,8 km/h (1 Bft) 95,65 %
05.12.2019 11:59 24,0 C -0,4 C 10,6 C 39 % 86 % 77 % 1027,3 hPa 0,0 l/m 4,8 km/h (1 Bft) NO 45 0,000 mm -2,4 C -1,9 C 4,8 km/h (1 Bft) 100,00 %
05.12.2019 11:58 24,0 C -0,4 C 10,6 C 39 % 86 % 77 % 1027,3 hPa 0,0 l/m 3,2 km/h (1 Bft) O 90 0,000 mm -2,4 C -0,4 C 4,8 km/h (1 Bft) 86,96 %
05.12.2019 11:57 24,0 C -0,4 C 10,6 C 39 % 86 % 77 % 1027,2 hPa 0,0 l/m 3,2 km/h (1 Bft) O-NO 67 0,000 mm -2,4 C -0,4 C 4,8 km/h (1 Bft) 100,00 %
05.12.2019 11:56 24,0 C -0,4 C 10,6 C 39 % 86 % 77 % 1027,2 hPa 0,0 l/m 3,2 km/h (1 Bft) N-NO 22 0,000 mm -2,4 C -0,4 C 4,8 km/h (1 Bft) 95,65 %
05.12.2019 11:55 24,0 C -0,4 C 10,6 C 39 % 85 % 77 % 1027,3 hPa 0,0 l/m 4,8 km/h (1 Bft) N-NO 22 0,000 mm -2,6 C -1,9 C 6,4 km/h (2 Bft) 95,65 %
05.12.2019 11:54 24,0 C -0,4 C 10,6 C 39 % 86 % 77 % 1027,3 hPa 0,0 l/m 3,2 km/h (1 Bft) O 90 0,000 mm -2,4 C -0,4 C 6,4 km/h (2 Bft) 100,00 %
05.12.2019 11:53 24,0 C -0,4 C 10,6 C 39 % 86 % 77 % 1027,3 hPa 0,0 l/m 3,2 km/h (1 Bft) O 90 0,000 mm -2,4 C -0,4 C 4,8 km/h (1 Bft) 95,65 %
05.12.2019 11:52 24,0 C -0,4 C 10,6 C 39 % 85 % 77 % 1027,3 hPa 0,0 l/m 1,6 km/h (1 Bft) O-SO 112 0,000 mm -2,6 C -0,4 C 3,2 km/h (1 Bft) 100,00 %
05.12.2019 11:51 24,0 C -0,4 C 10,6 C 39 % 85 % 77 % 1027,3 hPa 0,0 l/m 4,8 km/h (1 Bft) O-SO 112 0,000 mm -2,6 C -1,9 C 9,7 km/h (2 Bft) 95,65 %
05.12.2019 11:50 23,9 C -0,4 C 10,6 C 39 % 86 % 76 % 1027,4 hPa 0,0 l/m 3,2 km/h (1 Bft) O 90 0,000 mm -2,4 C -0,4 C 6,4 km/h (2 Bft) 100,00 %
05.12.2019 11:49 24,0 C -0,3 C 10,6 C 39 % 86 % 76 % 1027,4 hPa 0,0 l/m 3,2 km/h (1 Bft) O 90 0,000 mm -2,3 C -0,3 C 4,8 km/h (1 Bft) 95,65 %
05.12.2019 11:48 24,0 C -0,3 C 10,6 C 39 % 86 % 76 % 1027,4 hPa 0,0 l/m 1,6 km/h (1 Bft) O-NO 67 0,000 mm -2,3 C -0,3 C 3,2 km/h (1 Bft) 100,00 %
05.12.2019 11:47 24,0 C -0,3 C 10,6 C 39 % 87 % 76 % 1027,4 hPa 0,0 l/m 3,2 km/h (1 Bft) O-NO 67 0,000 mm -2,2 C -0,3 C 4,8 km/h (1 Bft) 95,65 %
05.12.2019 11:46 24,0 C -0,4 C 10,6 C 39 % 86 % 76 % 1027,4 hPa 0,0 l/m 1,6 km/h (1 Bft) O 90 0,000 mm -2,4 C -0,4 C 4,8 km/h (1 Bft) 100,00 %
05.12.2019 11:45 24,0 C -0,4 C 10,6 C 39 % 86 % 76 % 1027,4 hPa 0,0 l/m 3,2 km/h (1 Bft) O 90 0,000 mm -2,4 C -0,4 C 6,4 km/h (2 Bft) 95,65 %
05.12.2019 11:44 24,0 C -0,4 C 10,6 C 39 % 86 % 76 % 1027,4 hPa 0,0 l/m 3,2 km/h (1 Bft) N-NO 22 0,000 mm -2,4 C -0,4 C 4,8 km/h (1 Bft) 95,65 %
05.12.2019 11:43 24,0 C -0,4 C 10,6 C 39 % 86 % 76 % 1027,4 hPa 0,0 l/m 4,8 km/h (1 Bft) NO 45 0,000 mm -2,4 C -1,9 C 6,4 km/h (2 Bft) 100,00 %
05.12.2019 11:42 24,0 C -0,4 C 10,6 C 39 % 86 % 76 % 1027,4 hPa 0,0 l/m 3,2 km/h (1 Bft) O-NO 67 0,000 mm -2,4 C -0,4 C 6,4 km/h (2 Bft) 100,00 %
05.12.2019 11:41 24,1 C -0,4 C 10,6 C 39 % 86 % 76 % 1027,5 hPa 0,0 l/m 3,2 km/h (1 Bft) N-NO 22 0,000 mm -2,4 C -0,4 C 4,8 km/h (1 Bft) 100,00 %
05.12.2019 11:40 24,1 C -0,4 C 10,6 C 39 % 86 % 76 % 1027,4 hPa 0,0 l/m 1,6 km/h (1 Bft) N-NO 22 0,000 mm -2,4 C -0,4 C 3,2 km/h (1 Bft) 100,00 %
05.12.2019 11:39 24,1 C -0,4 C 10,6 C 39 % 86 % 76 % 1027,4 hPa 0,0 l/m 1,6 km/h (1 Bft) N-NO 22 0,000 mm -2,4 C -0,4 C 4,8 km/h (1 Bft) 100,00 %
05.12.2019 11:38 24,1 C -0,4 C 10,6 C 39 % 86 % 75 % 1027,4 hPa 0,0 l/m 4,8 km/h (1 Bft) N-NO 22 0,000 mm -2,4 C -1,9 C 8,0 km/h (2 Bft) 95,65 %
05.12.2019 11:37 24,1 C -0,5 C 10,6 C 39 % 86 % 75 % 1027,4 hPa 0,0 l/m 4,8 km/h (1 Bft) N-NO 22 0,000 mm -2,5 C -2,1 C 4,8 km/h (1 Bft) 95,65 %
05.12.2019 11:36 24,1 C -0,5 C 10,6 C 39 % 87 % 75 % 1027,6 hPa 0,0 l/m 3,2 km/h (1 Bft) N-NO 22 0,000 mm -2,4 C -0,5 C 4,8 km/h (1 Bft) 95,65 %
05.12.2019 11:35 24,1 C -0,6 C 10,6 C 39 % 87 % 75 % 1027,4 hPa 0,0 l/m 1,6 km/h (1 Bft) N-NO 22 0,000 mm -2,5 C -0,6 C 4,8 km/h (1 Bft) 100,00 %
05.12.2019 11:34 24,1 C -0,5 C 10,6 C 39 % 87 % 75 % 1027,6 hPa 0,0 l/m 1,6 km/h (1 Bft) NO 45 0,000 mm -2,4 C -0,5 C 3,2 km/h (1 Bft) 100,00 %
05.12.2019 11:33 24,1 C -0,6 C 10,6 C 39 % 87 % 75 % 1027,5 hPa 0,0 l/m 1,6 km/h (1 Bft) NO 45 0,000 mm -2,5 C -0,6 C 4,8 km/h (1 Bft) 95,65 %
05.12.2019 11:32 24,1 C -0,6 C 10,6 C 38 % 87 % 75 % 1027,5 hPa 0,0 l/m 1,6 km/h (1 Bft) NO 45 0,000 mm -2,5 C -0,6 C 3,2 km/h (1 Bft) 100,00 %
05.12.2019 11:31 24,1 C -0,6 C 10,6 C 39 % 87 % 75 % 1027,5 hPa 0,0 l/m 3,2 km/h (1 Bft) NO 45 0,000 mm -2,5 C -0,6 C 6,4 km/h (2 Bft) 100,00 %
05.12.2019 11:30 24,1 C -0,6 C 10,6 C 39 % 87 % 75 % 1027,6 hPa 0,0 l/m 3,2 km/h (1 Bft) N-NO 22 0,000 mm -2,5 C -0,6 C 6,4 km/h (2 Bft) 91,30 %
05.12.2019 11:29 24,1 C -0,6 C 10,6 C 39 % 86 % 75 % 1027,5 hPa 0,0 l/m 1,6 km/h (1 Bft) NO 45 0,000 mm -2,6 C -0,6 C 3,2 km/h (1 Bft) 100,00 %
05.12.2019 11:28 24,1 C -0,7 C 10,6 C 39 % 86 % 75 % 1027,6 hPa 0,0 l/m 1,6 km/h (1 Bft) NO 45 0,000 mm -2,7 C -0,7 C 4,8 km/h (1 Bft) 100,00 %
05.12.2019 11:27 24,1 C -0,6 C 10,6 C 39 % 86 % 75 % 1027,6 hPa 0,0 l/m 3,2 km/h (1 Bft) N 360 0,000 mm -2,6 C -0,6 C 3,2 km/h (1 Bft) 100,00 %
05.12.2019 11:26 24,1 C -0,7 C 10,6 C 39 % 86 % 75 % 1027,6 hPa 0,0 l/m 4,8 km/h (1 Bft) NO 45 0,000 mm -2,7 C -2,3 C 6,4 km/h (2 Bft) 100,00 %
05.12.2019 11:25 24,1 C -0,7 C 10,6 C 38 % 86 % 76 % 1027,6 hPa 0,0 l/m 1,6 km/h (1 Bft) O-NO 67 0,000 mm -2,7 C -0,7 C 3,2 km/h (1 Bft) 100,00 %
05.12.2019 11:24 24,1 C -0,7 C 10,6 C 39 % 86 % 76 % 1027,6 hPa 0,0 l/m 1,6 km/h (1 Bft) SO 135 0,000 mm -2,7 C -0,7 C 3,2 km/h (1 Bft) 100,00 %
05.12.2019 11:23 24,1 C -0,7 C 10,6 C 39 % 86 % 76 % 1027,6 hPa 0,0 l/m 4,8 km/h (1 Bft) SO 135 0,000 mm -2,7 C -2,3 C 6,4 km/h (2 Bft) 95,65 %
05.12.2019 11:22 24,1 C -0,6 C 10,6 C 39 % 86 % 76 % 1027,5 hPa 0,0 l/m 3,2 km/h (1 Bft) O-SO 112 0,000 mm -2,6 C -0,6 C 4,8 km/h (1 Bft) 100,00 %
05.12.2019 11:21 24,1 C -0,6 C 10,6 C 38 % 86 % 76 % 1027,7 hPa 0,0 l/m 0,0 km/h (0 Bft) O-SO 112 0,000 mm -2,6 C -0,6 C 1,6 km/h (1 Bft) 95,65 %
05.12.2019 11:20 24,1 C -0,7 C 10,6 C 38 % 86 % 76 % 1027,6 hPa 0,0 l/m 3,2 km/h (1 Bft) O-SO 112 0,000 mm -2,7 C -0,7 C 4,8 km/h (1 Bft) 95,65 %
05.12.2019 11:19 24,1 C -0,7 C 10,6 C 38 % 87 % 76 % 1027,6 hPa 0,0 l/m 3,2 km/h (1 Bft) O-SO 112 0,000 mm -2,6 C -0,7 C 6,4 km/h (2 Bft) 100,00 %
05.12.2019 11:18 24,1 C -0,7 C 10,6 C 38 % 87 % 76 % 1027,6 hPa 0,0 l/m 4,8 km/h (1 Bft) O-SO 112 0,000 mm -2,6 C -2,3 C 6,4 km/h (2 Bft) 100,00 %
05.12.2019 11:17 24,1 C -0,7 C 10,6 C 38 % 86 % 77 % 1027,7 hPa 0,0 l/m 3,2 km/h (1 Bft) S-SO 157 0,000 mm -2,7 C -0,7 C 6,4 km/h (2 Bft) 100,00 %
05.12.2019 11:16 24,1 C -0,7 C 10,6 C 38 % 86 % 77 % 1027,6 hPa 0,0 l/m 3,2 km/h (1 Bft) O-SO 112 0,000 mm -2,7 C -0,7 C 4,8 km/h (1 Bft) 95,65 %
05.12.2019 11:15 24,2 C -0,7 C 10,6 C 38 % 86 % 77 % 1027,6 hPa 0,0 l/m 3,2 km/h (1 Bft) O-SO 112 0,000 mm -2,7 C -0,7 C 4,8 km/h (1 Bft) 95,65 %
05.12.2019 11:14 24,2 C -0,7 C 10,6 C 38 % 86 % 77 % 1027,5 hPa 0,0 l/m 3,2 km/h (1 Bft) S-SO 157 0,000 mm -2,7 C -0,7 C 6,4 km/h (2 Bft) 100,00 %
05.12.2019 11:13 24,1 C -0,7 C 10,0 C 38 % 86 % 77 % 1027,6 hPa 0,0 l/m 4,8 km/h (1 Bft) S 180 0,000 mm -2,7 C -2,3 C 6,4 km/h (2 Bft) 100,00 %
05.12.2019 11:12 24,2 C -0,7 C 10,0 C 38 % 86 % 77 % 1027,6 hPa 0,0 l/m 4,8 km/h (1 Bft) S 180 0,000 mm -2,7 C -2,3 C 6,4 km/h (2 Bft) 95,65 %
05.12.2019 11:11 24,1 C -0,7 C 10,0 C 38 % 86 % 77 % 1027,6 hPa 0,0 l/m 4,8 km/h (1 Bft) O-SO 112 0,000 mm -2,7 C -2,3 C 6,4 km/h (2 Bft) 95,65 %
05.12.2019 11:10 24,2 C -0,7 C 10,0 C 38 % 86 % 77 % 1027,6 hPa 0,0 l/m 3,2 km/h (1 Bft) O-SO 112 0,000 mm -2,7 C -0,7 C 4,8 km/h (1 Bft) 100,00 %
05.12.2019 11:09 24,2 C -0,7 C 10,0 C 38 % 86 % 77 % 1027,6 hPa 0,0 l/m 3,2 km/h (1 Bft) O-SO 112 0,000 mm -2,7 C -0,7 C 4,8 km/h (1 Bft) 95,65 %
05.12.2019 11:08 24,2 C -0,7 C 10,0 C 38 % 86 % 77 % 1027,6 hPa 0,0 l/m 4,8 km/h (1 Bft) O 90 0,000 mm -2,7 C -2,3 C 6,4 km/h (2 Bft) 100,00 %
05.12.2019 11:07 24,2 C -0,7 C 10,0 C 38 % 86 % 77 % 1027,6 hPa 0,0 l/m 4,8 km/h (1 Bft) SO 135 0,000 mm -2,7 C -2,3 C 6,4 km/h (2 Bft) 100,00 %
05.12.2019 11:06 24,2 C -0,7 C 10,0 C 38 % 86 % 77 % 1027,7 hPa 0,0 l/m 3,2 km/h (1 Bft) O-SO 112 0,000 mm -2,7 C -0,7 C 6,4 km/h (2 Bft) 95,65 %
05.12.2019 11:05 24,2 C -0,7 C 10,0 C 38 % 86 % 77 % 1027,6 hPa 0,0 l/m 6,4 km/h (2 Bft) O-SO 112 0,000 mm -2,7 C -3,0 C 9,7 km/h (2 Bft) 95,65 %
05.12.2019 11:04 24,2 C -0,8 C 10,0 C 38 % 86 % 77 % 1027,7 hPa 0,0 l/m 4,8 km/h (1 Bft) O 90 0,000 mm -2,8 C -2,4 C 9,7 km/h (2 Bft) 100,00 %
05.12.2019 11:03 24,2 C -0,7 C 10,0 C 38 % 86 % 77 % 1027,7 hPa 0,0 l/m 3,2 km/h (1 Bft) O 90 0,000 mm -2,7 C -0,7 C 4,8 km/h (1 Bft) 100,00 %
05.12.2019 11:02 24,2 C -0,8 C 10,0 C 38 % 86 % 77 % 1027,7 hPa 0,0 l/m 4,8 km/h (1 Bft) SO 135 0,000 mm -2,8 C -2,4 C 6,4 km/h (2 Bft) 95,65 %
05.12.2019 11:01 24,2 C -0,7 C 10,0 C 38 % 86 % 77 % 1027,6 hPa 0,0 l/m 3,2 km/h (1 Bft) O-SO 112 0,000 mm -2,7 C -0,7 C 4,8 km/h (1 Bft) 100,00 %
05.12.2019 11:00 24,2 C -0,8 C 10,0 C 38 % 86 % 76 % 1027,6 hPa 0,0 l/m 4,8 km/h (1 Bft) O-SO 112 0,000 mm -2,8 C -2,4 C 6,4 km/h (2 Bft) 95,65 %
05.12.2019 10:59 24,2 C -0,8 C 10,0 C 38 % 86 % 76 % 1027,6 hPa 0,0 l/m 4,8 km/h (1 Bft) O-SO 112 0,000 mm -2,8 C -2,4 C 6,4 km/h (2 Bft) 100,00 %
05.12.2019 10:58 24,2 C -0,8 C 10,0 C 38 % 86 % 76 % 1027,7 hPa 0,0 l/m 6,4 km/h (2 Bft) O-SO 112 0,000 mm -2,8 C -3,1 C 11,3 km/h (2 Bft) 100,00 %
05.12.2019 10:57 24,2 C -0,8 C 10,0 C 38 % 86 % 76 % 1027,6 hPa 0,0 l/m 1,6 km/h (1 Bft) SO 135 0,000 mm -2,8 C -0,8 C 4,8 km/h (1 Bft) 100,00 %
05.12.2019 10:56 24,3 C -0,8 C 10,0 C 38 % 86 % 76 % 1027,7 hPa 0,0 l/m 1,6 km/h (1 Bft) O-NO 67 0,000 mm -2,8 C -0,8 C 3,2 km/h (1 Bft) 100,00 %
05.12.2019 10:55 24,3 C -0,8 C 10,0 C 38 % 86 % 76 % 1027,7 hPa 0,0 l/m 1,6 km/h (1 Bft) O-NO 67 0,000 mm -2,8 C -0,8 C 3,2 km/h (1 Bft) 95,65 %
05.12.2019 10:54 24,3 C -0,8 C 10,0 C 38 % 86 % 76 % 1027,7 hPa 0,0 l/m 1,6 km/h (1 Bft) O-NO 67 0,000 mm -2,8 C -0,8 C 4,8 km/h (1 Bft) 100,00 %
05.12.2019 10:53 24,3 C -0,8 C 10,0 C 38 % 86 % 76 % 1027,7 hPa 0,0 l/m 1,6 km/h (1 Bft) O 90 0,000 mm -2,8 C -0,8 C 3,2 km/h (1 Bft) 100,00 %
05.12.2019 10:52 24,3 C -0,8 C 10,0 C 38 % 86 % 76 % 1027,8 hPa 0,0 l/m 3,2 km/h (1 Bft) O 90 0,000 mm -2,8 C -0,8 C 4,8 km/h (1 Bft) 100,00 %
05.12.2019 10:51 24,3 C -0,8 C 10,0 C 38 % 87 % 76 % 1027,7 hPa 0,0 l/m 1,6 km/h (1 Bft) N-NO 22 0,000 mm -2,7 C -0,8 C 3,2 km/h (1 Bft) 95,65 %
05.12.2019 10:50 24,3 C -0,8 C 10,0 C 38 % 87 % 76 % 1027,7 hPa 0,0 l/m 3,2 km/h (1 Bft) N-NO 22 0,000 mm -2,7 C -0,8 C 6,4 km/h (2 Bft) 91,30 %
05.12.2019 10:49 24,3 C -0,8 C 10,0 C 38 % 86 % 76 % 1027,9 hPa 0,0 l/m 1,6 km/h (1 Bft) O 90 0,000 mm -2,8 C -0,8 C 3,2 km/h (1 Bft) 100,00 %
05.12.2019 10:48 24,3 C -0,8 C 10,0 C 38 % 86 % 75 % 1027,7 hPa 0,0 l/m 0,0 km/h (0 Bft) O 90 0,000 mm -2,8 C -0,8 C 1,6 km/h (1 Bft) 91,30 %
05.12.2019 10:47 24,3 C -0,8 C 10,0 C 38 % 86 % 75 % 1027,8 hPa 0,0 l/m 3,2 km/h (1 Bft) O 90 0,000 mm -2,8 C -0,8 C 4,8 km/h (1 Bft) 100,00 %
05.12.2019 10:46 24,3 C -0,8 C 10,0 C 38 % 86 % 75 % 1027,9 hPa 0,0 l/m 3,2 km/h (1 Bft) NO 45 0,000 mm -2,8 C -0,8 C 4,8 km/h (1 Bft) 95,65 %
05.12.2019 10:45 24,3 C -0,8 C 10,0 C 38 % 86 % 75 % 1027,7 hPa 0,0 l/m 1,6 km/h (1 Bft) O-SO 112 0,000 mm -2,8 C -0,8 C 4,8 km/h (1 Bft) 100,00 %
05.12.2019 10:44 24,3 C -0,8 C 10,0 C 38 % 86 % 75 % 1027,8 hPa 0,0 l/m 1,6 km/h (1 Bft) O-SO 112 0,000 mm -2,8 C -0,8 C 4,8 km/h (1 Bft) 95,65 %
05.12.2019 10:43 24,3 C -0,8 C 10,0 C 38 % 86 % 75 % 1027,8 hPa 0,0 l/m 4,8 km/h (1 Bft) O-SO 112 0,000 mm -2,8 C -2,4 C 4,8 km/h (1 Bft) 95,65 %
05.12.2019 10:42 24,4 C -0,8 C 10,0 C 38 % 86 % 75 % 1027,8 hPa 0,0 l/m 4,8 km/h (1 Bft) O-SO 112 0,000 mm -2,8 C -2,4 C 6,4 km/h (2 Bft) 95,65 %
05.12.2019 10:41 24,4 C -0,8 C 10,0 C 38 % 86 % 75 % 1027,8 hPa 0,0 l/m 4,8 km/h (1 Bft) O 90 0,000 mm -2,8 C -2,4 C 6,4 km/h (2 Bft) 86,96 %
05.12.2019 10:40 24,4 C -0,8 C 10,0 C 38 % 86 % 75 % 1027,8 hPa 0,0 l/m 4,8 km/h (1 Bft) O-SO 112 0,000 mm -2,8 C -2,4 C 6,4 km/h (2 Bft) 100,00 %
05.12.2019 10:39 24,4 C -0,8 C 10,0 C 38 % 86 % 75 % 1027,8 hPa 0,0 l/m 4,8 km/h (1 Bft) O 90 0,000 mm -2,8 C -2,4 C 6,4 km/h (2 Bft) 86,96 %
05.12.2019 10:38 24,4 C -0,9 C 10,0 C 38 % 86 % 75 % 1027,8 hPa 0,0 l/m 1,6 km/h (1 Bft) SO 135 0,000 mm -2,9 C -0,9 C 3,2 km/h (1 Bft) 100,00 %
05.12.2019 10:37 24,4 C -0,9 C 10,0 C 38 % 86 % 75 % 1027,9 hPa 0,0 l/m 4,8 km/h (1 Bft) O-SO 112 0,000 mm -2,9 C -2,5 C 6,4 km/h (2 Bft) 91,30 %
05.12.2019 10:36 24,4 C -0,9 C 10,0 C 38 % 86 % 75 % 1027,9 hPa 0,0 l/m 3,2 km/h (1 Bft) S-SO 157 0,000 mm -2,9 C -0,9 C 4,8 km/h (1 Bft) 100,00 %
05.12.2019 10:35 24,4 C -0,8 C 10,0 C 39 % 86 % 76 % 1027,8 hPa 0,0 l/m 4,8 km/h (1 Bft) O-SO 112 0,000 mm -2,8 C -2,4 C 6,4 km/h (2 Bft) 91,30 %
05.12.2019 10:34 24,4 C -0,8 C 10,0 C 39 % 86 % 76 % 1027,8 hPa 0,0 l/m 4,8 km/h (1 Bft) O 90 0,000 mm -2,8 C -2,4 C 8,0 km/h (2 Bft) 91,30 %
05.12.2019 10:33 24,4 C -0,8 C 10,0 C 39 % 86 % 76 % 1027,8 hPa 0,0 l/m 4,8 km/h (1 Bft) SO 135 0,000 mm -2,8 C -2,4 C 8,0 km/h (2 Bft) 95,65 %
05.12.2019 10:32 24,4 C -0,8 C 10,0 C 39 % 86 % 76 % 1027,8 hPa 0,0 l/m 8,0 km/h (2 Bft) O-SO 112 0,000 mm -2,8 C -3,7 C 11,3 km/h (2 Bft) 91,30 %
05.12.2019 10:31 24,4 C -0,8 C 10,0 C 39 % 86 % 76 % 1027,9 hPa 0,0 l/m 4,8 km/h (1 Bft) O-SO 112 0,000 mm -2,8 C -2,4 C 8,0 km/h (2 Bft) 100,00 %
05.12.2019 10:30 24,4 C -0,8 C 10,0 C 39 % 86 % 76 % 1027,9 hPa 0,0 l/m 3,2 km/h (1 Bft) O-SO 112 0,000 mm -2,8 C -0,8 C 4,8 km/h (1 Bft) 95,65 %
05.12.2019 10:29 24,4 C -0,8 C 10,0 C 39 % 87 % 76 % 1027,9 hPa 0,0 l/m 4,8 km/h (1 Bft) O-SO 112 0,000 mm -2,7 C -2,4 C 6,4 km/h (2 Bft) 95,65 %
05.12.2019 10:28 24,4 C -0,8 C 10,0 C 39 % 87 % 76 % 1027,8 hPa 0,0 l/m 4,8 km/h (1 Bft) O 90 0,000 mm -2,7 C -2,4 C 6,4 km/h (2 Bft) 91,30 %
05.12.2019 10:27 24,4 C -0,8 C 10,0 C 39 % 87 % 76 % 1027,9 hPa 0,0 l/m 3,2 km/h (1 Bft) O-SO 112 0,000 mm -2,7 C -0,8 C 6,4 km/h (2 Bft) 95,65 %
05.12.2019 10:26 24,4 C -0,9 C 10,0 C 39 % 87 % 76 % 1027,9 hPa 0,0 l/m 1,6 km/h (1 Bft) O-SO 112 0,000 mm -2,8 C -0,9 C 3,2 km/h (1 Bft) 91,30 %
05.12.2019 10:25 24,4 C -0,9 C 10,0 C 39 % 87 % 76 % 1027,9 hPa 0,0 l/m 0,0 km/h (0 Bft) O-SO 112 0,000 mm -2,8 C -0,9 C 1,6 km/h (1 Bft) 95,65 %
05.12.2019 10:24 24,4 C -0,9 C 10,0 C 39 % 87 % 76 % 1027,9 hPa 0,0 l/m 3,2 km/h (1 Bft) O-SO 112 0,000 mm -2,8 C -0,9 C 4,8 km/h (1 Bft) 91,30 %
05.12.2019 10:23 24,4 C -0,9 C 10,0 C 39 % 87 % 76 % 1027,9 hPa 0,0 l/m 4,8 km/h (1 Bft) O 90 0,000 mm -2,8 C -2,5 C 6,4 km/h (2 Bft) 95,65 %
05.12.2019 10:22 24,4 C -0,9 C 10,0 C 39 % 87 % 76 % 1027,9 hPa 0,0 l/m 1,6 km/h (1 Bft) O-SO 112 0,000 mm -2,8 C -0,9 C 1,6 km/h (1 Bft) 95,65 %
05.12.2019 10:21 24,4 C -0,9 C 10,0 C 39 % 87 % 76 % 1028,0 hPa 0,0 l/m 3,2 km/h (1 Bft) O-SO 112 0,000 mm -2,8 C -0,9 C 4,8 km/h (1 Bft) 95,65 %
05.12.2019 10:20 24,4 C -0,9 C 10,0 C 39 % 87 % 76 % 1027,9 hPa 0,0 l/m 3,2 km/h (1 Bft) O-SO 112 0,000 mm -2,8 C -0,9 C 6,4 km/h (2 Bft) 91,30 %
05.12.2019 10:19 24,4 C -1,0 C 10,0 C 39 % 87 % 76 % 1027,9 hPa 0,0 l/m 1,6 km/h (1 Bft) S 180 0,000 mm -2,9 C -1,0 C 1,6 km/h (1 Bft) 91,30 %
05.12.2019 10:18 24,3 C -0,9 C 10,0 C 39 % 87 % 76 % 1027,9 hPa 0,0 l/m 0,0 km/h (0 Bft) S 180 0,000 mm -2,8 C -0,9 C 1,6 km/h (1 Bft) 100,00 %
05.12.2019 10:17 24,4 C -1,0 C 10,0 C 39 % 87 % 76 % 1027,9 hPa 0,0 l/m 0,0 km/h (0 Bft) S 180 0,000 mm -2,9 C -1,0 C 1,6 km/h (1 Bft) 95,65 %
05.12.2019 10:16 24,4 C -1,0 C 10,0 C 39 % 87 % 76 % 1027,9 hPa 0,0 l/m 0,0 km/h (0 Bft) S 180 0,000 mm -2,9 C -1,0 C 1,6 km/h (1 Bft) 95,65 %
05.12.2019 10:15 24,3 C -1,0 C 10,0 C 39 % 87 % 76 % 1027,9 hPa 0,0 l/m 3,2 km/h (1 Bft) S 180 0,000 mm -2,9 C -1,0 C 6,4 km/h (2 Bft) 100,00 %
05.12.2019 10:14 24,3 C -1,0 C 10,0 C 39 % 87 % 76 % 1027,9 hPa 0,0 l/m 3,2 km/h (1 Bft) S 180 0,000 mm -2,9 C -1,0 C 6,4 km/h (2 Bft) 100,00 %
05.12.2019 10:13 24,3 C -1,0 C 10,0 C 39 % 87 % 76 % 1028,0 hPa 0,0 l/m 4,8 km/h (1 Bft) S 180 0,000 mm -2,9 C -2,6 C 8,0 km/h (2 Bft) 95,65 %
05.12.2019 10:12 24,3 C -1,0 C 10,0 C 39 % 87 % 76 % 1028,0 hPa 0,0 l/m 3,2 km/h (1 Bft) O-SO 112 0,000 mm -2,9 C -1,0 C 6,4 km/h (2 Bft) 95,65 %
05.12.2019 10:11 24,3 C -1,1 C 9,4 C 39 % 87 % 76 % 1027,9 hPa 0,0 l/m 4,8 km/h (1 Bft) S-SO 157 0,000 mm -3,0 C -2,7 C 8,0 km/h (2 Bft) 100,00 %
05.12.2019 10:10 24,3 C -1,1 C 9,4 C 39 % 87 % 76 % 1028,0 hPa 0,0 l/m 3,2 km/h (1 Bft) SO 135 0,000 mm -3,0 C -1,1 C 4,8 km/h (1 Bft) 100,00 %
05.12.2019 10:09 24,3 C -1,1 C 9,4 C 39 % 87 % 76 % 1028,0 hPa 0,0 l/m 4,8 km/h (1 Bft) S-SO 157 0,000 mm -3,0 C -2,7 C 6,4 km/h (2 Bft) 100,00 %
05.12.2019 10:08 24,3 C -1,1 C 9,4 C 39 % 87 % 76 % 1028,0 hPa 0,0 l/m 3,2 km/h (1 Bft) S 180 0,000 mm -3,0 C -1,1 C 6,4 km/h (2 Bft) 100,00 %
05.12.2019 10:07 24,3 C -1,1 C 9,4 C 39 % 87 % 76 % 1028,1 hPa 0,0 l/m 1,6 km/h (1 Bft) S 180 0,000 mm -3,0 C -1,1 C 6,4 km/h (2 Bft) 100,00 %
05.12.2019 10:06 24,3 C -1,1 C 9,4 C 39 % 87 % 76 % 1028,0 hPa 0,0 l/m 3,2 km/h (1 Bft) O-SO 112 0,000 mm -3,0 C -1,1 C 6,4 km/h (2 Bft) 95,65 %
05.12.2019 10:05 24,3 C -1,1 C 9,4 C 39 % 87 % 76 % 1028,0 hPa 0,0 l/m 4,8 km/h (1 Bft) O-SO 112 0,000 mm -3,0 C -2,7 C 4,8 km/h (1 Bft) 100,00 %
05.12.2019 10:04 24,3 C -1,1 C 9,4 C 39 % 87 % 76 % 1028,0 hPa 0,0 l/m 6,4 km/h (2 Bft) O-SO 112 0,000 mm -3,0 C -3,5 C 9,7 km/h (2 Bft) 100,00 %
05.12.2019 10:03 24,3 C -1,1 C 9,4 C 39 % 87 % 76 % 1028,0 hPa 0,0 l/m 4,8 km/h (1 Bft) O 90 0,000 mm -3,0 C -2,7 C 9,7 km/h (2 Bft) 100,00 %
05.12.2019 10:02 24,2 C -1,1 C 9,4 C 39 % 87 % 77 % 1028,0 hPa 0,0 l/m 4,8 km/h (1 Bft) O 90 0,000 mm -3,0 C -2,7 C 6,4 km/h (2 Bft) 95,65 %
05.12.2019 10:01 24,3 C -1,1 C 9,4 C 39 % 87 % 77 % 1028,0 hPa 0,0 l/m 3,2 km/h (1 Bft) O-SO 112 0,000 mm -3,0 C -1,1 C 4,8 km/h (1 Bft) 100,00 %
05.12.2019 10:00 24,3 C -1,2 C 9,4 C 39 % 87 % 77 % 1028,1 hPa 0,0 l/m 3,2 km/h (1 Bft) O 90 0,000 mm -3,1 C -1,2 C 6,4 km/h (2 Bft) 100,00 %
05.12.2019 09:59 24,2 C -1,2 C 9,4 C 39 % 87 % 77 % 1028,0 hPa 0,0 l/m 3,2 km/h (1 Bft) S-SO 157 0,000 mm -3,1 C -1,2 C 4,8 km/h (1 Bft) 95,65 %
05.12.2019 09:58 24,2 C -1,2 C 9,4 C 39 % 87 % 77 % 1028,1 hPa 0,0 l/m 3,2 km/h (1 Bft) S 180 0,000 mm -3,1 C -1,2 C 6,4 km/h (2 Bft) 100,00 %
05.12.2019 09:57 24,3 C -1,2 C 9,4 C 39 % 87 % 77 % 1028,1 hPa 0,0 l/m 4,8 km/h (1 Bft) O-SO 112 0,000 mm -3,1 C -2,9 C 6,4 km/h (2 Bft) 95,65 %
05.12.2019 09:56 24,2 C -1,2 C 9,4 C 39 % 86 % 77 % 1028,0 hPa 0,0 l/m 3,2 km/h (1 Bft) SO 135 0,000 mm -3,2 C -1,2 C 4,8 km/h (1 Bft) 95,65 %
05.12.2019 09:55 24,2 C -1,2 C 9,4 C 39 % 86 % 77 % 1028,0 hPa 0,0 l/m 6,4 km/h (2 Bft) O-SO 112 0,000 mm -3,2 C -3,6 C 11,3 km/h (2 Bft) 100,00 %
05.12.2019 09:54 24,2 C -1,2 C 9,4 C 39 % 86 % 77 % 1028,0 hPa 0,0 l/m 4,8 km/h (1 Bft) SO 135 0,000 mm -3,2 C -2,9 C 6,4 km/h (2 Bft) 100,00 %
05.12.2019 09:53 24,2 C -1,2 C 9,4 C 39 % 87 % 77 % 1028,0 hPa 0,0 l/m 4,8 km/h (1 Bft) O-SO 112 0,000 mm -3,1 C -2,9 C 6,4 km/h (2 Bft) 95,65 %
05.12.2019 09:52 24,2 C -1,2 C 9,4 C 38 % 86 % 77 % 1028,0 hPa 0,0 l/m 4,8 km/h (1 Bft) SO 135 0,000 mm -3,2 C -2,9 C 6,4 km/h (2 Bft) 95,65 %
05.12.2019 09:51 24,2 C -1,2 C 9,4 C 38 % 87 % 77 % 1027,9 hPa 0,0 l/m 4,8 km/h (1 Bft) SO 135 0,000 mm -3,1 C -2,9 C 11,3 km/h (2 Bft) 95,65 %
05.12.2019 09:50 24,2 C -1,1 C 9,4 C 38 % 86 % 77 % 1027,9 hPa 0,0 l/m 8,0 km/h (2 Bft) SO 135 0,000 mm -3,1 C -4,0 C 11,3 km/h (2 Bft) 95,65 %
05.12.2019 09:49 24,2 C -1,2 C 9,4 C 38 % 87 % 77 % 1027,9 hPa 0,0 l/m 6,4 km/h (2 Bft) SO 135 0,000 mm -3,1 C -3,6 C 11,3 km/h (2 Bft) 95,65 %
05.12.2019 09:48 24,2 C -1,1 C 9,4 C 38 % 87 % 77 % 1028,0 hPa 0,0 l/m 4,8 km/h (1 Bft) O-SO 112 0,000 mm -3,0 C -2,7 C 6,4 km/h (2 Bft) 100,00 %
05.12.2019 09:47 24,2 C -1,1 C 9,4 C 38 % 87 % 77 % 1028,0 hPa 0,0 l/m 3,2 km/h (1 Bft) SO 135 0,000 mm -3,0 C -1,1 C 6,4 km/h (2 Bft) 100,00 %
05.12.2019 09:46 24,2 C -1,1 C 9,4 C 38 % 87 % 77 % 1028,0 hPa 0,0 l/m 4,8 km/h (1 Bft) SO 135 0,000 mm -3,0 C -2,7 C 8,0 km/h (2 Bft) 100,00 %
05.12.2019 09:45 24,2 C -1,1 C 9,4 C 38 % 87 % 77 % 1028,0 hPa 0,0 l/m 4,8 km/h (1 Bft) S-SO 157 0,000 mm -3,0 C -2,7 C 8,0 km/h (2 Bft) 100,00 %
05.12.2019 09:44 24,2 C -1,2 C 9,4 C 38 % 87 % 77 % 1027,9 hPa 0,0 l/m 6,4 km/h (2 Bft) O 90 0,000 mm -3,1 C -3,6 C 8,0 km/h (2 Bft) 95,65 %
05.12.2019 09:43 24,3 C -1,1 C 9,4 C 38 % 87 % 77 % 1027,8 hPa 0,0 l/m 3,2 km/h (1 Bft) SO 135 0,000 mm -3,0 C -1,1 C 4,8 km/h (1 Bft) 100,00 %
05.12.2019 09:42 24,3 C -1,2 C 9,4 C 38 % 87 % 77 % 1027,9 hPa 0,0 l/m 3,2 km/h (1 Bft) O-SO 112 0,000 mm -3,1 C -1,2 C 6,4 km/h (2 Bft) 95,65 %
05.12.2019 09:41 24,3 C -1,2 C 9,4 C 38 % 87 % 77 % 1027,9 hPa 0,0 l/m 4,8 km/h (1 Bft) SO 135 0,000 mm -3,1 C -2,9 C 6,4 km/h (2 Bft) 100,00 %
05.12.2019 09:40 24,3 C -1,2 C 9,4 C 39 % 87 % 77 % 1027,9 hPa 0,0 l/m 3,2 km/h (1 Bft) O-NO 67 0,000 mm -3,1 C -1,2 C 4,8 km/h (1 Bft) 100,00 %
05.12.2019 09:39 24,3 C -1,2 C 9,4 C 39 % 87 % 77 % 1027,9 hPa 0,0 l/m 1,6 km/h (1 Bft) NO 45 0,000 mm -3,1 C -1,2 C 3,2 km/h (1 Bft) 100,00 %
05.12.2019 09:38 24,3 C -1,2 C 8,9 C 40 % 87 % 77 % 1027,8 hPa 0,0 l/m 1,6 km/h (1 Bft) NO 45 0,000 mm -3,1 C -1,2 C 3,2 km/h (1 Bft) 95,65 %
05.12.2019 09:37 24,3 C -1,2 C 8,9 C 40 % 87 % 77 % 1027,7 hPa 0,0 l/m 1,6 km/h (1 Bft) NO 45 0,000 mm -3,1 C -1,2 C 1,6 km/h (1 Bft) 95,65 %
05.12.2019 09:36 24,3 C -1,2 C 8,9 C 40 % 87 % 77 % 1027,8 hPa 0,0 l/m 1,6 km/h (1 Bft) NO 45 0,000 mm -3,1 C -1,2 C 3,2 km/h (1 Bft) 100,00 %
05.12.2019 09:35 24,3 C -1,2 C 8,9 C 40 % 87 % 77 % 1027,8 hPa 0,0 l/m 1,6 km/h (1 Bft) O 90 0,000 mm -3,1 C -1,2 C 3,2 km/h (1 Bft) 100,00 %
05.12.2019 09:34 24,3 C -1,2 C 8,9 C 40 % 87 % 77 % 1027,7 hPa 0,0 l/m 1,6 km/h (1 Bft) O 90 0,000 mm -3,1 C -1,2 C 3,2 km/h (1 Bft) 100,00 %
05.12.2019 09:33 24,3 C -1,2 C 8,9 C 41 % 87 % 77 % 1027,7 hPa 0,0 l/m 1,6 km/h (1 Bft) O 90 0,000 mm -3,1 C -1,2 C 3,2 km/h (1 Bft) 100,00 %
05.12.2019 09:32 24,3 C -1,2 C 8,9 C 41 % 87 % 77 % 1027,9 hPa 0,0 l/m 1,6 km/h (1 Bft) O 90 0,000 mm -3,1 C -1,2 C 3,2 km/h (1 Bft) 100,00 %
05.12.2019 09:31 24,3 C -1,2 C 8,9 C 41 % 87 % 77 % 1027,8 hPa 0,0 l/m 1,6 km/h (1 Bft) O 90 0,000 mm -3,1 C -1,2 C 3,2 km/h (1 Bft) 100,00 %
05.12.2019 09:30 24,3 C -1,2 C 8,9 C 41 % 87 % 77 % 1027,8 hPa 0,0 l/m 3,2 km/h (1 Bft) O 90 0,000 mm -3,1 C -1,2 C 4,8 km/h (1 Bft) 95,65 %
05.12.2019 09:29 24,3 C -1,2 C 8,9 C 41 % 87 % 77 % 1027,9 hPa 0,0 l/m 3,2 km/h (1 Bft) O-NO 67 0,000 mm -3,1 C -1,2 C 4,8 km/h (1 Bft) 100,00 %
05.12.2019 09:28 24,3 C -1,2 C 8,9 C 41 % 87 % 77 % 1027,7 hPa 0,0 l/m 3,2 km/h (1 Bft) NO 45 0,000 mm -3,1 C -1,2 C 4,8 km/h (1 Bft) 100,00 %
05.12.2019 09:27 24,3 C -1,2 C 8,9 C 41 % 86 % 77 % 1027,7 hPa 0,0 l/m 3,2 km/h (1 Bft) O-NO 67 0,000 mm -3,2 C -1,2 C 6,4 km/h (2 Bft) 95,65 %
05.12.2019 09:26 24,3 C -1,2 C 8,9 C 40 % 87 % 77 % 1027,8 hPa 0,0 l/m 3,2 km/h (1 Bft) O-SO 112 0,000 mm -3,1 C -1,2 C 4,8 km/h (1 Bft) 95,65 %
05.12.2019 09:25 24,3 C -1,2 C 8,9 C 40 % 87 % 77 % 1027,7 hPa 0,0 l/m 4,8 km/h (1 Bft) O 90 0,000 mm -3,1 C -2,9 C 6,4 km/h (2 Bft) 100,00 %
05.12.2019 09:24 24,2 C -1,2 C 8,9 C 40 % 87 % 77 % 1027,7 hPa 0,0 l/m 4,8 km/h (1 Bft) SO 135 0,000 mm -3,1 C -2,9 C 8,0 km/h (2 Bft) 95,65 %
05.12.2019 09:23 24,2 C -1,2 C 8,9 C 40 % 87 % 77 % 1027,7 hPa 0,0 l/m 4,8 km/h (1 Bft) O-SO 112 0,000 mm -3,1 C -2,9 C 6,4 km/h (2 Bft) 95,65 %
05.12.2019 09:22 24,2 C -1,2 C 8,9 C 40 % 87 % 77 % 1027,8 hPa 0,0 l/m 3,2 km/h (1 Bft) SO 135 0,000 mm -3,1 C -1,2 C 4,8 km/h (1 Bft) 100,00 %
05.12.2019 09:21 24,2 C -1,2 C 8,9 C 40 % 87 % 77 % 1027,7 hPa 0,0 l/m 4,8 km/h (1 Bft) O-SO 112 0,000 mm -3,1 C -2,9 C 6,4 km/h (2 Bft) 100,00 %
05.12.2019 09:20 24,2 C -1,2 C 8,9 C 40 % 87 % 77 % 1027,8 hPa 0,0 l/m 4,8 km/h (1 Bft) O-SO 112 0,000 mm -3,1 C -2,9 C 9,7 km/h (2 Bft) 95,65 %
05.12.2019 09:19 24,2 C -1,2 C 8,9 C 40 % 87 % 77 % 1027,7 hPa 0,0 l/m 4,8 km/h (1 Bft) O 90 0,000 mm -3,1 C -2,9 C 8,0 km/h (2 Bft) 100,00 %
05.12.2019 09:18 24,2 C -1,2 C 8,9 C 40 % 87 % 77 % 1027,7 hPa 0,0 l/m 3,2 km/h (1 Bft) NO 45 0,000 mm -3,1 C -1,2 C 8,0 km/h (2 Bft) 100,00 %
05.12.2019 09:17 24,2 C -1,2 C 8,9 C 40 % 87 % 77 % 1027,7 hPa 0,0 l/m 3,2 km/h (1 Bft) O 90 0,000 mm -3,1 C -1,2 C 6,4 km/h (2 Bft) 100,00 %
05.12.2019 09:16 24,2 C -1,3 C 8,9 C 40 % 87 % 77 % 1027,7 hPa 0,0 l/m 3,2 km/h (1 Bft) O 90 0,000 mm -3,2 C -1,3 C 6,4 km/h (2 Bft) 95,65 %
05.12.2019 09:15 24,2 C -1,3 C 8,9 C 40 % 87 % 77 % 1027,6 hPa 0,0 l/m 3,2 km/h (1 Bft) O-SO 112 0,000 mm -3,2 C -1,3 C 6,4 km/h (2 Bft) 100,00 %
05.12.2019 09:14 24,2 C -1,3 C 8,9 C 40 % 87 % 77 % 1027,7 hPa 0,0 l/m 3,2 km/h (1 Bft) O-NO 67 0,000 mm -3,2 C -1,3 C 4,8 km/h (1 Bft) 100,00 %
05.12.2019 09:13 24,2 C -1,2 C 8,9 C 40 % 87 % 77 % 1027,6 hPa 0,0 l/m 6,4 km/h (2 Bft) O 90 0,000 mm -3,1 C -3,6 C 11,3 km/h (2 Bft) 100,00 %
05.12.2019 09:12 24,2 C -1,3 C 8,9 C 40 % 87 % 77 % 1027,6 hPa 0,0 l/m 6,4 km/h (2 Bft) O 90 0,000 mm -3,2 C -3,7 C 9,7 km/h (2 Bft) 100,00 %
05.12.2019 09:10 24,2 C -1,3 C 8,9 C 40 % 87 % 77 % 1027,6 hPa 0,0 l/m 3,2 km/h (1 Bft) O 90 0,000 mm -3,2 C -1,3 C 4,8 km/h (1 Bft) 95,65 %
05.12.2019 09:09 24,1 C -1,3 C 8,9 C 40 % 87 % 77 % 1027,6 hPa 0,0 l/m 4,8 km/h (1 Bft) O 90 0,000 mm -3,2 C -3,0 C 9,7 km/h (2 Bft) 95,65 %
05.12.2019 09:08 24,1 C -1,3 C 8,9 C 40 % 87 % 77 % 1027,6 hPa 0,0 l/m 4,8 km/h (1 Bft) O 90 0,000 mm -3,2 C -3,0 C 6,4 km/h (2 Bft) 100,00 %
05.12.2019 09:07 24,1 C -1,3 C 8,9 C 40 % 87 % 77 % 1027,6 hPa 0,0 l/m 3,2 km/h (1 Bft) O 90 0,000 mm -3,2 C -1,3 C 6,4 km/h (2 Bft) 91,30 %
05.12.2019 09:06 24,1 C -1,3 C 8,9 C 40 % 87 % 77 % 1027,6 hPa 0,0 l/m 4,8 km/h (1 Bft) O 90 0,000 mm -3,2 C -3,0 C 6,4 km/h (2 Bft) 100,00 %
05.12.2019 09:05 24,1 C -1,3 C 8,9 C 40 % 87 % 77 % 1027,5 hPa 0,0 l/m 4,8 km/h (1 Bft) O-SO 112 0,000 mm -3,2 C -3,0 C 8,0 km/h (2 Bft) 91,30 %
05.12.2019 09:04 24,1 C -1,3 C 8,9 C 40 % 87 % 77 % 1027,5 hPa 0,0 l/m 6,4 km/h (2 Bft) O-SO 112 0,000 mm -3,2 C -3,7 C 11,3 km/h (2 Bft) 95,65 %
05.12.2019 09:03 24,1 C -1,3 C 8,9 C 40 % 87 % 77 % 1027,5 hPa 0,0 l/m 4,8 km/h (1 Bft) O-SO 112 0,000 mm -3,2 C -3,0 C 8,0 km/h (2 Bft) 95,65 %
05.12.2019 09:02 24,1 C -1,3 C 8,9 C 40 % 87 % 77 % 1027,5 hPa 0,0 l/m 6,4 km/h (2 Bft) O 90 0,000 mm -3,2 C -3,7 C 11,3 km/h (2 Bft) 95,65 %
05.12.2019 09:01 24,1 C -1,3 C 8,9 C 40 % 87 % 77 % 1027,5 hPa 0,0 l/m 8,0 km/h (2 Bft) O-SO 112 0,000 mm -3,2 C -4,3 C 12,9 km/h (3 Bft) 95,65 %
05.12.2019 09:00 24,0 C -1,3 C 8,9 C 40 % 87 % 77 % 1027,5 hPa 0,0 l/m 6,4 km/h (2 Bft) O 90 0,000 mm -3,2 C -3,7 C 11,3 km/h (2 Bft) 100,00 %
05.12.2019 08:59 24,0 C -1,3 C 8,9 C 40 % 87 % 77 % 1027,6 hPa 0,0 l/m 9,7 km/h (2 Bft) O-SO 112 0,000 mm -3,2 C -4,8 C 12,9 km/h (3 Bft) 95,65 %
05.12.2019 08:58 24,0 C -1,3 C 8,9 C 40 % 87 % 77 % 1027,5 hPa 0,0 l/m 6,4 km/h (2 Bft) O-SO 112 0,000 mm -3,2 C -3,7 C 12,9 km/h (3 Bft) 91,30 %
05.12.2019 08:57 24,0 C -1,3 C 8,9 C 40 % 87 % 77 % 1027,5 hPa 0,0 l/m 8,0 km/h (2 Bft) O-SO 112 0,000 mm -3,2 C -4,3 C 11,3 km/h (2 Bft) 95,65 %
05.12.2019 08:56 23,9 C -1,3 C 8,9 C 40 % 87 % 77 % 1027,6 hPa 0,0 l/m 11,3 km/h (2 Bft) O-SO 112 0,000 mm -3,2 C -5,2 C 14,5 km/h (3 Bft) 95,65 %
05.12.2019 08:55 23,9 C -1,3 C 8,9 C 40 % 87 % 77 % 1027,5 hPa 0,0 l/m 6,4 km/h (2 Bft) O 90 0,000 mm -3,2 C -3,7 C 11,3 km/h (2 Bft) 91,30 %
05.12.2019 08:54 23,9 C -1,3 C 8,9 C 40 % 87 % 77 % 1027,5 hPa 0,0 l/m 4,8 km/h (1 Bft) O 90 0,000 mm -3,2 C -3,0 C 9,7 km/h (2 Bft) 95,65 %
05.12.2019 08:53 23,9 C -1,3 C 8,9 C 40 % 87 % 77 % 1027,5 hPa 0,0 l/m 3,2 km/h (1 Bft) O 90 0,000 mm -3,2 C -1,3 C 3,2 km/h (1 Bft) 95,65 %
05.12.2019 08:52 23,9 C -1,3 C 8,9 C 40 % 87 % 77 % 1027,4 hPa 0,0 l/m 3,2 km/h (1 Bft) O-NO 67 0,000 mm -3,2 C -1,3 C 4,8 km/h (1 Bft) 95,65 %
05.12.2019 08:51 23,9 C -1,3 C 8,9 C 40 % 87 % 77 % 1027,5 hPa 0,0 l/m 4,8 km/h (1 Bft) O 90 0,000 mm -3,2 C -3,0 C 6,4 km/h (2 Bft) 95,65 %
05.12.2019 08:50 23,9 C -1,3 C 8,9 C 40 % 87 % 77 % 1027,5 hPa 0,0 l/m 3,2 km/h (1 Bft) SO 135 0,000 mm -3,2 C -1,3 C 4,8 km/h (1 Bft) 91,30 %
05.12.2019 08:49 23,9 C -1,3 C 8,3 C 40 % 87 % 77 % 1027,4 hPa 0,0 l/m 4,8 km/h (1 Bft) SO 135 0,000 mm -3,2 C -3,0 C 8,0 km/h (2 Bft) 95,65 %
05.12.2019 08:48 23,9 C -1,3 C 8,3 C 40 % 87 % 77 % 1027,5 hPa 0,0 l/m 8,0 km/h (2 Bft) O 90 0,000 mm -3,2 C -4,3 C 11,3 km/h (2 Bft) 82,61 %
05.12.2019 08:47 23,9 C -1,3 C 8,3 C 40 % 87 % 77 % 1027,5 hPa 0,0 l/m 3,2 km/h (1 Bft) NO 45 0,000 mm -3,2 C -1,3 C 4,8 km/h (1 Bft) 100,00 %
05.12.2019 08:46 23,8 C -1,3 C 8,3 C 40 % 87 % 77 % 1027,5 hPa 0,0 l/m 3,2 km/h (1 Bft) O 90 0,000 mm -3,2 C -1,3 C 6,4 km/h (2 Bft) 91,30 %
05.12.2019 08:45 23,8 C -1,4 C 8,3 C 40 % 87 % 77 % 1027,4 hPa 0,0 l/m 1,6 km/h (1 Bft) O 90 0,000 mm -3,3 C -1,4 C 3,2 km/h (1 Bft) 100,00 %
05.12.2019 08:44 23,9 C -1,3 C 8,3 C 40 % 87 % 77 % 1027,4 hPa 0,0 l/m 1,6 km/h (1 Bft) O 90 0,000 mm -3,2 C -1,3 C 3,2 km/h (1 Bft) 91,30 %
05.12.2019 08:43 23,9 C -1,3 C 8,3 C 40 % 87 % 77 % 1027,5 hPa 0,0 l/m 3,2 km/h (1 Bft) O 90 0,000 mm -3,2 C -1,3 C 4,8 km/h (1 Bft) 95,65 %
05.12.2019 08:42 23,8 C -1,3 C 8,3 C 40 % 87 % 77 % 1027,5 hPa 0,0 l/m 1,6 km/h (1 Bft) N-NO 22 0,000 mm -3,2 C -1,3 C 4,8 km/h (1 Bft) 95,65 %
05.12.2019 08:41 23,8 C -1,3 C 8,3 C 40 % 87 % 77 % 1027,4 hPa 0,0 l/m 3,2 km/h (1 Bft) N-NO 22 0,000 mm -3,2 C -1,3 C 8,0 km/h (2 Bft) 95,65 %
05.12.2019 08:40 23,8 C -1,3 C 8,3 C 40 % 87 % 77 % 1027,4 hPa 0,0 l/m 3,2 km/h (1 Bft) O 90 0,000 mm -3,2 C -1,3 C 8,0 km/h (2 Bft) 95,65 %
05.12.2019 08:39 23,9 C -1,3 C 8,3 C 40 % 87 % 77 % 1027,5 hPa 0,0 l/m 3,2 km/h (1 Bft) O-NO 67 0,000 mm -3,2 C -1,3 C 8,0 km/h (2 Bft) 86,96 %
05.12.2019 08:38 23,8 C -1,4 C 8,3 C 40 % 87 % 77 % 1027,4 hPa 0,0 l/m 3,2 km/h (1 Bft) O-NO 67 0,000 mm -3,3 C -1,4 C 6,4 km/h (2 Bft) 95,65 %
05.12.2019 08:37 23,8 C -1,4 C 8,3 C 40 % 87 % 77 % 1027,4 hPa 0,0 l/m 3,2 km/h (1 Bft) O-NO 67 0,000 mm -3,3 C -1,4 C 6,4 km/h (2 Bft) 91,30 %
05.12.2019 08:36 23,8 C -1,3 C 8,3 C 40 % 87 % 77 % 1027,5 hPa 0,0 l/m 1,6 km/h (1 Bft) O-NO 67 0,000 mm -3,2 C -1,3 C 3,2 km/h (1 Bft) 100,00 %
05.12.2019 08:35 23,9 C -1,3 C 8,3 C 40 % 87 % 77 % 1027,4 hPa 0,0 l/m 1,6 km/h (1 Bft) O-NO 67 0,000 mm -3,2 C -1,3 C 4,8 km/h (1 Bft) 91,30 %
05.12.2019 08:34 23,9 C -1,3 C 8,3 C 40 % 87 % 77 % 1027,4 hPa 0,0 l/m 1,6 km/h (1 Bft) O-NO 67 0,000 mm -3,2 C -1,3 C 4,8 km/h (1 Bft) 95,65 %
05.12.2019 08:33 23,9 C -1,4 C 8,3 C 40 % 87 % 77 % 1027,5 hPa 0,0 l/m 4,8 km/h (1 Bft) O-NO 67 0,000 mm -3,3 C -3,1 C 6,4 km/h (2 Bft) 95,65 %
05.12.2019 08:32 23,9 C -1,3 C 8,3 C 40 % 87 % 77 % 1027,4 hPa 0,0 l/m 1,6 km/h (1 Bft) O 90 0,000 mm -3,2 C -1,3 C 4,8 km/h (1 Bft) 95,65 %
05.12.2019 08:31 23,9 C -1,3 C 8,3 C 40 % 87 % 77 % 1027,4 hPa 0,0 l/m 4,8 km/h (1 Bft) O-NO 67 0,000 mm -3,2 C -3,0 C 6,4 km/h (2 Bft) 91,30 %
05.12.2019 08:30 23,9 C -1,4 C 8,3 C 39 % 87 % 77 % 1027,3 hPa 0,0 l/m 3,2 km/h (1 Bft) O 90 0,000 mm -3,3 C -1,4 C 6,4 km/h (2 Bft) 95,65 %
05.12.2019 08:29 23,9 C -1,4 C 8,3 C 39 % 87 % 77 % 1027,4 hPa 0,0 l/m 4,8 km/h (1 Bft) O 90 0,000 mm -3,3 C -3,1 C 9,7 km/h (2 Bft) 100,00 %
05.12.2019 08:28 23,9 C -1,4 C 8,3 C 39 % 87 % 77 % 1027,4 hPa 0,0 l/m 8,0 km/h (2 Bft) O 90 0,000 mm -3,3 C -4,4 C 9,7 km/h (2 Bft) 95,65 %
05.12.2019 08:27 23,9 C -1,4 C 8,3 C 39 % 87 % 77 % 1027,4 hPa 0,0 l/m 3,2 km/h (1 Bft) O 90 0,000 mm -3,3 C -1,4 C 6,4 km/h (2 Bft) 91,30 %
05.12.2019 08:26 23,9 C -1,4 C 8,3 C 39 % 87 % 77 % 1027,3 hPa 0,0 l/m 4,8 km/h (1 Bft) O 90 0,000 mm -3,3 C -3,1 C 6,4 km/h (2 Bft) 95,65 %
05.12.2019 08:25 23,9 C -1,4 C 8,3 C 39 % 87 % 77 % 1027,3 hPa 0,0 l/m 3,2 km/h (1 Bft) O 90 0,000 mm -3,3 C -1,4 C 4,8 km/h (1 Bft) 100,00 %
05.12.2019 08:24 23,9 C -1,4 C 8,3 C 39 % 87 % 77 % 1027,3 hPa 0,0 l/m 1,6 km/h (1 Bft) SO 135 0,000 mm -3,3 C -1,4 C 4,8 km/h (1 Bft) 100,00 %
05.12.2019 08:23 23,9 C -1,4 C 8,3 C 39 % 87 % 77 % 1027,3 hPa 0,0 l/m 1,6 km/h (1 Bft) SO 135 0,000 mm -3,3 C -1,4 C 4,8 km/h (1 Bft) 100,00 %
05.12.2019 08:22 23,9 C -1,4 C 8,3 C 39 % 87 % 77 % 1027,3 hPa 0,0 l/m 4,8 km/h (1 Bft) SO 135 0,000 mm -3,3 C -3,1 C 6,4 km/h (2 Bft) 100,00 %
05.12.2019 08:21 23,9 C -1,3 C 8,3 C 39 % 87 % 77 % 1027,4 hPa 0,0 l/m 3,2 km/h (1 Bft) O 90 0,000 mm -3,2 C -1,3 C 4,8 km/h (1 Bft) 100,00 %
05.12.2019 08:20 23,9 C -1,4 C 8,3 C 39 % 88 % 77 % 1027,3 hPa 0,0 l/m 1,6 km/h (1 Bft) O 90 0,000 mm -3,1 C -1,4 C 3,2 km/h (1 Bft) 95,65 %
05.12.2019 08:19 23,9 C -1,4 C 8,3 C 39 % 87 % 77 % 1027,3 hPa 0,0 l/m 3,2 km/h (1 Bft) O 90 0,000 mm -3,3 C -1,4 C 4,8 km/h (1 Bft) 100,00 %
05.12.2019 08:18 23,9 C -1,3 C 8,3 C 39 % 87 % 77 % 1027,3 hPa 0,0 l/m 1,6 km/h (1 Bft) O 90 0,000 mm -3,2 C -1,3 C 3,2 km/h (1 Bft) 100,00 %
05.12.2019 08:17 23,9 C -1,4 C 8,3 C 39 % 88 % 77 % 1027,3 hPa 0,0 l/m 3,2 km/h (1 Bft) O 90 0,000 mm -3,1 C -1,4 C 6,4 km/h (2 Bft) 95,65 %
05.12.2019 08:16 23,9 C -1,4 C 8,3 C 39 % 88 % 77 % 1027,3 hPa 0,0 l/m 4,8 km/h (1 Bft) O-NO 67 0,000 mm -3,1 C -3,1 C 6,4 km/h (2 Bft) 95,65 %
05.12.2019 08:15 23,9 C -1,4 C 8,3 C 39 % 88 % 77 % 1027,3 hPa 0,0 l/m 3,2 km/h (1 Bft) O-NO 67 0,000 mm -3,1 C -1,4 C 8,0 km/h (2 Bft) 100,00 %
05.12.2019 08:14 23,9 C -1,4 C 8,3 C 39 % 87 % 77 % 1027,3 hPa 0,0 l/m 1,6 km/h (1 Bft) O 90 0,000 mm -3,3 C -1,4 C 3,2 km/h (1 Bft) 100,00 %
05.12.2019 08:13 23,9 C -1,4 C 8,3 C 39 % 87 % 77 % 1027,3 hPa 0,0 l/m 1,6 km/h (1 Bft) O 90 0,000 mm -3,3 C -1,4 C 3,2 km/h (1 Bft) 95,65 %
05.12.2019 08:12 23,9 C -1,4 C 8,3 C 39 % 88 % 77 % 1027,3 hPa 0,0 l/m 3,2 km/h (1 Bft) O 90 0,000 mm -3,1 C -1,4 C 4,8 km/h (1 Bft) 100,00 %
05.12.2019 08:11 23,9 C -1,4 C 8,3 C 39 % 87 % 77 % 1027,3 hPa 0,0 l/m 3,2 km/h (1 Bft) O 90 0,000 mm -3,3 C -1,4 C 6,4 km/h (2 Bft) 100,00 %
05.12.2019 08:10 23,9 C -1,4 C 8,3 C 39 % 87 % 77 % 1027,3 hPa 0,0 l/m 6,4 km/h (2 Bft) O 90 0,000 mm -3,3 C -3,8 C 9,7 km/h (2 Bft) 100,00 %
05.12.2019 08:09 23,9 C -1,4 C 8,3 C 39 % 87 % 77 % 1027,2 hPa 0,0 l/m 3,2 km/h (1 Bft) S-SO 157 0,000 mm -3,3 C -1,4 C 6,4 km/h (2 Bft) 100,00 %
05.12.2019 08:08 23,9 C -1,4 C 8,3 C 39 % 87 % 77 % 1027,2 hPa 0,0 l/m 4,8 km/h (1 Bft) O 90 0,000 mm -3,3 C -3,1 C 11,3 km/h (2 Bft) 100,00 %
05.12.2019 08:07 23,9 C -1,4 C 8,3 C 39 % 87 % 77 % 1027,2 hPa 0,0 l/m 4,8 km/h (1 Bft) SO 135 0,000 mm -3,3 C -3,1 C 6,4 km/h (2 Bft) 91,30 %
05.12.2019 08:06 23,9 C -1,4 C 8,3 C 39 % 87 % 77 % 1027,2 hPa 0,0 l/m 4,8 km/h (1 Bft) O-NO 67 0,000 mm -3,3 C -3,1 C 9,7 km/h (2 Bft) 95,65 %
05.12.2019 08:05 23,9 C -1,4 C 8,3 C 39 % 87 % 77 % 1027,3 hPa 0,0 l/m 6,4 km/h (2 Bft) O 90 0,000 mm -3,3 C -3,8 C 9,7 km/h (2 Bft) 91,30 %
05.12.2019 08:04 23,9 C -1,4 C 8,3 C 39 % 87 % 77 % 1027,2 hPa 0,0 l/m 3,2 km/h (1 Bft) SO 135 0,000 mm -3,3 C -1,4 C 6,4 km/h (2 Bft) 95,65 %
05.12.2019 08:03 23,9 C -1,4 C 8,3 C 39 % 87 % 77 % 1027,2 hPa 0,0 l/m 3,2 km/h (1 Bft) O-SO 112 0,000 mm -3,3 C -1,4 C 4,8 km/h (1 Bft) 100,00 %
05.12.2019 08:02 23,9 C -1,4 C 8,3 C 39 % 87 % 77 % 1027,2 hPa 0,0 l/m 1,6 km/h (1 Bft) O-SO 112 0,000 mm -3,3 C -1,4 C 3,2 km/h (1 Bft) 100,00 %
05.12.2019 08:01 23,9 C -1,4 C 8,3 C 39 % 87 % 77 % 1027,2 hPa 0,0 l/m 4,8 km/h (1 Bft) O-SO 112 0,000 mm -3,3 C -3,1 C 6,4 km/h (2 Bft) 95,65 %
05.12.2019 08:00 23,9 C -1,4 C 8,3 C 40 % 87 % 77 % 1027,1 hPa 0,0 l/m 6,4 km/h (2 Bft) O-SO 112 0,000 mm -3,3 C -3,8 C 9,7 km/h (2 Bft) 100,00 %
05.12.2019 07:59 23,9 C -1,4 C 8,3 C 39 % 87 % 77 % 1027,1 hPa 0,0 l/m 4,8 km/h (1 Bft) O 90 0,000 mm -3,3 C -3,1 C 9,7 km/h (2 Bft) 95,65 %
05.12.2019 07:58 23,9 C -1,4 C 8,3 C 39 % 87 % 77 % 1027,2 hPa 0,0 l/m 6,4 km/h (2 Bft) O-SO 112 0,000 mm -3,3 C -3,8 C 11,3 km/h (2 Bft) 100,00 %
05.12.2019 07:57 23,9 C -1,4 C 8,3 C 40 % 87 % 77 % 1027,2 hPa 0,0 l/m 4,8 km/h (1 Bft) O-NO 67 0,000 mm -3,3 C -3,1 C 9,7 km/h (2 Bft) 95,65 %
05.12.2019 07:56 23,9 C -1,4 C 8,3 C 40 % 87 % 77 % 1027,1 hPa 0,0 l/m 6,4 km/h (2 Bft) O 90 0,000 mm -3,3 C -3,8 C 11,3 km/h (2 Bft) 100,00 %
05.12.2019 07:55 23,9 C -1,4 C 8,3 C 40 % 87 % 77 % 1027,1 hPa 0,0 l/m 9,7 km/h (2 Bft) O 90 0,000 mm -3,3 C -4,9 C 14,5 km/h (3 Bft) 95,65 %
05.12.2019 07:54 23,8 C -1,4 C 8,3 C 40 % 87 % 77 % 1027,2 hPa 0,0 l/m 4,8 km/h (1 Bft) NO 45 0,000 mm -3,3 C -3,1 C 6,4 km/h (2 Bft) 100,00 %
05.12.2019 07:53 23,8 C -1,4 C 8,3 C 40 % 87 % 77 % 1027,2 hPa 0,0 l/m 4,8 km/h (1 Bft) O-NO 67 0,000 mm -3,3 C -3,1 C 8,0 km/h (2 Bft) 100,00 %
05.12.2019 07:52 23,8 C -1,4 C 8,3 C 40 % 87 % 77 % 1027,1 hPa 0,0 l/m 1,6 km/h (1 Bft) O-SO 112 0,000 mm -3,3 C -1,4 C 4,8 km/h (1 Bft) 91,30 %
05.12.2019 07:51 23,8 C -1,4 C 8,3 C 40 % 87 % 77 % 1027,1 hPa 0,0 l/m 4,8 km/h (1 Bft) O-NO 67 0,000 mm -3,3 C -3,1 C 11,3 km/h (2 Bft) 100,00 %
05.12.2019 07:50 23,8 C -1,4 C 8,3 C 40 % 87 % 77 % 1027,1 hPa 0,0 l/m 3,2 km/h (1 Bft) O 90 0,000 mm -3,3 C -1,4 C 4,8 km/h (1 Bft) 100,00 %
05.12.2019 07:49 23,8 C -1,4 C 8,3 C 40 % 87 % 77 % 1027,0 hPa 0,0 l/m 8,0 km/h (2 Bft) O 90 0,000 mm -3,3 C -4,4 C 12,9 km/h (3 Bft) 100,00 %
05.12.2019 07:48 23,8 C -1,4 C 8,3 C 40 % 87 % 77 % 1027,0 hPa 0,0 l/m 4,8 km/h (1 Bft) O 90 0,000 mm -3,3 C -3,1 C 11,3 km/h (2 Bft) 100,00 %
05.12.2019 07:47 23,8 C -1,4 C 8,3 C 40 % 87 % 77 % 1027,0 hPa 0,0 l/m 3,2 km/h (1 Bft) SO 135 0,000 mm -3,3 C -1,4 C 6,4 km/h (2 Bft) 100,00 %
05.12.2019 07:46 23,8 C -1,4 C 8,3 C 40 % 87 % 76 % 1027,0 hPa 0,0 l/m 3,2 km/h (1 Bft) O-SO 112 0,000 mm -3,3 C -1,4 C 6,4 km/h (2 Bft) 100,00 %
05.12.2019 07:45 23,7 C -1,4 C 8,3 C 40 % 87 % 76 % 1027,0 hPa 0,0 l/m 3,2 km/h (1 Bft) O-NO 67 0,000 mm -3,3 C -1,4 C 6,4 km/h (2 Bft) 95,65 %
05.12.2019 07:44 23,7 C -1,4 C 8,3 C 40 % 87 % 77 % 1026,9 hPa 0,0 l/m 3,2 km/h (1 Bft) O 90 0,000 mm -3,3 C -1,4 C 6,4 km/h (2 Bft) 100,00 %
05.12.2019 07:43 23,7 C -1,4 C 8,3 C 40 % 87 % 76 % 1026,9 hPa 0,0 l/m 6,4 km/h (2 Bft) O 90 0,000 mm -3,3 C -3,8 C 12,9 km/h (3 Bft) 100,00 %
05.12.2019 07:42 23,7 C -1,4 C 8,3 C 40 % 87 % 77 % 1026,9 hPa 0,0 l/m 4,8 km/h (1 Bft) O 90 0,000 mm -3,3 C -3,1 C 11,3 km/h (2 Bft) 95,65 %
05.12.2019 07:41 23,7 C -1,4 C 8,3 C 39 % 87 % 77 % 1026,8 hPa 0,0 l/m 9,7 km/h (2 Bft) O 90 0,000 mm -3,3 C -4,9 C 14,5 km/h (3 Bft) 91,30 %
05.12.2019 07:40 23,7 C -1,4 C 8,3 C 40 % 87 % 77 % 1026,9 hPa 0,0 l/m 6,4 km/h (2 Bft) O 90 0,000 mm -3,3 C -3,8 C 11,3 km/h (2 Bft) 100,00 %
05.12.2019 07:39 23,7 C -1,4 C 8,3 C 40 % 87 % 77 % 1026,9 hPa 0,0 l/m 4,8 km/h (1 Bft) O 90 0,000 mm -3,3 C -3,1 C 11,3 km/h (2 Bft) 91,30 %
05.12.2019 07:38 23,7 C -1,4 C 8,3 C 40 % 87 % 77 % 1026,8 hPa 0,0 l/m 6,4 km/h (2 Bft) O 90 0,000 mm -3,3 C -3,8 C 11,3 km/h (2 Bft) 95,65 %
05.12.2019 07:37 23,7 C -1,4 C 8,3 C 40 % 87 % 77 % 1026,8 hPa 0,0 l/m 8,0 km/h (2 Bft) O 90 0,000 mm -3,3 C -4,4 C 14,5 km/h (3 Bft) 100,00 %
05.12.2019 07:36 23,6 C -1,4 C 8,3 C 40 % 87 % 77 % 1026,9 hPa 0,0 l/m 6,4 km/h (2 Bft) O 90 0,000 mm -3,3 C -3,8 C 14,5 km/h (3 Bft) 95,65 %
05.12.2019 07:35 23,7 C -1,4 C 8,3 C 40 % 87 % 77 % 1027,0 hPa 0,0 l/m 3,2 km/h (1 Bft) NO 45 0,000 mm -3,3 C -1,4 C 4,8 km/h (1 Bft) 91,30 %
05.12.2019 07:34 23,6 C -1,4 C 8,3 C 40 % 87 % 77 % 1026,9 hPa 0,0 l/m 3,2 km/h (1 Bft) NO 45 0,000 mm -3,3 C -1,4 C 4,8 km/h (1 Bft) 100,00 %
05.12.2019 07:33 23,6 C -1,4 C 8,3 C 40 % 87 % 76 % 1026,9 hPa 0,0 l/m 3,2 km/h (1 Bft) O-NO 67 0,000 mm -3,3 C -1,4 C 4,8 km/h (1 Bft) 95,65 %
05.12.2019 07:32 23,6 C -1,4 C 8,3 C 40 % 87 % 76 % 1026,9 hPa 0,0 l/m 3,2 km/h (1 Bft) O 90 0,000 mm -3,3 C -1,4 C 6,4 km/h (2 Bft) 100,00 %
05.12.2019 07:31 23,6 C -1,4 C 8,3 C 40 % 87 % 76 % 1026,9 hPa 0,0 l/m 4,8 km/h (1 Bft) O-SO 112 0,000 mm -3,3 C -3,1 C 11,3 km/h (2 Bft) 95,65 %
05.12.2019 07:30 23,6 C -1,4 C 8,3 C 40 % 87 % 77 % 1026,9 hPa 0,0 l/m 4,8 km/h (1 Bft) O-SO 112 0,000 mm -3,3 C -3,1 C 6,4 km/h (2 Bft) 100,00 %
05.12.2019 07:29 23,6 C -1,4 C 8,3 C 39 % 87 % 76 % 1026,9 hPa 0,0 l/m 9,7 km/h (2 Bft) O 90 0,000 mm -3,3 C -4,9 C 14,5 km/h (3 Bft) 100,00 %
05.12.2019 07:28 23,6 C -1,4 C 8,3 C 40 % 87 % 76 % 1026,8 hPa 0,0 l/m 3,2 km/h (1 Bft) O-SO 112 0,000 mm -3,3 C -1,4 C 6,4 km/h (2 Bft) 100,00 %
05.12.2019 07:27 23,6 C -1,4 C 8,3 C 39 % 87 % 76 % 1026,8 hPa 0,0 l/m 4,8 km/h (1 Bft) O-NO 67 0,000 mm -3,3 C -3,1 C 11,3 km/h (2 Bft) 95,65 %
05.12.2019 07:26 23,6 C -1,4 C 8,3 C 39 % 87 % 76 % 1026,9 hPa 0,0 l/m 6,4 km/h (2 Bft) O 90 0,000 mm -3,3 C -3,8 C 14,5 km/h (3 Bft) 95,65 %
05.12.2019 07:25 23,5 C -1,4 C 8,3 C 39 % 87 % 76 % 1026,8 hPa 0,0 l/m 3,2 km/h (1 Bft) O 90 0,000 mm -3,3 C -1,4 C 8,0 km/h (2 Bft) 95,65 %
05.12.2019 07:24 23,5 C -1,4 C 8,3 C 39 % 87 % 76 % 1026,8 hPa 0,0 l/m 4,8 km/h (1 Bft) O 90 0,000 mm -3,3 C -3,1 C 9,7 km/h (2 Bft) 95,65 %
05.12.2019 07:23 23,5 C -1,4 C 8,3 C 39 % 87 % 77 % 1026,8 hPa 0,0 l/m 4,8 km/h (1 Bft) O-SO 112 0,000 mm -3,3 C -3,1 C 6,4 km/h (2 Bft) 91,30 %
05.12.2019 07:22 23,5 C -1,4 C 8,3 C 39 % 87 % 77 % 1026,8 hPa 0,0 l/m 8,0 km/h (2 Bft) O-NO 67 0,000 mm -3,3 C -4,4 C 14,5 km/h (3 Bft) 95,65 %
05.12.2019 07:21 23,4 C -1,4 C 8,3 C 39 % 87 % 77 % 1026,8 hPa 0,0 l/m 3,2 km/h (1 Bft) O 90 0,000 mm -3,3 C -1,4 C 4,8 km/h (1 Bft) 100,00 %
05.12.2019 07:20 23,4 C -1,4 C 8,3 C 39 % 87 % 76 % 1026,8 hPa 0,0 l/m 3,2 km/h (1 Bft) O 90 0,000 mm -3,3 C -1,4 C 4,8 km/h (1 Bft) 95,65 %
05.12.2019 07:19 23,4 C -1,4 C 8,3 C 40 % 87 % 76 % 1026,8 hPa 0,0 l/m 1,6 km/h (1 Bft) O-SO 112 0,000 mm -3,3 C -1,4 C 3,2 km/h (1 Bft) 100,00 %
05.12.2019 07:18 23,4 C -1,4 C 8,3 C 40 % 87 % 76 % 1026,7 hPa 0,0 l/m 3,2 km/h (1 Bft) O-NO 67 0,000 mm -3,3 C -1,4 C 6,4 km/h (2 Bft) 91,30 %
05.12.2019 07:17 23,4 C -1,4 C 8,3 C 40 % 87 % 77 % 1026,7 hPa 0,0 l/m 3,2 km/h (1 Bft) O 90 0,000 mm -3,3 C -1,4 C 4,8 km/h (1 Bft) 95,65 %
05.12.2019 07:16 23,4 C -1,4 C 8,3 C 40 % 87 % 77 % 1026,7 hPa 0,0 l/m 4,8 km/h (1 Bft) O 90 0,000 mm -3,3 C -3,1 C 9,7 km/h (2 Bft) 91,30 %
05.12.2019 07:15 23,4 C -1,4 C 8,3 C 40 % 87 % 77 % 1026,7 hPa 0,0 l/m 3,2 km/h (1 Bft) O-NO 67 0,000 mm -3,3 C -1,4 C 6,4 km/h (2 Bft) 100,00 %
05.12.2019 07:14 23,4 C -1,4 C 8,3 C 40 % 87 % 77 % 1026,7 hPa 0,0 l/m 9,7 km/h (2 Bft) O 90 0,000 mm -3,3 C -4,9 C 17,7 km/h (3 Bft) 91,30 %
05.12.2019 07:13 23,3 C -1,4 C 8,3 C 40 % 87 % 77 % 1026,8 hPa 0,0 l/m 4,8 km/h (1 Bft) O-NO 67 0,000 mm -3,3 C -3,1 C 12,9 km/h (3 Bft) 95,65 %
05.12.2019 07:12 23,4 C -1,4 C 8,3 C 40 % 87 % 77 % 1026,7 hPa 0,0 l/m 6,4 km/h (2 Bft) O-NO 67 0,000 mm -3,3 C -3,8 C 12,9 km/h (3 Bft) 95,65 %
05.12.2019 07:11 23,3 C -1,3 C 8,3 C 40 % 87 % 77 % 1026,6 hPa 0,0 l/m 8,0 km/h (2 Bft) O 90 0,000 mm -3,2 C -4,3 C 14,5 km/h (3 Bft) 95,65 %
05.12.2019 07:10 23,3 C -1,3 C 8,3 C 40 % 87 % 77 % 1026,7 hPa 0,0 l/m 11,3 km/h (2 Bft) O 90 0,000 mm -3,2 C -5,2 C 16,1 km/h (3 Bft) 91,30 %
05.12.2019 07:09 23,3 C -1,3 C 8,3 C 40 % 87 % 77 % 1026,6 hPa 0,0 l/m 4,8 km/h (1 Bft) O-NO 67 0,000 mm -3,2 C -3,0 C 8,0 km/h (2 Bft) 86,96 %
05.12.2019 07:08 23,3 C -1,4 C 8,3 C 40 % 87 % 77 % 1026,6 hPa 0,0 l/m 6,4 km/h (2 Bft) O-SO 112 0,000 mm -3,3 C -3,8 C 11,3 km/h (2 Bft) 95,65 %
05.12.2019 07:07 23,3 C -1,3 C 8,3 C 40 % 87 % 77 % 1026,7 hPa 0,0 l/m 6,4 km/h (2 Bft) SO 135 0,000 mm -3,2 C -3,7 C 11,3 km/h (2 Bft) 91,30 %
05.12.2019 07:06 23,3 C -1,3 C 8,3 C 40 % 87 % 77 % 1026,7 hPa 0,0 l/m 3,2 km/h (1 Bft) S-SO 157 0,000 mm -3,2 C -1,3 C 6,4 km/h (2 Bft) 100,00 %
05.12.2019 07:05 23,3 C -1,3 C 8,3 C 40 % 87 % 77 % 1026,6 hPa 0,0 l/m 1,6 km/h (1 Bft) O-NO 67 0,000 mm -3,2 C -1,3 C 3,2 km/h (1 Bft) 91,30 %
05.12.2019 07:04 23,3 C -1,3 C 8,3 C 40 % 87 % 77 % 1026,6 hPa 0,0 l/m 4,8 km/h (1 Bft) O-SO 112 0,000 mm -3,2 C -3,0 C 9,7 km/h (2 Bft) 100,00 %
05.12.2019 07:03 23,3 C -1,3 C 8,3 C 40 % 87 % 77 % 1026,6 hPa 0,0 l/m 3,2 km/h (1 Bft) SO 135 0,000 mm -3,2 C -1,3 C 6,4 km/h (2 Bft) 86,96 %
05.12.2019 07:02 23,3 C -1,3 C 8,3 C 40 % 87 % 77 % 1026,7 hPa 0,0 l/m 3,2 km/h (1 Bft) O 90 0,000 mm -3,2 C -1,3 C 4,8 km/h (1 Bft) 95,65 %
05.12.2019 07:01 23,3 C -1,3 C 8,3 C 40 % 87 % 77 % 1026,6 hPa 0,0 l/m 1,6 km/h (1 Bft) O 90 0,000 mm -3,2 C -1,3 C 3,2 km/h (1 Bft) 91,30 %
05.12.2019 07:00 23,3 C -1,3 C 8,3 C 40 % 87 % 77 % 1026,7 hPa 0,0 l/m 6,4 km/h (2 Bft) O 90 0,000 mm -3,2 C -3,7 C 9,7 km/h (2 Bft) 95,65 %
05.12.2019 06:59 23,3 C -1,3 C 8,3 C 40 % 87 % 77 % 1026,7 hPa 0,0 l/m 6,4 km/h (2 Bft) O-SO 112 0,000 mm -3,2 C -3,7 C 9,7 km/h (2 Bft) 100,00 %
05.12.2019 06:58 23,3 C -1,3 C 8,3 C 40 % 87 % 77 % 1026,7 hPa 0,0 l/m 4,8 km/h (1 Bft) SO 135 0,000 mm -3,2 C -3,0 C 9,7 km/h (2 Bft) 91,30 %
05.12.2019 06:57 23,3 C -1,3 C 8,3 C 40 % 87 % 77 % 1026,7 hPa 0,0 l/m 3,2 km/h (1 Bft) O-NO 67 0,000 mm -3,2 C -1,3 C 4,8 km/h (1 Bft) 95,65 %
05.12.2019 06:56 23,3 C -1,3 C 8,3 C 40 % 87 % 77 % 1026,7 hPa 0,0 l/m 6,4 km/h (2 Bft) O-NO 67 0,000 mm -3,2 C -3,7 C 12,9 km/h (3 Bft) 91,30 %
05.12.2019 06:55 23,3 C -1,3 C 8,3 C 40 % 87 % 77 % 1026,6 hPa 0,0 l/m 4,8 km/h (1 Bft) O-NO 67 0,000 mm -3,2 C -3,0 C 6,4 km/h (2 Bft) 100,00 %
05.12.2019 06:54 23,3 C -1,3 C 8,3 C 40 % 87 % 77 % 1026,6 hPa 0,0 l/m 6,4 km/h (2 Bft) SO 135 0,000 mm -3,2 C -3,7 C 11,3 km/h (2 Bft) 95,65 %
05.12.2019 06:53 23,3 C -1,3 C 8,3 C 41 % 87 % 77 % 1026,7 hPa 0,0 l/m 6,4 km/h (2 Bft) O 90 0,000 mm -3,2 C -3,7 C 9,7 km/h (2 Bft) 95,65 %
05.12.2019 06:52 23,3 C -1,3 C 8,3 C 41 % 87 % 77 % 1026,6 hPa 0,0 l/m 3,2 km/h (1 Bft) S-SO 157 0,000 mm -3,2 C -1,3 C 6,4 km/h (2 Bft) 100,00 %
05.12.2019 06:51 23,3 C -1,3 C 8,3 C 41 % 87 % 77 % 1026,6 hPa 0,0 l/m 4,8 km/h (1 Bft) O 90 0,000 mm -3,2 C -3,0 C 9,7 km/h (2 Bft) 95,65 %
05.12.2019 06:50 23,3 C -1,3 C 8,3 C 41 % 87 % 77 % 1026,7 hPa 0,0 l/m 3,2 km/h (1 Bft) O-NO 67 0,000 mm -3,2 C -1,3 C 9,7 km/h (2 Bft) 100,00 %
05.12.2019 06:49 23,3 C -1,3 C 8,3 C 41 % 87 % 77 % 1026,6 hPa 0,0 l/m 4,8 km/h (1 Bft) O 90 0,000 mm -3,2 C -3,0 C 11,3 km/h (2 Bft) 91,30 %
05.12.2019 06:48 23,2 C -1,3 C 8,3 C 41 % 87 % 77 % 1026,6 hPa 0,0 l/m 4,8 km/h (1 Bft) N-NO 22 0,000 mm -3,2 C -3,0 C 8,0 km/h (2 Bft) 100,00 %
05.12.2019 06:47 23,3 C -1,3 C 8,3 C 41 % 87 % 77 % 1026,5 hPa 0,0 l/m 3,2 km/h (1 Bft) NO 45 0,000 mm -3,2 C -1,3 C 8,0 km/h (2 Bft) 95,65 %
05.12.2019 06:46 23,3 C -1,3 C 8,3 C 41 % 88 % 77 % 1026,5 hPa 0,0 l/m 8,0 km/h (2 Bft) O-SO 112 0,000 mm -3,0 C -4,3 C 12,9 km/h (3 Bft) 95,65 %
05.12.2019 06:45 23,3 C -1,3 C 8,3 C 41 % 88 % 77 % 1026,5 hPa 0,0 l/m 3,2 km/h (1 Bft) O 90 0,000 mm -3,0 C -1,3 C 6,4 km/h (2 Bft) 95,65 %
05.12.2019 06:44 23,3 C -1,3 C 8,3 C 41 % 88 % 77 % 1026,5 hPa 0,0 l/m 1,6 km/h (1 Bft) O-SO 112 0,000 mm -3,0 C -1,3 C 3,2 km/h (1 Bft) 91,30 %
05.12.2019 06:43 23,2 C -1,3 C 8,3 C 41 % 88 % 77 % 1026,4 hPa 0,0 l/m 0,0 km/h (0 Bft) O 90 0,000 mm -3,0 C -1,3 C 1,6 km/h (1 Bft) 100,00 %
05.12.2019 06:42 23,2 C -1,3 C 8,3 C 41 % 87 % 77 % 1026,5 hPa 0,0 l/m 3,2 km/h (1 Bft) O 90 0,000 mm -3,2 C -1,3 C 6,4 km/h (2 Bft) 91,30 %
05.12.2019 06:41 23,2 C -1,3 C 8,3 C 41 % 87 % 77 % 1026,5 hPa 0,0 l/m 3,2 km/h (1 Bft) SO 135 0,000 mm -3,2 C -1,3 C 6,4 km/h (2 Bft) 95,65 %
05.12.2019 06:40 23,2 C -1,3 C 8,3 C 41 % 87 % 77 % 1026,5 hPa 0,0 l/m 3,2 km/h (1 Bft) O-SO 112 0,000 mm -3,2 C -1,3 C 6,4 km/h (2 Bft) 100,00 %
05.12.2019 06:39 23,2 C -1,3 C 8,3 C 41 % 87 % 77 % 1026,5 hPa 0,0 l/m 1,6 km/h (1 Bft) O-NO 67 0,000 mm -3,2 C -1,3 C 3,2 km/h (1 Bft) 100,00 %
05.12.2019 06:38 23,2 C -1,3 C 8,3 C 41 % 87 % 77 % 1026,6 hPa 0,0 l/m 3,2 km/h (1 Bft) O-NO 67 0,000 mm -3,2 C -1,3 C 6,4 km/h (2 Bft) 100,00 %
05.12.2019 06:37 23,2 C -1,3 C 8,3 C 41 % 87 % 77 % 1026,4 hPa 0,0 l/m 3,2 km/h (1 Bft) O-SO 112 0,000 mm -3,2 C -1,3 C 4,8 km/h (1 Bft) 100,00 %
05.12.2019 06:36 23,2 C -1,3 C 8,3 C 41 % 87 % 77 % 1026,5 hPa 0,0 l/m 3,2 km/h (1 Bft) NO 45 0,000 mm -3,2 C -1,3 C 9,7 km/h (2 Bft) 95,65 %
05.12.2019 06:35 23,2 C -1,3 C 8,3 C 41 % 87 % 77 % 1026,4 hPa 0,0 l/m 1,6 km/h (1 Bft) O-NO 67 0,000 mm -3,2 C -1,3 C 4,8 km/h (1 Bft) 95,65 %
05.12.2019 06:34 23,2 C -1,3 C 8,3 C 41 % 87 % 77 % 1026,4 hPa 0,0 l/m 1,6 km/h (1 Bft) O-NO 67 0,000 mm -3,2 C -1,3 C 3,2 km/h (1 Bft) 100,00 %
05.12.2019 06:33 23,2 C -1,3 C 8,3 C 41 % 87 % 77 % 1026,4 hPa 0,0 l/m 3,2 km/h (1 Bft) O 90 0,000 mm -3,2 C -1,3 C 3,2 km/h (1 Bft) 100,00 %
05.12.2019 06:32 23,2 C -1,3 C 8,3 C 41 % 87 % 77 % 1026,3 hPa 0,0 l/m 1,6 km/h (1 Bft) O 90 0,000 mm -3,2 C -1,3 C 4,8 km/h (1 Bft) 100,00 %
05.12.2019 06:31 23,2 C -1,3 C 8,3 C 41 % 87 % 77 % 1026,3 hPa 0,0 l/m 4,8 km/h (1 Bft) O 90 0,000 mm -3,2 C -3,0 C 6,4 km/h (2 Bft) 100,00 %
05.12.2019 06:30 23,2 C -1,3 C 8,3 C 41 % 87 % 77 % 1026,4 hPa 0,0 l/m 1,6 km/h (1 Bft) NO 45 0,000 mm -3,2 C -1,3 C 4,8 km/h (1 Bft) 100,00 %
05.12.2019 06:29 23,2 C -1,3 C 8,3 C 41 % 87 % 77 % 1026,3 hPa 0,0 l/m 3,2 km/h (1 Bft) O 90 0,000 mm -3,2 C -1,3 C 6,4 km/h (2 Bft) 100,00 %
05.12.2019 06:28 23,1 C -1,3 C 8,3 C 41 % 87 % 77 % 1026,2 hPa 0,0 l/m 4,8 km/h (1 Bft) O-SO 112 0,000 mm -3,2 C -3,0 C 6,4 km/h (2 Bft) 95,65 %
05.12.2019 06:27 23,1 C -1,3 C 8,3 C 41 % 87 % 77 % 1026,3 hPa 0,0 l/m 3,2 km/h (1 Bft) O-SO 112 0,000 mm -3,2 C -1,3 C 6,4 km/h (2 Bft) 100,00 %
05.12.2019 06:26 23,1 C -1,3 C 8,3 C 41 % 87 % 77 % 1026,3 hPa 0,0 l/m 3,2 km/h (1 Bft) O 90 0,000 mm -3,2 C -1,3 C 4,8 km/h (1 Bft) 95,65 %
05.12.2019 06:25 23,1 C -1,3 C 8,3 C 41 % 87 % 77 % 1026,3 hPa 0,0 l/m 6,4 km/h (2 Bft) O 90 0,000 mm -3,2 C -3,7 C 11,3 km/h (2 Bft) 100,00 %
05.12.2019 06:24 23,1 C -1,3 C 8,3 C 41 % 87 % 77 % 1026,3 hPa 0,0 l/m 4,8 km/h (1 Bft) O-NO 67 0,000 mm -3,2 C -3,0 C 9,7 km/h (2 Bft) 100,00 %
05.12.2019 06:23 23,1 C -1,3 C 8,3 C 41 % 87 % 76 % 1026,3 hPa 0,0 l/m 3,2 km/h (1 Bft) O 90 0,000 mm -3,2 C -1,3 C 8,0 km/h (2 Bft) 100,00 %
05.12.2019 06:22 23,1 C -1,3 C 8,3 C 41 % 87 % 76 % 1026,3 hPa 0,0 l/m 4,8 km/h (1 Bft) NO 45 0,000 mm -3,2 C -3,0 C 9,7 km/h (2 Bft) 100,00 %
05.12.2019 06:21 23,1 C -1,3 C 8,3 C 41 % 87 % 76 % 1026,3 hPa 0,0 l/m 3,2 km/h (1 Bft) O-NO 67 0,000 mm -3,2 C -1,3 C 4,8 km/h (1 Bft) 95,65 %
05.12.2019 06:20 23,1 C -1,3 C 8,3 C 41 % 87 % 77 % 1026,3 hPa 0,0 l/m 3,2 km/h (1 Bft) N-NO 22 0,000 mm -3,2 C -1,3 C 4,8 km/h (1 Bft) 95,65 %
05.12.2019 06:19 23,1 C -1,3 C 8,3 C 41 % 87 % 77 % 1026,3 hPa 0,0 l/m 4,8 km/h (1 Bft) O 90 0,000 mm -3,2 C -3,0 C 11,3 km/h (2 Bft) 95,65 %
05.12.2019 06:18 23,0 C -1,3 C 8,3 C 41 % 87 % 77 % 1026,4 hPa 0,0 l/m 6,4 km/h (2 Bft) O 90 0,000 mm -3,2 C -3,7 C 12,9 km/h (3 Bft) 100,00 %
05.12.2019 06:17 23,0 C -1,3 C 8,3 C 41 % 87 % 77 % 1026,3 hPa 0,0 l/m 8,0 km/h (2 Bft) O 90 0,000 mm -3,2 C -4,3 C 12,9 km/h (3 Bft) 100,00 %
05.12.2019 06:16 23,0 C -1,3 C 8,3 C 41 % 87 % 77 % 1026,3 hPa 0,0 l/m 3,2 km/h (1 Bft) O 90 0,000 mm -3,2 C -1,3 C 6,4 km/h (2 Bft) 100,00 %
05.12.2019 06:15 23,0 C -1,3 C 8,3 C 41 % 87 % 77 % 1026,3 hPa 0,0 l/m 3,2 km/h (1 Bft) O-NO 67 0,000 mm -3,2 C -1,3 C 6,4 km/h (2 Bft) 100,00 %
05.12.2019 06:14 22,9 C -1,3 C 8,3 C 41 % 87 % 76 % 1026,2 hPa 0,0 l/m 1,6 km/h (1 Bft) O 90 0,000 mm -3,2 C -1,3 C 1,6 km/h (1 Bft) 91,30 %
05.12.2019 06:13 22,9 C -1,3 C 8,3 C 41 % 87 % 77 % 1026,2 hPa 0,0 l/m 1,6 km/h (1 Bft) O 90 0,000 mm -3,2 C -1,3 C 4,8 km/h (1 Bft) 95,65 %
05.12.2019 06:12 22,9 C -1,3 C 8,3 C 41 % 87 % 77 % 1026,3 hPa 0,0 l/m 4,8 km/h (1 Bft) O 90 0,000 mm -3,2 C -3,0 C 12,9 km/h (3 Bft) 100,00 %
05.12.2019 06:11 22,9 C -1,3 C 8,3 C 41 % 87 % 77 % 1026,2 hPa 0,0 l/m 3,2 km/h (1 Bft) SO 135 0,000 mm -3,2 C -1,3 C 6,4 km/h (2 Bft) 100,00 %
05.12.2019 06:10 22,9 C -1,3 C 8,3 C 41 % 87 % 76 % 1026,3 hPa 0,0 l/m 3,2 km/h (1 Bft) O-NO 67 0,000 mm -3,2 C -1,3 C 4,8 km/h (1 Bft) 100,00 %
05.12.2019 06:09 22,9 C -1,3 C 8,3 C 41 % 87 % 77 % 1026,1 hPa 0,0 l/m 4,8 km/h (1 Bft) NO 45 0,000 mm -3,2 C -3,0 C 8,0 km/h (2 Bft) 100,00 %
05.12.2019 06:08 22,9 C -1,3 C 8,3 C 41 % 87 % 77 % 1026,2 hPa 0,0 l/m 6,4 km/h (2 Bft) O 90 0,000 mm -3,2 C -3,7 C 11,3 km/h (2 Bft) 91,30 %
05.12.2019 06:07 22,9 C -1,3 C 8,3 C 41 % 87 % 77 % 1026,2 hPa 0,0 l/m 4,8 km/h (1 Bft) O-NO 67 0,000 mm -3,2 C -3,0 C 8,0 km/h (2 Bft) 95,65 %
05.12.2019 06:06 22,9 C -1,3 C 8,3 C 41 % 87 % 77 % 1026,2 hPa 0,0 l/m 8,0 km/h (2 Bft) O 90 0,000 mm -3,2 C -4,3 C 12,9 km/h (3 Bft) 95,65 %
05.12.2019 06:05 23,0 C -1,3 C 8,3 C 41 % 87 % 77 % 1026,2 hPa 0,0 l/m 8,0 km/h (2 Bft) O-NO 67 0,000 mm -3,2 C -4,3 C 16,1 km/h (3 Bft) 95,65 %
05.12.2019 06:04 23,0 C -1,3 C 8,3 C 41 % 87 % 77 % 1026,1 hPa 0,0 l/m 11,3 km/h (2 Bft) O 90 0,000 mm -3,2 C -5,2 C 17,7 km/h (3 Bft) 100,00 %
05.12.2019 06:03 22,9 C -1,3 C 8,3 C 41 % 87 % 77 % 1026,1 hPa 0,0 l/m 8,0 km/h (2 Bft) O 90 0,000 mm -3,2 C -4,3 C 14,5 km/h (3 Bft) 100,00 %
05.12.2019 06:02 22,9 C -1,3 C 8,3 C 41 % 87 % 77 % 1026,2 hPa 0,0 l/m 8,0 km/h (2 Bft) O-SO 112 0,000 mm -3,2 C -4,3 C 12,9 km/h (3 Bft) 100,00 %
05.12.2019 06:01 22,9 C -1,3 C 8,3 C 41 % 87 % 77 % 1026,2 hPa 0,0 l/m 3,2 km/h (1 Bft) S-SO 157 0,000 mm -3,2 C -1,3 C 4,8 km/h (1 Bft) 100,00 %
05.12.2019 06:00 22,9 C -1,3 C 8,3 C 41 % 87 % 77 % 1026,1 hPa 0,0 l/m 4,8 km/h (1 Bft) O 90 0,000 mm -3,2 C -3,0 C 9,7 km/h (2 Bft) 95,65 %
05.12.2019 05:59 22,9 C -1,3 C 8,3 C 41 % 87 % 77 % 1026,1 hPa 0,0 l/m 9,7 km/h (2 Bft) O 90 0,000 mm -3,2 C -4,8 C 12,9 km/h (3 Bft) 100,00 %
05.12.2019 05:58 22,9 C -1,3 C 8,3 C 41 % 87 % 77 % 1026,1 hPa 0,0 l/m 8,0 km/h (2 Bft) O 90 0,000 mm -3,2 C -4,3 C 12,9 km/h (3 Bft) 100,00 %
05.12.2019 05:57 23,0 C -1,3 C 8,3 C 41 % 87 % 77 % 1026,1 hPa 0,0 l/m 11,3 km/h (2 Bft) O 90 0,000 mm -3,2 C -5,2 C 14,5 km/h (3 Bft) 100,00 %
05.12.2019 05:56 23,0 C -1,3 C 8,3 C 41 % 87 % 77 % 1026,1 hPa 0,0 l/m 9,7 km/h (2 Bft) O-SO 112 0,000 mm -3,2 C -4,8 C 12,9 km/h (3 Bft) 100,00 %
05.12.2019 05:55 23,0 C -1,3 C 8,3 C 41 % 87 % 77 % 1026,1 hPa 0,0 l/m 8,0 km/h (2 Bft) O 90 0,000 mm -3,2 C -4,3 C 14,5 km/h (3 Bft) 95,65 %
05.12.2019 05:54 22,9 C -1,3 C 8,3 C 41 % 87 % 77 % 1026,1 hPa 0,0 l/m 4,8 km/h (1 Bft) NO 45 0,000 mm -3,2 C -3,0 C 11,3 km/h (2 Bft) 100,00 %
05.12.2019 05:53 23,0 C -1,3 C 8,3 C 41 % 87 % 77 % 1026,0 hPa 0,0 l/m 4,8 km/h (1 Bft) O-SO 112 0,000 mm -3,2 C -3,0 C 6,4 km/h (2 Bft) 95,65 %
05.12.2019 05:52 23,0 C -1,3 C 8,3 C 41 % 87 % 77 % 1026,1 hPa 0,0 l/m 8,0 km/h (2 Bft) O-SO 112 0,000 mm -3,2 C -4,3 C 12,9 km/h (3 Bft) 100,00 %
05.12.2019 05:51 23,0 C -1,3 C 8,3 C 41 % 87 % 77 % 1026,1 hPa 0,0 l/m 6,4 km/h (2 Bft) O-SO 112 0,000 mm -3,2 C -3,7 C 11,3 km/h (2 Bft) 95,65 %
05.12.2019 05:50 23,0 C -1,3 C 8,3 C 41 % 87 % 77 % 1026,0 hPa 0,0 l/m 9,7 km/h (2 Bft) O-SO 112 0,000 mm -3,2 C -4,8 C 14,5 km/h (3 Bft) 100,00 %
05.12.2019 05:49 23,0 C -1,3 C 8,3 C 41 % 88 % 77 % 1025,9 hPa 0,0 l/m 4,8 km/h (1 Bft) O 90 0,000 mm -3,0 C -3,0 C 8,0 km/h (2 Bft) 100,00 %
05.12.2019 05:48 23,0 C -1,3 C 8,3 C 41 % 88 % 77 % 1026,0 hPa 0,0 l/m 4,8 km/h (1 Bft) O 90 0,000 mm -3,0 C -3,0 C 8,0 km/h (2 Bft) 91,30 %
05.12.2019 05:47 23,0 C -1,3 C 8,3 C 41 % 88 % 77 % 1026,0 hPa 0,0 l/m 6,4 km/h (2 Bft) O 90 0,000 mm -3,0 C -3,7 C 14,5 km/h (3 Bft) 100,00 %
05.12.2019 05:46 22,9 C -1,3 C 8,3 C 41 % 88 % 77 % 1026,0 hPa 0,0 l/m 3,2 km/h (1 Bft) O 90 0,000 mm -3,0 C -1,3 C 4,8 km/h (1 Bft) 91,30 %
05.12.2019 05:45 23,0 C -1,3 C 8,3 C 41 % 88 % 77 % 1026,0 hPa 0,0 l/m 4,8 km/h (1 Bft) O 90 0,000 mm -3,0 C -3,0 C 6,4 km/h (2 Bft) 95,65 %
05.12.2019 05:44 23,0 C -1,3 C 8,3 C 41 % 88 % 77 % 1025,9 hPa 0,0 l/m 6,4 km/h (2 Bft) O-SO 112 0,000 mm -3,0 C -3,7 C 11,3 km/h (2 Bft) 95,65 %
05.12.2019 05:43 23,0 C -1,3 C 8,3 C 41 % 87 % 77 % 1026,0 hPa 0,0 l/m 3,2 km/h (1 Bft) O 90 0,000 mm -3,2 C -1,3 C 4,8 km/h (1 Bft) 100,00 %
05.12.2019 05:42 23,0 C -1,3 C 8,3 C 41 % 87 % 76 % 1025,9 hPa 0,0 l/m 4,8 km/h (1 Bft) SO 135 0,000 mm -3,2 C -3,0 C 6,4 km/h (2 Bft) 91,30 %
05.12.2019 05:41 23,0 C -1,3 C 8,3 C 41 % 87 % 76 % 1025,9 hPa 0,0 l/m 3,2 km/h (1 Bft) O 90 0,000 mm -3,2 C -1,3 C 4,8 km/h (1 Bft) 100,00 %
05.12.2019 05:40 23,0 C -1,3 C 8,3 C 41 % 87 % 76 % 1025,9 hPa 0,0 l/m 6,4 km/h (2 Bft) SO 135 0,000 mm -3,2 C -3,7 C 9,7 km/h (2 Bft) 95,65 %
05.12.2019 05:39 23,0 C -1,3 C 8,3 C 41 % 87 % 76 % 1025,9 hPa 0,0 l/m 4,8 km/h (1 Bft) O 90 0,000 mm -3,2 C -3,0 C 6,4 km/h (2 Bft) 95,65 %
05.12.2019 05:38 23,0 C -1,3 C 8,3 C 41 % 87 % 77 % 1025,9 hPa 0,0 l/m 6,4 km/h (2 Bft) O 90 0,000 mm -3,2 C -3,7 C 11,3 km/h (2 Bft) 95,65 %
05.12.2019 05:37 23,0 C -1,3 C 8,3 C 41 % 87 % 76 % 1026,0 hPa 0,0 l/m 8,0 km/h (2 Bft) O 90 0,000 mm -3,2 C -4,3 C 11,3 km/h (2 Bft) 91,30 %
05.12.2019 05:36 23,0 C -1,3 C 8,3 C 41 % 87 % 76 % 1026,0 hPa 0,0 l/m 8,0 km/h (2 Bft) O 90 0,000 mm -3,2 C -4,3 C 12,9 km/h (3 Bft) 95,65 %
05.12.2019 05:35 23,0 C -1,3 C 8,3 C 41 % 87 % 76 % 1026,0 hPa 0,0 l/m 4,8 km/h (1 Bft) O 90 0,000 mm -3,2 C -3,0 C 6,4 km/h (2 Bft) 100,00 %
05.12.2019 05:34 23,0 C -1,3 C 8,3 C 41 % 87 % 76 % 1026,0 hPa 0,0 l/m 6,4 km/h (2 Bft) O-SO 112 0,000 mm -3,2 C -3,7 C 11,3 km/h (2 Bft) 95,65 %
05.12.2019 05:33 23,1 C -1,3 C 8,3 C 41 % 87 % 76 % 1026,0 hPa 0,0 l/m 4,8 km/h (1 Bft) O 90 0,000 mm -3,2 C -3,0 C 9,7 km/h (2 Bft) 100,00 %
05.12.2019 05:32 23,0 C -1,3 C 8,3 C 41 % 87 % 76 % 1026,0 hPa 0,0 l/m 3,2 km/h (1 Bft) O-SO 112 0,000 mm -3,2 C -1,3 C 6,4 km/h (2 Bft) 91,30 %
05.12.2019 05:31 23,0 C -1,3 C 8,3 C 41 % 87 % 76 % 1026,0 hPa 0,0 l/m 3,2 km/h (1 Bft) SO 135 0,000 mm -3,2 C -1,3 C 6,4 km/h (2 Bft) 95,65 %
05.12.2019 05:30 23,1 C -1,3 C 8,3 C 41 % 87 % 76 % 1026,1 hPa 0,0 l/m 4,8 km/h (1 Bft) NO 45 0,000 mm -3,2 C -3,0 C 9,7 km/h (2 Bft) 100,00 %
05.12.2019 05:29 23,1 C -1,3 C 8,3 C 41 % 87 % 76 % 1026,0 hPa 0,0 l/m 3,2 km/h (1 Bft) O-SO 112 0,000 mm -3,2 C -1,3 C 6,4 km/h (2 Bft) 91,30 %
05.12.2019 05:28 23,1 C -1,3 C 8,3 C 41 % 87 % 76 % 1026,1 hPa 0,0 l/m 4,8 km/h (1 Bft) SO 135 0,000 mm -3,2 C -3,0 C 12,9 km/h (3 Bft) 95,65 %
05.12.2019 05:27 23,0 C -1,3 C 8,3 C 41 % 87 % 76 % 1026,1 hPa 0,0 l/m 4,8 km/h (1 Bft) SO 135 0,000 mm -3,2 C -3,0 C 11,3 km/h (2 Bft) 91,30 %
05.12.2019 05:26 23,1 C -1,3 C 8,3 C 41 % 88 % 76 % 1026,1 hPa 0,0 l/m 3,2 km/h (1 Bft) O 90 0,000 mm -3,0 C -1,3 C 6,4 km/h (2 Bft) 100,00 %
05.12.2019 05:25 23,1 C -1,3 C 8,3 C 41 % 88 % 76 % 1026,1 hPa 0,0 l/m 6,4 km/h (2 Bft) O 90 0,000 mm -3,0 C -3,7 C 9,7 km/h (2 Bft) 82,61 %
05.12.2019 05:24 23,1 C -1,3 C 8,3 C 41 % 88 % 76 % 1026,0 hPa 0,0 l/m 4,8 km/h (1 Bft) O-NO 67 0,000 mm -3,0 C -3,0 C 8,0 km/h (2 Bft) 100,00 %
05.12.2019 05:23 23,1 C -1,3 C 8,3 C 41 % 88 % 76 % 1026,1 hPa 0,0 l/m 4,8 km/h (1 Bft) NO 45 0,000 mm -3,0 C -3,0 C 6,4 km/h (2 Bft) 86,96 %
05.12.2019 05:22 23,1 C -1,3 C 8,3 C 41 % 88 % 76 % 1026,0 hPa 0,0 l/m 6,4 km/h (2 Bft) O 90 0,000 mm -3,0 C -3,7 C 9,7 km/h (2 Bft) 95,65 %
05.12.2019 05:21 23,1 C -1,3 C 8,3 C 41 % 88 % 76 % 1026,0 hPa 0,0 l/m 4,8 km/h (1 Bft) O 90 0,000 mm -3,0 C -3,0 C 11,3 km/h (2 Bft) 95,65 %
05.12.2019 05:20 23,1 C -1,3 C 8,3 C 41 % 88 % 76 % 1026,0 hPa 0,0 l/m 3,2 km/h (1 Bft) SO 135 0,000 mm -3,0 C -1,3 C 8,0 km/h (2 Bft) 100,00 %
05.12.2019 05:19 23,1 C -1,2 C 8,3 C 41 % 88 % 76 % 1026,0 hPa 0,0 l/m 3,2 km/h (1 Bft) O-NO 67 0,000 mm -2,9 C -1,2 C 4,8 km/h (1 Bft) 86,96 %
05.12.2019 05:18 23,1 C -1,2 C 8,3 C 41 % 88 % 76 % 1026,1 hPa 0,0 l/m 3,2 km/h (1 Bft) O-SO 112 0,000 mm -2,9 C -1,2 C 6,4 km/h (2 Bft) 91,30 %
05.12.2019 05:17 23,1 C -1,2 C 8,3 C 41 % 87 % 76 % 1026,0 hPa 0,0 l/m 3,2 km/h (1 Bft) O 90 0,000 mm -3,1 C -1,2 C 9,7 km/h (2 Bft) 95,65 %
05.12.2019 05:16 23,1 C -1,2 C 8,3 C 41 % 87 % 76 % 1026,0 hPa 0,0 l/m 3,2 km/h (1 Bft) S-SO 157 0,000 mm -3,1 C -1,2 C 6,4 km/h (2 Bft) 91,30 %
05.12.2019 05:15 23,1 C -1,2 C 8,3 C 41 % 87 % 76 % 1026,1 hPa 0,0 l/m 4,8 km/h (1 Bft) O-NO 67 0,000 mm -3,1 C -2,9 C 6,4 km/h (2 Bft) 100,00 %
05.12.2019 05:14 23,1 C -1,2 C 8,3 C 41 % 87 % 76 % 1026,1 hPa 0,0 l/m 4,8 km/h (1 Bft) O-SO 112 0,000 mm -3,1 C -2,9 C 6,4 km/h (2 Bft) 91,30 %
05.12.2019 05:13 23,1 C -1,2 C 8,3 C 41 % 87 % 76 % 1026,0 hPa 0,0 l/m 4,8 km/h (1 Bft) O 90 0,000 mm -3,1 C -2,9 C 9,7 km/h (2 Bft) 100,00 %
05.12.2019 05:12 23,1 C -1,2 C 8,3 C 41 % 87 % 76 % 1026,0 hPa 0,0 l/m 4,8 km/h (1 Bft) O-NO 67 0,000 mm -3,1 C -2,9 C 6,4 km/h (2 Bft) 95,65 %
05.12.2019 05:11 23,1 C -1,2 C 8,3 C 41 % 87 % 76 % 1026,0 hPa 0,0 l/m 3,2 km/h (1 Bft) O-NO 67 0,000 mm -3,1 C -1,2 C 4,8 km/h (1 Bft) 95,65 %
05.12.2019 05:10 23,1 C -1,2 C 8,3 C 41 % 88 % 77 % 1026,0 hPa 0,0 l/m 3,2 km/h (1 Bft) O 90 0,000 mm -2,9 C -1,2 C 6,4 km/h (2 Bft) 95,65 %
05.12.2019 05:09 23,1 C -1,1 C 8,3 C 41 % 87 % 77 % 1025,9 hPa 0,0 l/m 3,2 km/h (1 Bft) O 90 0,000 mm -3,0 C -1,1 C 6,4 km/h (2 Bft) 95,65 %
05.12.2019 05:08 23,1 C -1,1 C 8,3 C 41 % 88 % 77 % 1026,0 hPa 0,0 l/m 3,2 km/h (1 Bft) O 90 0,000 mm -2,8 C -1,1 C 4,8 km/h (1 Bft) 95,65 %
05.12.2019 05:07 23,1 C -1,1 C 8,3 C 41 % 88 % 77 % 1026,1 hPa 0,0 l/m 3,2 km/h (1 Bft) O-NO 67 0,000 mm -2,8 C -1,1 C 6,4 km/h (2 Bft) 91,30 %
05.12.2019 05:06 23,1 C -1,1 C 8,3 C 41 % 88 % 77 % 1026,0 hPa 0,0 l/m 1,6 km/h (1 Bft) O-NO 67 0,000 mm -2,8 C -1,1 C 3,2 km/h (1 Bft) 95,65 %
05.12.2019 05:05 23,1 C -1,1 C 8,3 C 41 % 88 % 77 % 1026,0 hPa 0,0 l/m 1,6 km/h (1 Bft) O 90 0,000 mm -2,8 C -1,1 C 3,2 km/h (1 Bft) 95,65 %
05.12.2019 05:04 23,1 C -1,1 C 8,3 C 41 % 88 % 77 % 1026,1 hPa 0,0 l/m 3,2 km/h (1 Bft) NO 45 0,000 mm -2,8 C -1,1 C 6,4 km/h (2 Bft) 91,30 %
05.12.2019 05:03 23,1 C -1,1 C 8,3 C 41 % 88 % 77 % 1026,0 hPa 0,0 l/m 6,4 km/h (2 Bft) O 90 0,000 mm -2,8 C -3,5 C 8,0 km/h (2 Bft) 95,65 %
05.12.2019 05:02 23,1 C -1,1 C 8,3 C 41 % 88 % 77 % 1026,0 hPa 0,0 l/m 4,8 km/h (1 Bft) O-NO 67 0,000 mm -2,8 C -2,7 C 12,9 km/h (3 Bft) 100,00 %
05.12.2019 05:01 23,1 C -1,1 C 8,3 C 41 % 88 % 77 % 1026,0 hPa 0,0 l/m 4,8 km/h (1 Bft) O-NO 67 0,000 mm -2,8 C -2,7 C 11,3 km/h (2 Bft) 91,30 %
05.12.2019 05:00 23,1 C -1,1 C 8,3 C 41 % 88 % 77 % 1025,9 hPa 0,0 l/m 4,8 km/h (1 Bft) O 90 0,000 mm -2,8 C -2,7 C 8,0 km/h (2 Bft) 91,30 %
05.12.2019 04:59 23,1 C -1,1 C 8,3 C 41 % 88 % 77 % 1025,9 hPa 0,0 l/m 3,2 km/h (1 Bft) O-SO 112 0,000 mm -2,8 C -1,1 C 6,4 km/h (2 Bft) 100,00 %
05.12.2019 04:58 23,1 C -1,1 C 8,3 C 41 % 88 % 77 % 1026,0 hPa 0,0 l/m 4,8 km/h (1 Bft) O 90 0,000 mm -2,8 C -2,7 C 6,4 km/h (2 Bft) 95,65 %
05.12.2019 04:57 23,1 C -1,1 C 8,3 C 41 % 88 % 77 % 1025,9 hPa 0,0 l/m 3,2 km/h (1 Bft) O-SO 112 0,000 mm -2,8 C -1,1 C 4,8 km/h (1 Bft) 95,65 %
05.12.2019 04:56 23,1 C -1,1 C 8,3 C 41 % 88 % 77 % 1025,9 hPa 0,0 l/m 3,2 km/h (1 Bft) O 90 0,000 mm -2,8 C -1,1 C 6,4 km/h (2 Bft) 100,00 %
05.12.2019 04:55 23,1 C -1,0 C 8,3 C 41 % 88 % 77 % 1025,9 hPa 0,0 l/m 4,8 km/h (1 Bft) O 90 0,000 mm -2,7 C -2,6 C 6,4 km/h (2 Bft) 100,00 %
05.12.2019 04:54 23,1 C -1,1 C 8,3 C 41 % 88 % 77 % 1025,9 hPa 0,0 l/m 4,8 km/h (1 Bft) O-SO 112 0,000 mm -2,8 C -2,7 C 8,0 km/h (2 Bft) 100,00 %
05.12.2019 04:53 23,1 C -1,0 C 8,3 C 41 % 88 % 77 % 1025,8 hPa 0,0 l/m 6,4 km/h (2 Bft) O 90 0,000 mm -2,7 C -3,3 C 11,3 km/h (2 Bft) 100,00 %
05.12.2019 04:52 23,1 C -1,0 C 8,3 C 41 % 88 % 77 % 1025,9 hPa 0,0 l/m 3,2 km/h (1 Bft) SO 135 0,000 mm -2,7 C -1,0 C 6,4 km/h (2 Bft) 100,00 %
05.12.2019 04:51 23,1 C -1,0 C 8,3 C 41 % 88 % 77 % 1026,0 hPa 0,0 l/m 4,8 km/h (1 Bft) O-NO 67 0,000 mm -2,7 C -2,6 C 8,0 km/h (2 Bft) 100,00 %
05.12.2019 04:50 23,1 C -1,1 C 8,3 C 41 % 88 % 77 % 1026,0 hPa 0,0 l/m 4,8 km/h (1 Bft) O-SO 112 0,000 mm -2,8 C -2,7 C 8,0 km/h (2 Bft) 95,65 %
05.12.2019 04:49 23,1 C -1,1 C 8,3 C 41 % 88 % 77 % 1025,9 hPa 0,0 l/m 4,8 km/h (1 Bft) O 90 0,000 mm -2,8 C -2,7 C 6,4 km/h (2 Bft) 100,00 %
05.12.2019 04:48 23,1 C -1,0 C 8,3 C 41 % 88 % 77 % 1025,9 hPa 0,0 l/m 3,2 km/h (1 Bft) O 90 0,000 mm -2,7 C -1,0 C 4,8 km/h (1 Bft) 100,00 %
05.12.2019 04:47 23,1 C -1,0 C 8,3 C 41 % 88 % 77 % 1025,9 hPa 0,0 l/m 1,6 km/h (1 Bft) O 90 0,000 mm -2,7 C -1,0 C 3,2 km/h (1 Bft) 100,00 %
05.12.2019 04:46 23,1 C -1,0 C 8,3 C 41 % 88 % 77 % 1025,9 hPa 0,0 l/m 3,2 km/h (1 Bft) O-SO 112 0,000 mm -2,7 C -1,0 C 6,4 km/h (2 Bft) 100,00 %
05.12.2019 04:45 23,1 C -1,0 C 8,3 C 41 % 88 % 77 % 1025,9 hPa 0,0 l/m 1,6 km/h (1 Bft) O-SO 112 0,000 mm -2,7 C -1,0 C 3,2 km/h (1 Bft) 100,00 %
05.12.2019 04:44 23,1 C -1,1 C 8,3 C 41 % 88 % 77 % 1025,9 hPa 0,0 l/m 1,6 km/h (1 Bft) O-SO 112 0,000 mm -2,8 C -1,1 C 6,4 km/h (2 Bft) 100,00 %
05.12.2019 04:43 23,1 C -1,0 C 8,3 C 41 % 88 % 77 % 1025,9 hPa 0,0 l/m 4,8 km/h (1 Bft) O-SO 112 0,000 mm -2,7 C -2,6 C 6,4 km/h (2 Bft) 95,65 %
05.12.2019 04:42 23,2 C -1,0 C 8,3 C 41 % 88 % 77 % 1026,0 hPa 0,0 l/m 3,2 km/h (1 Bft) O-SO 112 0,000 mm -2,7 C -1,0 C 4,8 km/h (1 Bft) 95,65 %
05.12.2019 04:41 23,1 C -0,9 C 8,3 C 41 % 88 % 77 % 1025,9 hPa 0,0 l/m 3,2 km/h (1 Bft) O-NO 67 0,000 mm -2,6 C -0,9 C 6,4 km/h (2 Bft) 100,00 %
05.12.2019 04:40 23,1 C -1,0 C 8,3 C 41 % 88 % 77 % 1025,9 hPa 0,0 l/m 4,8 km/h (1 Bft) O 90 0,000 mm -2,7 C -2,6 C 8,0 km/h (2 Bft) 100,00 %
05.12.2019 04:39 23,1 C -1,0 C 8,3 C 41 % 88 % 77 % 1025,9 hPa 0,0 l/m 8,0 km/h (2 Bft) O 90 0,000 mm -2,7 C -3,9 C 11,3 km/h (2 Bft) 100,00 %
05.12.2019 04:38 23,1 C -1,0 C 8,3 C 41 % 88 % 77 % 1025,9 hPa 0,0 l/m 8,0 km/h (2 Bft) O 90 0,000 mm -2,7 C -3,9 C 12,9 km/h (3 Bft) 95,65 %
05.12.2019 04:37 23,1 C -1,0 C 8,3 C 41 % 88 % 77 % 1025,9 hPa 0,0 l/m 1,6 km/h (1 Bft) O-SO 112 0,000 mm -2,7 C -1,0 C 6,4 km/h (2 Bft) 100,00 %
05.12.2019 04:36 23,1 C -1,0 C 8,3 C 41 % 88 % 77 % 1025,9 hPa 0,0 l/m 1,6 km/h (1 Bft) O-SO 112 0,000 mm -2,7 C -1,0 C 3,2 km/h (1 Bft) 95,65 %
05.12.2019 04:35 23,1 C -1,0 C 8,3 C 41 % 88 % 77 % 1025,9 hPa 0,0 l/m 3,2 km/h (1 Bft) O-SO 112 0,000 mm -2,7 C -1,0 C 6,4 km/h (2 Bft) 95,65 %
05.12.2019 04:34 23,1 C -1,0 C 8,3 C 41 % 88 % 77 % 1025,8 hPa 0,0 l/m 4,8 km/h (1 Bft) O-SO 112 0,000 mm -2,7 C -2,6 C 6,4 km/h (2 Bft) 95,65 %
05.12.2019 04:33 23,1 C -0,9 C 8,3 C 41 % 88 % 77 % 1025,8 hPa 0,0 l/m 4,8 km/h (1 Bft) O-SO 112 0,000 mm -2,6 C -2,5 C 9,7 km/h (2 Bft) 100,00 %
05.12.2019 04:32 23,1 C -1,0 C 8,3 C 41 % 88 % 77 % 1025,8 hPa 0,0 l/m 3,2 km/h (1 Bft) O-SO 112 0,000 mm -2,7 C -1,0 C 4,8 km/h (1 Bft) 100,00 %
05.12.2019 04:31 23,1 C -1,0 C 8,3 C 41 % 88 % 77 % 1025,9 hPa 0,0 l/m 3,2 km/h (1 Bft) O 90 0,000 mm -2,7 C -1,0 C 4,8 km/h (1 Bft) 100,00 %
05.12.2019 04:30 23,2 C -0,9 C 8,3 C 41 % 88 % 77 % 1025,8 hPa 0,0 l/m 4,8 km/h (1 Bft) O-SO 112 0,000 mm -2,6 C -2,5 C 4,8 km/h (1 Bft) 95,65 %
05.12.2019 04:29 23,2 C -1,0 C 8,3 C 41 % 88 % 77 % 1025,9 hPa 0,0 l/m 4,8 km/h (1 Bft) O-SO 112 0,000 mm -2,7 C -2,6 C 8,0 km/h (2 Bft) 95,65 %
05.12.2019 04:28 23,1 C -1,0 C 8,3 C 41 % 88 % 77 % 1025,8 hPa 0,0 l/m 4,8 km/h (1 Bft) O-SO 112 0,000 mm -2,7 C -2,6 C 9,7 km/h (2 Bft) 100,00 %
05.12.2019 04:27 23,1 C -0,9 C 8,3 C 41 % 88 % 77 % 1025,8 hPa 0,0 l/m 4,8 km/h (1 Bft) O-SO 112 0,000 mm -2,6 C -2,5 C 6,4 km/h (2 Bft) 100,00 %
05.12.2019 04:26 23,1 C -0,9 C 8,3 C 41 % 88 % 77 % 1025,8 hPa 0,0 l/m 4,8 km/h (1 Bft) O-SO 112 0,000 mm -2,6 C -2,5 C 6,4 km/h (2 Bft) 95,65 %
05.12.2019 04:25 23,2 C -1,0 C 8,3 C 41 % 88 % 77 % 1025,8 hPa 0,0 l/m 4,8 km/h (1 Bft) O 90 0,000 mm -2,7 C -2,6 C 6,4 km/h (2 Bft) 100,00 %
05.12.2019 04:24 23,1 C -1,0 C 8,3 C 41 % 88 % 77 % 1025,8 hPa 0,0 l/m 4,8 km/h (1 Bft) O-SO 112 0,000 mm -2,7 C -2,6 C 6,4 km/h (2 Bft) 95,65 %
05.12.2019 04:23 23,1 C -1,0 C 8,3 C 41 % 88 % 77 % 1025,9 hPa 0,0 l/m 4,8 km/h (1 Bft) O-SO 112 0,000 mm -2,7 C -2,6 C 6,4 km/h (2 Bft) 100,00 %
05.12.2019 04:22 23,2 C -0,9 C 8,3 C 41 % 88 % 77 % 1025,8 hPa 0,0 l/m 4,8 km/h (1 Bft) O-SO 112 0,000 mm -2,6 C -2,5 C 6,4 km/h (2 Bft) 95,65 %
05.12.2019 04:21 23,2 C -0,9 C 8,3 C 41 % 88 % 77 % 1025,8 hPa 0,0 l/m 8,0 km/h (2 Bft) O-SO 112 0,000 mm -2,6 C -3,8 C 11,3 km/h (2 Bft) 91,30 %
05.12.2019 04:20 23,1 C -0,9 C 8,3 C 41 % 88 % 77 % 1025,8 hPa 0,0 l/m 6,4 km/h (2 Bft) O 90 0,000 mm -2,6 C -3,2 C 9,7 km/h (2 Bft) 100,00 %
05.12.2019 04:19 23,1 C -0,9 C 8,3 C 41 % 88 % 77 % 1025,8 hPa 0,0 l/m 4,8 km/h (1 Bft) O 90 0,000 mm -2,6 C -2,5 C 6,4 km/h (2 Bft) 100,00 %
05.12.2019 04:18 23,2 C -0,9 C 8,3 C 41 % 88 % 77 % 1025,7 hPa 0,0 l/m 4,8 km/h (1 Bft) O-SO 112 0,000 mm -2,6 C -2,5 C 6,4 km/h (2 Bft) 100,00 %
05.12.2019 04:17 23,2 C -0,9 C 8,3 C 41 % 88 % 77 % 1025,7 hPa 0,0 l/m 1,6 km/h (1 Bft) S-SO 157 0,000 mm -2,6 C -0,9 C 3,2 km/h (1 Bft) 100,00 %
05.12.2019 04:16 23,2 C -0,9 C 8,3 C 41 % 88 % 77 % 1025,7 hPa 0,0 l/m 3,2 km/h (1 Bft) O 90 0,000 mm -2,6 C -0,9 C 4,8 km/h (1 Bft) 100,00 %
05.12.2019 04:15 23,2 C -0,9 C 8,3 C 41 % 88 % 77 % 1025,7 hPa 0,0 l/m 3,2 km/h (1 Bft) O 90 0,000 mm -2,6 C -0,9 C 4,8 km/h (1 Bft) 95,65 %
05.12.2019 04:14 23,2 C -0,9 C 8,3 C 41 % 88 % 77 % 1025,7 hPa 0,0 l/m 1,6 km/h (1 Bft) SO 135 0,000 mm -2,6 C -0,9 C 4,8 km/h (1 Bft) 100,00 %
05.12.2019 04:13 23,2 C -0,9 C 8,3 C 41 % 88 % 77 % 1025,7 hPa 0,0 l/m 1,6 km/h (1 Bft) SO 135 0,000 mm -2,6 C -0,9 C 4,8 km/h (1 Bft) 100,00 %
05.12.2019 04:12 23,2 C -0,9 C 8,3 C 41 % 88 % 77 % 1025,6 hPa 0,0 l/m 3,2 km/h (1 Bft) SO 135 0,000 mm -2,6 C -0,9 C 4,8 km/h (1 Bft) 100,00 %
05.12.2019 04:11 23,2 C -0,9 C 8,3 C 41 % 88 % 77 % 1025,7 hPa 0,0 l/m 3,2 km/h (1 Bft) S-SO 157 0,000 mm -2,6 C -0,9 C 6,4 km/h (2 Bft) 100,00 %
05.12.2019 04:10 23,2 C -0,9 C 8,3 C 41 % 88 % 77 % 1025,6 hPa 0,0 l/m 1,6 km/h (1 Bft) O 90 0,000 mm -2,6 C -0,9 C 3,2 km/h (1 Bft) 100,00 %
05.12.2019 04:09 23,2 C -0,9 C 8,3 C 41 % 88 % 77 % 1025,6 hPa 0,0 l/m 1,6 km/h (1 Bft) O 90 0,000 mm -2,6 C -0,9 C 3,2 km/h (1 Bft) 95,65 %
05.12.2019 04:08 23,2 C -0,9 C 8,3 C 41 % 88 % 77 % 1025,6 hPa 0,0 l/m 1,6 km/h (1 Bft) O 90 0,000 mm -2,6 C -0,9 C 3,2 km/h (1 Bft) 95,65 %
05.12.2019 04:07 23,2 C -0,9 C 8,3 C 41 % 88 % 77 % 1025,6 hPa 0,0 l/m 3,2 km/h (1 Bft) O 90 0,000 mm -2,6 C -0,9 C 4,8 km/h (1 Bft) 95,65 %
05.12.2019 04:06 23,2 C -0,9 C 8,3 C 41 % 88 % 77 % 1025,6 hPa 0,0 l/m 3,2 km/h (1 Bft) O 90 0,000 mm -2,6 C -0,9 C 4,8 km/h (1 Bft) 100,00 %
05.12.2019 04:05 23,2 C -0,9 C 8,3 C 41 % 88 % 77 % 1025,6 hPa 0,0 l/m 4,8 km/h (1 Bft) O 90 0,000 mm -2,6 C -2,5 C 9,7 km/h (2 Bft) 100,00 %
05.12.2019 04:04 23,2 C -0,9 C 8,3 C 41 % 88 % 77 % 1025,7 hPa 0,0 l/m 4,8 km/h (1 Bft) O 90 0,000 mm -2,6 C -2,5 C 6,4 km/h (2 Bft) 91,30 %
05.12.2019 04:03 23,2 C -0,9 C 8,3 C 41 % 88 % 77 % 1025,6 hPa 0,0 l/m 3,2 km/h (1 Bft) O 90 0,000 mm -2,6 C -0,9 C 6,4 km/h (2 Bft) 100,00 %
05.12.2019 04:02 23,2 C -0,9 C 8,3 C 41 % 88 % 77 % 1025,6 hPa 0,0 l/m 1,6 km/h (1 Bft) O 90 0,000 mm -2,6 C -0,9 C 4,8 km/h (1 Bft) 95,65 %
05.12.2019 04:01 23,2 C -0,9 C 8,3 C 41 % 88 % 77 % 1025,5 hPa 0,0 l/m 4,8 km/h (1 Bft) O 90 0,000 mm -2,6 C -2,5 C 8,0 km/h (2 Bft) 95,65 %
05.12.2019 04:00 23,2 C -0,9 C 8,3 C 41 % 88 % 77 % 1025,6 hPa 0,0 l/m 4,8 km/h (1 Bft) O-SO 112 0,000 mm -2,6 C -2,5 C 8,0 km/h (2 Bft) 91,30 %
05.12.2019 03:59 23,2 C -0,9 C 8,3 C 41 % 88 % 77 % 1025,6 hPa 0,0 l/m 6,4 km/h (2 Bft) O-NO 67 0,000 mm -2,6 C -3,2 C 9,7 km/h (2 Bft) 95,65 %
05.12.2019 03:58 23,2 C -0,9 C 8,3 C 41 % 88 % 77 % 1025,6 hPa 0,0 l/m 4,8 km/h (1 Bft) O-SO 112 0,000 mm -2,6 C -2,5 C 6,4 km/h (2 Bft) 95,65 %
05.12.2019 03:57 23,2 C -0,9 C 8,3 C 41 % 88 % 77 % 1025,6 hPa 0,0 l/m 4,8 km/h (1 Bft) O 90 0,000 mm -2,6 C -2,5 C 9,7 km/h (2 Bft) 100,00 %
05.12.2019 03:56 23,2 C -0,9 C 8,3 C 41 % 88 % 77 % 1025,6 hPa 0,0 l/m 8,0 km/h (2 Bft) O 90 0,000 mm -2,6 C -3,8 C 11,3 km/h (2 Bft) 95,65 %
05.12.2019 03:55 23,2 C -0,9 C 8,3 C 41 % 88 % 77 % 1025,5 hPa 0,0 l/m 3,2 km/h (1 Bft) SO 135 0,000 mm -2,6 C -0,9 C 6,4 km/h (2 Bft) 95,65 %
05.12.2019 03:54 23,2 C -0,9 C 8,3 C 41 % 88 % 77 % 1025,6 hPa 0,0 l/m 3,2 km/h (1 Bft) O-SO 112 0,000 mm -2,6 C -0,9 C 4,8 km/h (1 Bft) 100,00 %
05.12.2019 03:53 23,2 C -0,9 C 8,3 C 41 % 88 % 77 % 1025,5 hPa 0,0 l/m 1,6 km/h (1 Bft) O-SO 112 0,000 mm -2,6 C -0,9 C 3,2 km/h (1 Bft) 91,30 %
05.12.2019 03:52 23,2 C -0,9 C 8,3 C 41 % 88 % 77 % 1025,7 hPa 0,0 l/m 1,6 km/h (1 Bft) O-SO 112 0,000 mm -2,6 C -0,9 C 3,2 km/h (1 Bft) 100,00 %
05.12.2019 03:51 23,2 C -0,9 C 8,3 C 41 % 88 % 77 % 1025,6 hPa 0,0 l/m 3,2 km/h (1 Bft) SO 135 0,000 mm -2,6 C -0,9 C 8,0 km/h (2 Bft) 95,65 %
05.12.2019 03:50 23,2 C -0,9 C 8,3 C 41 % 88 % 77 % 1025,5 hPa 0,0 l/m 3,2 km/h (1 Bft) O 90 0,000 mm -2,6 C -0,9 C 3,2 km/h (1 Bft) 95,65 %
05.12.2019 03:49 23,2 C -0,9 C 8,9 C 41 % 88 % 77 % 1025,6 hPa 0,0 l/m 3,2 km/h (1 Bft) O 90 0,000 mm -2,6 C -0,9 C 4,8 km/h (1 Bft) 95,65 %
05.12.2019 03:48 23,2 C -0,9 C 8,3 C 41 % 88 % 77 % 1025,7 hPa 0,0 l/m 4,8 km/h (1 Bft) O-SO 112 0,000 mm -2,6 C -2,5 C 6,4 km/h (2 Bft) 100,00 %
05.12.2019 03:47 23,2 C -0,9 C 8,3 C 41 % 88 % 77 % 1025,6 hPa 0,0 l/m 3,2 km/h (1 Bft) O 90 0,000 mm -2,6 C -0,9 C 4,8 km/h (1 Bft) 95,65 %
05.12.2019 03:46 23,2 C -0,9 C 8,3 C 41 % 88 % 77 % 1025,5 hPa 0,0 l/m 3,2 km/h (1 Bft) O-NO 67 0,000 mm -2,6 C -0,9 C 4,8 km/h (1 Bft) 95,65 %
05.12.2019 03:45 23,2 C -0,9 C 8,3 C 41 % 88 % 77 % 1025,6 hPa 0,0 l/m 1,6 km/h (1 Bft) S 180 0,000 mm -2,6 C -0,9 C 3,2 km/h (1 Bft) 95,65 %
05.12.2019 03:44 23,2 C -0,9 C 8,9 C 41 % 88 % 77 % 1025,5 hPa 0,0 l/m 1,6 km/h (1 Bft) S 180 0,000 mm -2,6 C -0,9 C 4,8 km/h (1 Bft) 100,00 %
05.12.2019 03:43 23,2 C -0,9 C 8,3 C 41 % 88 % 77 % 1025,5 hPa 0,0 l/m 1,6 km/h (1 Bft) O-SO 112 0,000 mm -2,6 C -0,9 C 3,2 km/h (1 Bft) 95,65 %
05.12.2019 03:42 23,2 C -0,9 C 8,9 C 41 % 88 % 77 % 1025,6 hPa 0,0 l/m 3,2 km/h (1 Bft) O-SO 112 0,000 mm -2,6 C -0,9 C 4,8 km/h (1 Bft) 95,65 %
05.12.2019 03:41 23,2 C -0,9 C 8,9 C 41 % 88 % 77 % 1025,7 hPa 0,0 l/m 4,8 km/h (1 Bft) O 90 0,000 mm -2,6 C -2,5 C 6,4 km/h (2 Bft) 91,30 %
05.12.2019 03:40 23,2 C -0,9 C 8,9 C 41 % 88 % 77 % 1025,5 hPa 0,0 l/m 3,2 km/h (1 Bft) O-SO 112 0,000 mm -2,6 C -0,9 C 4,8 km/h (1 Bft) 95,65 %
05.12.2019 03:39 23,2 C -0,9 C 8,9 C 41 % 88 % 77 % 1025,6 hPa 0,0 l/m 3,2 km/h (1 Bft) O-SO 112 0,000 mm -2,6 C -0,9 C 4,8 km/h (1 Bft) 91,30 %
05.12.2019 03:38 23,2 C -0,9 C 8,9 C 41 % 88 % 76 % 1025,5 hPa 0,0 l/m 3,2 km/h (1 Bft) O-SO 112 0,000 mm -2,6 C -0,9 C 4,8 km/h (1 Bft) 95,65 %
05.12.2019 03:37 23,3 C -0,9 C 8,9 C 41 % 88 % 76 % 1025,4 hPa 0,0 l/m 4,8 km/h (1 Bft) O-SO 112 0,000 mm -2,6 C -2,5 C 4,8 km/h (1 Bft) 91,30 %
05.12.2019 03:36 23,2 C -0,9 C 8,9 C 41 % 88 % 76 % 1025,4 hPa 0,0 l/m 4,8 km/h (1 Bft) O-SO 112 0,000 mm -2,6 C -2,5 C 9,7 km/h (2 Bft) 95,65 %
05.12.2019 03:35 23,2 C -0,9 C 8,9 C 41 % 88 % 76 % 1025,4 hPa 0,0 l/m 6,4 km/h (2 Bft) O-SO 112 0,000 mm -2,6 C -3,2 C 9,7 km/h (2 Bft) 95,65 %
05.12.2019 03:34 23,2 C -0,9 C 8,9 C 41 % 88 % 76 % 1025,3 hPa 0,0 l/m 4,8 km/h (1 Bft) O-SO 112 0,000 mm -2,6 C -2,5 C 9,7 km/h (2 Bft) 91,30 %
05.12.2019 03:33 23,2 C -0,9 C 8,9 C 41 % 88 % 76 % 1025,4 hPa 0,0 l/m 4,8 km/h (1 Bft) O-SO 112 0,000 mm -2,6 C -2,5 C 6,4 km/h (2 Bft) 100,00 %
05.12.2019 03:32 23,2 C -0,9 C 8,9 C 41 % 88 % 76 % 1025,4 hPa 0,0 l/m 4,8 km/h (1 Bft) O-SO 112 0,000 mm -2,6 C -2,5 C 6,4 km/h (2 Bft) 91,30 %
05.12.2019 03:31 23,2 C -0,9 C 8,9 C 41 % 88 % 76 % 1025,3 hPa 0,0 l/m 3,2 km/h (1 Bft) O-SO 112 0,000 mm -2,6 C -0,9 C 6,4 km/h (2 Bft) 100,00 %
05.12.2019 03:30 23,2 C -0,8 C 8,9 C 41 % 88 % 76 % 1025,4 hPa 0,0 l/m 1,6 km/h (1 Bft) O-SO 112 0,000 mm -2,5 C -0,8 C 4,8 km/h (1 Bft) 95,65 %
05.12.2019 03:29 23,2 C -0,9 C 8,9 C 41 % 88 % 76 % 1025,3 hPa 0,0 l/m 3,2 km/h (1 Bft) O-SO 112 0,000 mm -2,6 C -0,9 C 4,8 km/h (1 Bft) 100,00 %
05.12.2019 03:28 23,2 C -0,9 C 8,9 C 41 % 88 % 76 % 1025,3 hPa 0,0 l/m 4,8 km/h (1 Bft) O-SO 112 0,000 mm -2,6 C -2,5 C 6,4 km/h (2 Bft) 95,65 %
05.12.2019 03:27 23,2 C -0,9 C 8,9 C 41 % 88 % 76 % 1025,3 hPa 0,0 l/m 3,2 km/h (1 Bft) O 90 0,000 mm -2,6 C -0,9 C 4,8 km/h (1 Bft) 95,65 %
05.12.2019 03:26 23,2 C -0,8 C 8,9 C 41 % 88 % 76 % 1025,3 hPa 0,0 l/m 1,6 km/h (1 Bft) O 90 0,000 mm -2,5 C -0,8 C 3,2 km/h (1 Bft) 95,65 %
05.12.2019 03:25 23,2 C -0,8 C 8,9 C 41 % 88 % 76 % 1025,4 hPa 0,0 l/m 3,2 km/h (1 Bft) O 90 0,000 mm -2,5 C -0,8 C 3,2 km/h (1 Bft) 91,30 %
05.12.2019 03:24 23,3 C -0,8 C 8,9 C 41 % 88 % 76 % 1025,4 hPa 0,0 l/m 3,2 km/h (1 Bft) O 90 0,000 mm -2,5 C -0,8 C 4,8 km/h (1 Bft) 95,65 %
05.12.2019 03:23 23,2 C -0,8 C 8,9 C 41 % 88 % 76 % 1025,4 hPa 0,0 l/m 4,8 km/h (1 Bft) O-SO 112 0,000 mm -2,5 C -2,4 C 8,0 km/h (2 Bft) 95,65 %
05.12.2019 03:22 23,3 C -0,8 C 8,9 C 41 % 88 % 76 % 1025,4 hPa 0,0 l/m 6,4 km/h (2 Bft) O-SO 112 0,000 mm -2,5 C -3,1 C 11,3 km/h (2 Bft) 100,00 %
05.12.2019 03:21 23,3 C -0,8 C 8,9 C 41 % 88 % 76 % 1025,4 hPa 0,0 l/m 8,0 km/h (2 Bft) O-SO 112 0,000 mm -2,5 C -3,7 C 12,9 km/h (3 Bft) 95,65 %
05.12.2019 03:20 23,2 C -0,8 C 8,9 C 41 % 88 % 76 % 1025,4 hPa 0,0 l/m 6,4 km/h (2 Bft) O-SO 112 0,000 mm -2,5 C -3,1 C 9,7 km/h (2 Bft) 100,00 %
05.12.2019 03:19 23,3 C -0,8 C 8,9 C 41 % 88 % 76 % 1025,4 hPa 0,0 l/m 4,8 km/h (1 Bft) O 90 0,000 mm -2,5 C -2,4 C 9,7 km/h (2 Bft) 95,65 %
05.12.2019 03:18 23,3 C -0,8 C 8,9 C 41 % 88 % 76 % 1025,3 hPa 0,0 l/m 4,8 km/h (1 Bft) O-SO 112 0,000 mm -2,5 C -2,4 C 12,9 km/h (3 Bft) 95,65 %
05.12.2019 03:17 23,2 C -0,8 C 8,9 C 41 % 88 % 76 % 1025,4 hPa 0,0 l/m 4,8 km/h (1 Bft) O-SO 112 0,000 mm -2,5 C -2,4 C 8,0 km/h (2 Bft) 91,30 %
05.12.2019 03:16 23,3 C -0,8 C 8,9 C 41 % 88 % 76 % 1025,4 hPa 0,0 l/m 4,8 km/h (1 Bft) O-NO 67 0,000 mm -2,5 C -2,4 C 6,4 km/h (2 Bft) 95,65 %
05.12.2019 03:15 23,3 C -0,8 C 8,9 C 41 % 88 % 76 % 1025,3 hPa 0,0 l/m 1,6 km/h (1 Bft) O-NO 67 0,000 mm -2,5 C -0,8 C 3,2 km/h (1 Bft) 100,00 %
05.12.2019 03:14 23,3 C -0,8 C 8,9 C 41 % 88 % 76 % 1025,3 hPa 0,0 l/m 3,2 km/h (1 Bft) O-NO 67 0,000 mm -2,5 C -0,8 C 6,4 km/h (2 Bft) 95,65 %
05.12.2019 03:13 23,3 C -0,8 C 8,9 C 41 % 88 % 76 % 1025,3 hPa 0,0 l/m 3,2 km/h (1 Bft) O 90 0,000 mm -2,5 C -0,8 C 4,8 km/h (1 Bft) 100,00 %
05.12.2019 03:12 23,3 C -0,8 C 8,9 C 41 % 88 % 76 % 1025,3 hPa 0,0 l/m 6,4 km/h (2 Bft) O 90 0,000 mm -2,5 C -3,1 C 11,3 km/h (2 Bft) 100,00 %
05.12.2019 03:11 23,3 C -0,7 C 8,9 C 41 % 88 % 77 % 1025,3 hPa 0,0 l/m 8,0 km/h (2 Bft) O 90 0,000 mm -2,4 C -3,6 C 12,9 km/h (3 Bft) 95,65 %
05.12.2019 03:10 23,3 C -0,7 C 8,9 C 41 % 88 % 77 % 1025,2 hPa 0,0 l/m 3,2 km/h (1 Bft) O-NO 67 0,000 mm -2,4 C -0,7 C 3,2 km/h (1 Bft) 100,00 %
05.12.2019 03:09 23,3 C -0,7 C 8,9 C 41 % 88 % 77 % 1025,2 hPa 0,0 l/m 4,8 km/h (1 Bft) O-NO 67 0,000 mm -2,4 C -2,3 C 9,7 km/h (2 Bft) 95,65 %
05.12.2019 03:08 23,3 C -0,7 C 8,9 C 41 % 88 % 77 % 1025,2 hPa 0,0 l/m 6,4 km/h (2 Bft) O 90 0,000 mm -2,4 C -3,0 C 9,7 km/h (2 Bft) 100,00 %
05.12.2019 03:07 23,3 C -0,7 C 8,9 C 41 % 88 % 77 % 1025,3 hPa 0,0 l/m 6,4 km/h (2 Bft) O 90 0,000 mm -2,4 C -3,0 C 8,0 km/h (2 Bft) 100,00 %
05.12.2019 03:06 23,3 C -0,7 C 8,9 C 41 % 88 % 77 % 1025,3 hPa 0,0 l/m 4,8 km/h (1 Bft) O 90 0,000 mm -2,4 C -2,3 C 6,4 km/h (2 Bft) 100,00 %
05.12.2019 03:03 23,3 C -0,7 C 8,9 C 41 % 88 % 77 % 1025,3 hPa 0,0 l/m 6,4 km/h (2 Bft) O-SO 112 0,000 mm -2,4 C -3,0 C 12,9 km/h (3 Bft) 100,00 %
05.12.2019 03:02 23,3 C -0,7 C 8,9 C 41 % 88 % 77 % 1025,2 hPa 0,0 l/m 4,8 km/h (1 Bft) O-NO 67 0,000 mm -2,4 C -2,3 C 9,7 km/h (2 Bft) 100,00 %
05.12.2019 03:01 23,3 C -0,7 C 8,9 C 41 % 88 % 77 % 1025,1 hPa 0,0 l/m 3,2 km/h (1 Bft) SO 135 0,000 mm -2,4 C -0,7 C 4,8 km/h (1 Bft) 100,00 %
05.12.2019 03:00 23,3 C -0,7 C 8,9 C 41 % 88 % 77 % 1025,2 hPa 0,0 l/m 3,2 km/h (1 Bft) O 90 0,000 mm -2,4 C -0,7 C 4,8 km/h (1 Bft) 100,00 %
05.12.2019 02:59 23,3 C -0,7 C 8,9 C 41 % 88 % 77 % 1025,2 hPa 0,0 l/m 3,2 km/h (1 Bft) O-NO 67 0,000 mm -2,4 C -0,7 C 4,8 km/h (1 Bft) 100,00 %
05.12.2019 02:58 23,3 C -0,7 C 8,9 C 41 % 88 % 77 % 1025,3 hPa 0,0 l/m 4,8 km/h (1 Bft) O-NO 67 0,000 mm -2,4 C -2,3 C 8,0 km/h (2 Bft) 100,00 %
05.12.2019 02:57 23,3 C -0,7 C 8,9 C 41 % 88 % 77 % 1025,3 hPa 0,0 l/m 3,2 km/h (1 Bft) SO 135 0,000 mm -2,4 C -0,7 C 4,8 km/h (1 Bft) 95,65 %
05.12.2019 02:56 23,3 C -0,7 C 8,9 C 41 % 88 % 77 % 1025,3 hPa 0,0 l/m 3,2 km/h (1 Bft) SO 135 0,000 mm -2,4 C -0,7 C 4,8 km/h (1 Bft) 100,00 %
05.12.2019 02:55 23,3 C -0,7 C 8,9 C 41 % 88 % 77 % 1025,4 hPa 0,0 l/m 4,8 km/h (1 Bft) SO 135 0,000 mm -2,4 C -2,3 C 11,3 km/h (2 Bft) 100,00 %
05.12.2019 02:54 23,3 C -0,7 C 8,9 C 41 % 88 % 77 % 1025,4 hPa 0,0 l/m 6,4 km/h (2 Bft) O 90 0,000 mm -2,4 C -3,0 C 9,7 km/h (2 Bft) 100,00 %
05.12.2019 02:53 23,3 C -0,7 C 8,9 C 41 % 88 % 77 % 1025,4 hPa 0,0 l/m 6,4 km/h (2 Bft) O 90 0,000 mm -2,4 C -3,0 C 9,7 km/h (2 Bft) 100,00 %
05.12.2019 02:52 23,3 C -0,7 C 8,9 C 41 % 88 % 78 % 1025,4 hPa 0,0 l/m 3,2 km/h (1 Bft) O 90 0,000 mm -2,4 C -0,7 C 4,8 km/h (1 Bft) 100,00 %
05.12.2019 02:51 23,3 C -0,7 C 8,9 C 41 % 88 % 78 % 1025,4 hPa 0,0 l/m 4,8 km/h (1 Bft) O-SO 112 0,000 mm -2,4 C -2,3 C 8,0 km/h (2 Bft) 100,00 %
05.12.2019 02:50 23,3 C -0,7 C 8,9 C 41 % 88 % 78 % 1025,3 hPa 0,0 l/m 3,2 km/h (1 Bft) O-SO 112 0,000 mm -2,4 C -0,7 C 4,8 km/h (1 Bft) 95,65 %
05.12.2019 02:49 23,3 C -0,7 C 8,9 C 41 % 88 % 78 % 1025,3 hPa 0,0 l/m 9,7 km/h (2 Bft) O-SO 112 0,000 mm -2,4 C -4,1 C 16,1 km/h (3 Bft) 100,00 %
05.12.2019 02:48 23,3 C -0,7 C 8,9 C 41 % 88 % 78 % 1025,2 hPa 0,0 l/m 9,7 km/h (2 Bft) O-NO 67 0,000 mm -2,4 C -4,1 C 16,1 km/h (3 Bft) 95,65 %
05.12.2019 02:47 23,3 C -0,7 C 8,9 C 41 % 89 % 78 % 1025,3 hPa 0,0 l/m 8,0 km/h (2 Bft) O 90 0,000 mm -2,3 C -3,6 C 11,3 km/h (2 Bft) 100,00 %
05.12.2019 02:46 23,3 C -0,7 C 8,9 C 41 % 89 % 78 % 1025,2 hPa 0,0 l/m 3,2 km/h (1 Bft) O-SO 112 0,000 mm -2,3 C -0,7 C 6,4 km/h (2 Bft) 100,00 %
05.12.2019 02:45 23,3 C -0,7 C 8,9 C 41 % 89 % 78 % 1025,2 hPa 0,0 l/m 1,6 km/h (1 Bft) O-SO 112 0,000 mm -2,3 C -0,7 C 4,8 km/h (1 Bft) 100,00 %
05.12.2019 02:44 23,3 C -0,7 C 8,9 C 41 % 89 % 78 % 1025,2 hPa 0,0 l/m 4,8 km/h (1 Bft) O-SO 112 0,000 mm -2,3 C -2,3 C 4,8 km/h (1 Bft) 95,65 %
05.12.2019 02:43 23,3 C -0,7 C 8,9 C 41 % 89 % 78 % 1025,2 hPa 0,0 l/m 4,8 km/h (1 Bft) O 90 0,000 mm -2,3 C -2,3 C 6,4 km/h (2 Bft) 91,30 %
05.12.2019 02:42 23,3 C -0,7 C 8,9 C 41 % 89 % 78 % 1025,3 hPa 0,0 l/m 8,0 km/h (2 Bft) O 90 0,000 mm -2,3 C -3,6 C 11,3 km/h (2 Bft) 100,00 %
05.12.2019 02:41 23,3 C -0,7 C 8,9 C 41 % 89 % 78 % 1025,3 hPa 0,0 l/m 6,4 km/h (2 Bft) SO 135 0,000 mm -2,3 C -3,0 C 11,3 km/h (2 Bft) 100,00 %
05.12.2019 02:40 23,3 C -0,7 C 8,9 C 41 % 89 % 78 % 1025,3 hPa 0,0 l/m 4,8 km/h (1 Bft) O 90 0,000 mm -2,3 C -2,3 C 9,7 km/h (2 Bft) 100,00 %
05.12.2019 02:39 23,3 C -0,7 C 8,9 C 41 % 89 % 78 % 1025,3 hPa 0,0 l/m 3,2 km/h (1 Bft) O-SO 112 0,000 mm -2,3 C -0,7 C 6,4 km/h (2 Bft) 100,00 %
05.12.2019 02:38 23,3 C -0,7 C 8,9 C 41 % 89 % 78 % 1025,3 hPa 0,0 l/m 1,6 km/h (1 Bft) O 90 0,000 mm -2,3 C -0,7 C 4,8 km/h (1 Bft) 100,00 %
05.12.2019 02:37 23,3 C -0,7 C 8,9 C 41 % 89 % 78 % 1025,3 hPa 0,0 l/m 3,2 km/h (1 Bft) O 90 0,000 mm -2,3 C -0,7 C 4,8 km/h (1 Bft) 100,00 %
05.12.2019 02:36 23,3 C -0,7 C 8,9 C 41 % 89 % 78 % 1025,3 hPa 0,0 l/m 6,4 km/h (2 Bft) O 90 0,000 mm -2,3 C -3,0 C 9,7 km/h (2 Bft) 95,65 %
05.12.2019 02:35 23,3 C -0,7 C 8,9 C 41 % 89 % 78 % 1025,3 hPa 0,0 l/m 3,2 km/h (1 Bft) O-SO 112 0,000 mm -2,3 C -0,7 C 4,8 km/h (1 Bft) 95,65 %
05.12.2019 02:34 23,3 C -0,7 C 8,9 C 41 % 89 % 78 % 1025,3 hPa 0,0 l/m 1,6 km/h (1 Bft) O-SO 112 0,000 mm -2,3 C -0,7 C 3,2 km/h (1 Bft) 100,00 %
05.12.2019 02:33 23,3 C -0,7 C 8,9 C 41 % 89 % 78 % 1025,3 hPa 0,0 l/m 3,2 km/h (1 Bft) O 90 0,000 mm -2,3 C -0,7 C 4,8 km/h (1 Bft) 100,00 %
05.12.2019 02:32 23,3 C -0,7 C 8,9 C 41 % 89 % 78 % 1025,3 hPa 0,0 l/m 3,2 km/h (1 Bft) O-NO 67 0,000 mm -2,3 C -0,7 C 4,8 km/h (1 Bft) 100,00 %
05.12.2019 02:31 23,3 C -0,7 C 8,3 C 41 % 89 % 78 % 1025,3 hPa 0,0 l/m 1,6 km/h (1 Bft) S-SO 157 0,000 mm -2,3 C -0,7 C 4,8 km/h (1 Bft) 100,00 %
05.12.2019 02:30 23,4 C -0,7 C 8,3 C 41 % 88 % 78 % 1025,3 hPa 0,0 l/m 0,0 km/h (0 Bft) S-SO 157 0,000 mm -2,4 C -0,7 C 1,6 km/h (1 Bft) 100,00 %
05.12.2019 02:29 23,4 C -0,7 C 8,3 C 41 % 88 % 78 % 1025,2 hPa 0,0 l/m 0,0 km/h (0 Bft) S-SO 157 0,000 mm -2,4 C -0,7 C 1,6 km/h (1 Bft) 95,65 %
05.12.2019 02:28 23,4 C -0,7 C 8,3 C 41 % 88 % 78 % 1025,3 hPa 0,0 l/m 1,6 km/h (1 Bft) S-SO 157 0,000 mm -2,4 C -0,7 C 1,6 km/h (1 Bft) 100,00 %
05.12.2019 02:27 23,3 C -0,7 C 8,9 C 41 % 88 % 78 % 1025,3 hPa 0,0 l/m 0,0 km/h (0 Bft) S-SO 157 0,000 mm -2,4 C -0,7 C 3,2 km/h (1 Bft) 100,00 %
05.12.2019 02:26 23,3 C -0,7 C 8,3 C 41 % 88 % 78 % 1025,2 hPa 0,0 l/m 0,0 km/h (0 Bft) S-SO 157 0,000 mm -2,4 C -0,7 C 1,6 km/h (1 Bft) 100,00 %
05.12.2019 02:25 23,3 C -0,7 C 8,3 C 41 % 88 % 78 % 1025,3 hPa 0,0 l/m 1,6 km/h (1 Bft) S-SO 157 0,000 mm -2,4 C -0,7 C 3,2 km/h (1 Bft) 100,00 %
05.12.2019 02:24 23,4 C -0,7 C 8,3 C 41 % 88 % 78 % 1025,3 hPa 0,0 l/m 1,6 km/h (1 Bft) S-SO 157 0,000 mm -2,4 C -0,7 C 3,2 km/h (1 Bft) 100,00 %
05.12.2019 02:23 23,3 C -0,7 C 8,3 C 41 % 88 % 78 % 1025,3 hPa 0,0 l/m 3,2 km/h (1 Bft) O-SO 112 0,000 mm -2,4 C -0,7 C 6,4 km/h (2 Bft) 100,00 %
05.12.2019 02:22 23,4 C -0,7 C 8,3 C 41 % 88 % 78 % 1025,3 hPa 0,0 l/m 3,2 km/h (1 Bft) O-SO 112 0,000 mm -2,4 C -0,7 C 4,8 km/h (1 Bft) 91,30 %
05.12.2019 02:21 23,4 C -0,7 C 8,3 C 41 % 88 % 78 % 1025,2 hPa 0,0 l/m 1,6 km/h (1 Bft) O 90 0,000 mm -2,4 C -0,7 C 3,2 km/h (1 Bft) 100,00 %
05.12.2019 02:20 23,4 C -0,7 C 8,3 C 41 % 88 % 78 % 1025,2 hPa 0,0 l/m 3,2 km/h (1 Bft) O 90 0,000 mm -2,4 C -0,7 C 4,8 km/h (1 Bft) 100,00 %
05.12.2019 02:19 23,4 C -0,7 C 8,3 C 41 % 88 % 78 % 1025,2 hPa 0,0 l/m 3,2 km/h (1 Bft) O 90 0,000 mm -2,4 C -0,7 C 4,8 km/h (1 Bft) 100,00 %
05.12.2019 02:18 23,4 C -0,7 C 8,3 C 41 % 88 % 78 % 1025,2 hPa 0,0 l/m 3,2 km/h (1 Bft) O 90 0,000 mm -2,4 C -0,7 C 4,8 km/h (1 Bft) 100,00 %
05.12.2019 02:17 23,4 C -0,7 C 8,3 C 41 % 88 % 78 % 1025,2 hPa 0,0 l/m 1,6 km/h (1 Bft) O-NO 67 0,000 mm -2,4 C -0,7 C 4,8 km/h (1 Bft) 91,30 %
05.12.2019 02:16 23,4 C -0,7 C 8,3 C 41 % 88 % 78 % 1025,1 hPa 0,0 l/m 1,6 km/h (1 Bft) O-SO 112 0,000 mm -2,4 C -0,7 C 3,2 km/h (1 Bft) 100,00 %
05.12.2019 02:15 23,4 C -0,7 C 8,3 C 41 % 88 % 78 % 1025,1 hPa 0,0 l/m 3,2 km/h (1 Bft) O-SO 112 0,000 mm -2,4 C -0,7 C 6,4 km/h (2 Bft) 91,30 %
05.12.2019 02:14 23,4 C -0,7 C 8,3 C 41 % 88 % 78 % 1025,1 hPa 0,0 l/m 4,8 km/h (1 Bft) O 90 0,000 mm -2,4 C -2,3 C 9,7 km/h (2 Bft) 95,65 %
05.12.2019 02:13 23,4 C -0,7 C 8,3 C 41 % 88 % 78 % 1025,1 hPa 0,0 l/m 1,6 km/h (1 Bft) SO 135 0,000 mm -2,4 C -0,7 C 4,8 km/h (1 Bft) 95,65 %
05.12.2019 02:12 23,4 C -0,7 C 8,3 C 41 % 88 % 78 % 1025,1 hPa 0,0 l/m 1,6 km/h (1 Bft) SO 135 0,000 mm -2,4 C -0,7 C 6,4 km/h (2 Bft) 100,00 %
05.12.2019 02:11 23,4 C -0,7 C 8,3 C 41 % 88 % 78 % 1025,1 hPa 0,0 l/m 4,8 km/h (1 Bft) O-SO 112 0,000 mm -2,4 C -2,3 C 9,7 km/h (2 Bft) 95,65 %
05.12.2019 02:10 23,4 C -0,7 C 8,3 C 41 % 88 % 78 % 1025,0 hPa 0,0 l/m 4,8 km/h (1 Bft) O-SO 112 0,000 mm -2,4 C -2,3 C 6,4 km/h (2 Bft) 100,00 %
05.12.2019 02:09 23,4 C -0,7 C 8,3 C 41 % 88 % 78 % 1025,0 hPa 0,0 l/m 3,2 km/h (1 Bft) SO 135 0,000 mm -2,4 C -0,7 C 4,8 km/h (1 Bft) 95,65 %
05.12.2019 02:08 23,4 C -0,7 C 8,3 C 41 % 88 % 78 % 1025,0 hPa 0,0 l/m 3,2 km/h (1 Bft) O 90 0,000 mm -2,4 C -0,7 C 4,8 km/h (1 Bft) 95,65 %
05.12.2019 02:07 23,4 C -0,7 C 8,3 C 41 % 88 % 78 % 1025,0 hPa 0,0 l/m 1,6 km/h (1 Bft) SO 135 0,000 mm -2,4 C -0,7 C 3,2 km/h (1 Bft) 95,65 %
05.12.2019 02:06 23,4 C -0,7 C 8,3 C 41 % 88 % 78 % 1025,0 hPa 0,0 l/m 4,8 km/h (1 Bft) O-SO 112 0,000 mm -2,4 C -2,3 C 8,0 km/h (2 Bft) 100,00 %
05.12.2019 02:05 23,4 C -0,7 C 8,3 C 41 % 88 % 78 % 1025,0 hPa 0,0 l/m 1,6 km/h (1 Bft) O 90 0,000 mm -2,4 C -0,7 C 4,8 km/h (1 Bft) 95,65 %
05.12.2019 02:04 23,4 C -0,7 C 8,3 C 41 % 88 % 78 % 1025,0 hPa 0,0 l/m 1,6 km/h (1 Bft) O 90 0,000 mm -2,4 C -0,7 C 3,2 km/h (1 Bft) 95,65 %
05.12.2019 02:03 23,4 C -0,7 C 8,3 C 41 % 88 % 78 % 1025,0 hPa 0,0 l/m 4,8 km/h (1 Bft) O 90 0,000 mm -2,4 C -2,3 C 6,4 km/h (2 Bft) 100,00 %
05.12.2019 02:02 23,4 C -0,7 C 8,3 C 41 % 88 % 78 % 1025,0 hPa 0,0 l/m 4,8 km/h (1 Bft) O 90 0,000 mm -2,4 C -2,3 C 9,7 km/h (2 Bft) 86,96 %
05.12.2019 02:01 23,4 C -0,7 C 8,3 C 41 % 88 % 78 % 1025,0 hPa 0,0 l/m 6,4 km/h (2 Bft) O 90 0,000 mm -2,4 C -3,0 C 9,7 km/h (2 Bft) 95,65 %
05.12.2019 02:00 23,4 C -0,7 C 8,3 C 41 % 88 % 78 % 1025,0 hPa 0,0 l/m 6,4 km/h (2 Bft) O 90 0,000 mm -2,4 C -3,0 C 11,3 km/h (2 Bft) 95,65 %
05.12.2019 01:59 23,4 C -0,7 C 8,3 C 41 % 88 % 78 % 1024,9 hPa 0,0 l/m 3,2 km/h (1 Bft) O 90 0,000 mm -2,4 C -0,7 C 9,7 km/h (2 Bft) 100,00 %
05.12.2019 01:58 23,4 C -0,7 C 8,3 C 41 % 88 % 78 % 1025,0 hPa 0,0 l/m 3,2 km/h (1 Bft) O-SO 112 0,000 mm -2,4 C -0,7 C 4,8 km/h (1 Bft) 91,30 %
05.12.2019 01:57 23,4 C -0,7 C 8,3 C 41 % 88 % 78 % 1025,0 hPa 0,0 l/m 4,8 km/h (1 Bft) O 90 0,000 mm -2,4 C -2,3 C 6,4 km/h (2 Bft) 95,65 %
05.12.2019 01:56 23,4 C -0,7 C 8,3 C 41 % 88 % 78 % 1025,0 hPa 0,0 l/m 3,2 km/h (1 Bft) O-SO 112 0,000 mm -2,4 C -0,7 C 6,4 km/h (2 Bft) 95,65 %
05.12.2019 01:55 23,4 C -0,7 C 8,3 C 41 % 88 % 78 % 1024,9 hPa 0,0 l/m 11,3 km/h (2 Bft) O-SO 112 0,000 mm -2,4 C -4,5 C 14,5 km/h (3 Bft) 95,65 %
05.12.2019 01:54 23,4 C -0,7 C 8,3 C 41 % 88 % 78 % 1024,9 hPa 0,0 l/m 6,4 km/h (2 Bft) O 90 0,000 mm -2,4 C -3,0 C 11,3 km/h (2 Bft) 91,30 %
05.12.2019 01:53 23,4 C -0,7 C 8,3 C 41 % 88 % 78 % 1024,9 hPa 0,0 l/m 9,7 km/h (2 Bft) O-SO 112 0,000 mm -2,4 C -4,1 C 12,9 km/h (3 Bft) 91,30 %
05.12.2019 01:52 23,4 C -0,7 C 8,3 C 41 % 88 % 78 % 1024,8 hPa 0,0 l/m 8,0 km/h (2 Bft) O-SO 112 0,000 mm -2,4 C -3,6 C 12,9 km/h (3 Bft) 95,65 %
05.12.2019 01:51 23,4 C -0,7 C 8,3 C 41 % 88 % 78 % 1024,8 hPa 0,0 l/m 8,0 km/h (2 Bft) O 90 0,000 mm -2,4 C -3,6 C 14,5 km/h (3 Bft) 95,65 %
05.12.2019 01:50 23,5 C -0,7 C 8,3 C 41 % 88 % 78 % 1024,8 hPa 0,0 l/m 6,4 km/h (2 Bft) O 90 0,000 mm -2,4 C -3,0 C 9,7 km/h (2 Bft) 95,65 %
05.12.2019 01:49 23,5 C -0,7 C 8,3 C 41 % 88 % 78 % 1024,8 hPa 0,0 l/m 8,0 km/h (2 Bft) O 90 0,000 mm -2,4 C -3,6 C 14,5 km/h (3 Bft) 91,30 %
05.12.2019 01:48 23,5 C -0,7 C 8,3 C 41 % 88 % 78 % 1024,8 hPa 0,0 l/m 6,4 km/h (2 Bft) O 90 0,000 mm -2,4 C -3,0 C 14,5 km/h (3 Bft) 95,65 %
05.12.2019 01:47 23,4 C -0,7 C 8,3 C 41 % 88 % 78 % 1024,8 hPa 0,0 l/m 6,4 km/h (2 Bft) O 90 0,000 mm -2,4 C -3,0 C 12,9 km/h (3 Bft) 91,30 %
05.12.2019 01:46 23,5 C -0,7 C 8,3 C 41 % 88 % 78 % 1024,8 hPa 0,0 l/m 4,8 km/h (1 Bft) O 90 0,000 mm -2,4 C -2,3 C 9,7 km/h (2 Bft) 95,65 %
05.12.2019 01:45 23,5 C -0,7 C 8,3 C 41 % 89 % 78 % 1024,8 hPa 0,0 l/m 8,0 km/h (2 Bft) O-SO 112 0,000 mm -2,3 C -3,6 C 12,9 km/h (3 Bft) 100,00 %
05.12.2019 01:44 23,4 C -0,7 C 8,3 C 41 % 89 % 78 % 1024,7 hPa 0,0 l/m 6,4 km/h (2 Bft) O 90 0,000 mm -2,3 C -3,0 C 11,3 km/h (2 Bft) 95,65 %
05.12.2019 01:43 23,5 C -0,7 C 8,3 C 41 % 89 % 78 % 1024,7 hPa 0,0 l/m 9,7 km/h (2 Bft) O 90 0,000 mm -2,3 C -4,1 C 12,9 km/h (3 Bft) 100,00 %
05.12.2019 01:42 23,5 C -0,7 C 8,3 C 41 % 89 % 78 % 1024,8 hPa 0,0 l/m 9,7 km/h (2 Bft) O 90 0,000 mm -2,3 C -4,1 C 14,5 km/h (3 Bft) 95,65 %
05.12.2019 01:41 23,4 C -0,7 C 8,3 C 41 % 89 % 78 % 1024,7 hPa 0,0 l/m 4,8 km/h (1 Bft) O 90 0,000 mm -2,3 C -2,3 C 6,4 km/h (2 Bft) 95,65 %
05.12.2019 01:40 23,4 C -0,7 C 8,3 C 41 % 89 % 78 % 1024,7 hPa 0,0 l/m 4,8 km/h (1 Bft) O-SO 112 0,000 mm -2,3 C -2,3 C 9,7 km/h (2 Bft) 91,30 %
05.12.2019 01:39 23,5 C -0,7 C 8,3 C 41 % 89 % 78 % 1024,7 hPa 0,0 l/m 3,2 km/h (1 Bft) O 90 0,000 mm -2,3 C -0,7 C 4,8 km/h (1 Bft) 95,65 %
05.12.2019 01:38 23,5 C -0,7 C 8,3 C 41 % 89 % 78 % 1024,6 hPa 0,0 l/m 1,6 km/h (1 Bft) O 90 0,000 mm -2,3 C -0,7 C 4,8 km/h (1 Bft) 100,00 %
05.12.2019 01:37 23,5 C -0,7 C 8,3 C 41 % 89 % 78 % 1024,6 hPa 0,0 l/m 1,6 km/h (1 Bft) O 90 0,000 mm -2,3 C -0,7 C 3,2 km/h (1 Bft) 95,65 %
05.12.2019 01:36 23,5 C -0,7 C 8,3 C 41 % 89 % 78 % 1024,6 hPa 0,0 l/m 4,8 km/h (1 Bft) O 90 0,000 mm -2,3 C -2,3 C 9,7 km/h (2 Bft) 100,00 %
05.12.2019 01:35 23,6 C -0,7 C 8,3 C 41 % 89 % 78 % 1024,7 hPa 0,0 l/m 8,0 km/h (2 Bft) O 90 0,000 mm -2,3 C -3,6 C 11,3 km/h (2 Bft) 95,65 %
05.12.2019 01:34 23,6 C -0,8 C 8,3 C 41 % 89 % 78 % 1024,6 hPa 0,0 l/m 6,4 km/h (2 Bft) O 90 0,000 mm -2,4 C -3,1 C 11,3 km/h (2 Bft) 100,00 %
05.12.2019 01:33 23,5 C -0,7 C 8,3 C 41 % 88 % 78 % 1024,6 hPa 0,0 l/m 8,0 km/h (2 Bft) O 90 0,000 mm -2,4 C -3,6 C 12,9 km/h (3 Bft) 91,30 %
05.12.2019 01:32 23,6 C -0,7 C 8,3 C 41 % 89 % 78 % 1024,7 hPa 0,0 l/m 8,0 km/h (2 Bft) O-SO 112 0,000 mm -2,3 C -3,6 C 12,9 km/h (3 Bft) 100,00 %
05.12.2019 01:31 23,5 C -0,8 C 8,3 C 41 % 89 % 78 % 1024,8 hPa 0,0 l/m 9,7 km/h (2 Bft) O 90 0,000 mm -2,4 C -4,2 C 12,9 km/h (3 Bft) 95,65 %
05.12.2019 01:30 23,5 C -0,8 C 8,3 C 41 % 89 % 79 % 1024,7 hPa 0,0 l/m 8,0 km/h (2 Bft) O-SO 112 0,000 mm -2,4 C -3,7 C 11,3 km/h (2 Bft) 95,65 %
05.12.2019 01:29 23,6 C -0,8 C 8,3 C 41 % 89 % 79 % 1024,7 hPa 0,0 l/m 11,3 km/h (2 Bft) O 90 0,000 mm -2,4 C -4,6 C 16,1 km/h (3 Bft) 100,00 %
05.12.2019 01:28 23,5 C -0,8 C 8,3 C 41 % 89 % 79 % 1024,7 hPa 0,0 l/m 11,3 km/h (2 Bft) O 90 0,000 mm -2,4 C -4,6 C 17,7 km/h (3 Bft) 95,65 %
05.12.2019 01:27 23,5 C -0,8 C 8,3 C 41 % 89 % 79 % 1024,7 hPa 0,0 l/m 11,3 km/h (2 Bft) O 90 0,000 mm -2,4 C -4,6 C 17,7 km/h (3 Bft) 100,00 %
05.12.2019 01:26 23,6 C -0,8 C 8,3 C 41 % 89 % 79 % 1024,7 hPa 0,0 l/m 6,4 km/h (2 Bft) SO 135 0,000 mm -2,4 C -3,1 C 11,3 km/h (2 Bft) 95,65 %
05.12.2019 01:25 23,6 C -0,8 C 8,3 C 41 % 89 % 79 % 1024,7 hPa 0,0 l/m 6,4 km/h (2 Bft) O 90 0,000 mm -2,4 C -3,1 C 11,3 km/h (2 Bft) 100,00 %
05.12.2019 01:24 23,6 C -0,8 C 8,3 C 41 % 89 % 79 % 1024,7 hPa 0,0 l/m 8,0 km/h (2 Bft) O 90 0,000 mm -2,4 C -3,7 C 12,9 km/h (3 Bft) 100,00 %
05.12.2019 01:23 23,6 C -0,8 C 8,3 C 41 % 89 % 79 % 1024,8 hPa 0,0 l/m 4,8 km/h (1 Bft) O-NO 67 0,000 mm -2,4 C -2,4 C 9,7 km/h (2 Bft) 100,00 %
05.12.2019 01:22 23,6 C -0,8 C 8,3 C 41 % 89 % 79 % 1024,8 hPa 0,0 l/m 3,2 km/h (1 Bft) O 90 0,000 mm -2,4 C -0,8 C 6,4 km/h (2 Bft) 95,65 %
05.12.2019 01:21 23,6 C -0,8 C 8,3 C 41 % 89 % 79 % 1024,7 hPa 0,0 l/m 1,6 km/h (1 Bft) O-NO 67 0,000 mm -2,4 C -0,8 C 6,4 km/h (2 Bft) 95,65 %
05.12.2019 01:20 23,6 C -0,8 C 8,3 C 41 % 89 % 79 % 1024,8 hPa 0,0 l/m 1,6 km/h (1 Bft) O-SO 112 0,000 mm -2,4 C -0,8 C 4,8 km/h (1 Bft) 100,00 %
05.12.2019 01:19 23,6 C -0,8 C 8,3 C 41 % 89 % 79 % 1024,7 hPa 0,0 l/m 4,8 km/h (1 Bft) O-SO 112 0,000 mm -2,4 C -2,4 C 6,4 km/h (2 Bft) 95,65 %
05.12.2019 01:18 23,6 C -0,8 C 8,3 C 41 % 89 % 79 % 1024,9 hPa 0,0 l/m 3,2 km/h (1 Bft) O-SO 112 0,000 mm -2,4 C -0,8 C 4,8 km/h (1 Bft) 100,00 %
05.12.2019 01:17 23,6 C -0,8 C 8,3 C 41 % 89 % 78 % 1024,7 hPa 0,0 l/m 3,2 km/h (1 Bft) O-SO 112 0,000 mm -2,4 C -0,8 C 4,8 km/h (1 Bft) 100,00 %
05.12.2019 01:16 23,6 C -0,8 C 8,3 C 41 % 89 % 78 % 1024,8 hPa 0,0 l/m 8,0 km/h (2 Bft) O-SO 112 0,000 mm -2,4 C -3,7 C 12,9 km/h (3 Bft) 100,00 %
05.12.2019 01:15 23,6 C -0,8 C 8,3 C 41 % 89 % 78 % 1024,8 hPa 0,0 l/m 9,7 km/h (2 Bft) O-NO 67 0,000 mm -2,4 C -4,2 C 14,5 km/h (3 Bft) 100,00 %
05.12.2019 01:14 23,6 C -0,8 C 8,3 C 41 % 89 % 78 % 1024,8 hPa 0,0 l/m 6,4 km/h (2 Bft) O-SO 112 0,000 mm -2,4 C -3,1 C 14,5 km/h (3 Bft) 100,00 %
05.12.2019 01:13 23,6 C -0,8 C 8,3 C 41 % 89 % 78 % 1024,8 hPa 0,0 l/m 4,8 km/h (1 Bft) O-NO 67 0,000 mm -2,4 C -2,4 C 9,7 km/h (2 Bft) 95,65 %
05.12.2019 01:12 23,6 C -0,8 C 8,3 C 41 % 89 % 78 % 1024,8 hPa 0,0 l/m 4,8 km/h (1 Bft) O 90 0,000 mm -2,4 C -2,4 C 6,4 km/h (2 Bft) 95,65 %
05.12.2019 01:11 23,6 C -0,9 C 8,3 C 41 % 89 % 78 % 1024,8 hPa 0,0 l/m 3,2 km/h (1 Bft) O 90 0,000 mm -2,5 C -0,9 C 4,8 km/h (1 Bft) 100,00 %
05.12.2019 01:10 23,6 C -0,9 C 8,3 C 41 % 89 % 78 % 1024,8 hPa 0,0 l/m 3,2 km/h (1 Bft) O 90 0,000 mm -2,5 C -0,9 C 6,4 km/h (2 Bft) 95,65 %
05.12.2019 01:09 23,6 C -0,9 C 7,8 C 41 % 89 % 78 % 1024,7 hPa 0,0 l/m 4,8 km/h (1 Bft) O 90 0,000 mm -2,5 C -2,5 C 9,7 km/h (2 Bft) 100,00 %
05.12.2019 01:08 23,6 C -0,9 C 7,8 C 41 % 89 % 78 % 1024,7 hPa 0,0 l/m 8,0 km/h (2 Bft) O 90 0,000 mm -2,5 C -3,8 C 14,5 km/h (3 Bft) 100,00 %
05.12.2019 01:07 23,6 C -0,9 C 7,8 C 41 % 89 % 78 % 1024,7 hPa 0,0 l/m 4,8 km/h (1 Bft) O-NO 67 0,000 mm -2,5 C -2,5 C 9,7 km/h (2 Bft) 100,00 %
05.12.2019 01:06 23,6 C -0,9 C 7,8 C 41 % 89 % 78 % 1024,7 hPa 0,0 l/m 4,8 km/h (1 Bft) O 90 0,000 mm -2,5 C -2,5 C 12,9 km/h (3 Bft) 100,00 %
05.12.2019 01:05 23,6 C -0,9 C 7,8 C 41 % 89 % 78 % 1024,6 hPa 0,0 l/m 8,0 km/h (2 Bft) O-SO 112 0,000 mm -2,5 C -3,8 C 12,9 km/h (3 Bft) 95,65 %
05.12.2019 01:04 23,6 C -0,9 C 7,8 C 41 % 89 % 78 % 1024,6 hPa 0,0 l/m 3,2 km/h (1 Bft) S-SO 157 0,000 mm -2,5 C -0,9 C 11,3 km/h (2 Bft) 100,00 %
05.12.2019 01:03 23,6 C -0,9 C 7,8 C 41 % 89 % 78 % 1024,6 hPa 0,0 l/m 3,2 km/h (1 Bft) SO 135 0,000 mm -2,5 C -0,9 C 6,4 km/h (2 Bft) 100,00 %
05.12.2019 01:02 23,6 C -0,9 C 7,8 C 41 % 89 % 78 % 1024,6 hPa 0,0 l/m 6,4 km/h (2 Bft) O-SO 112 0,000 mm -2,5 C -3,2 C 11,3 km/h (2 Bft) 95,65 %
05.12.2019 01:01 23,6 C -0,9 C 7,8 C 41 % 89 % 78 % 1024,6 hPa 0,0 l/m 8,0 km/h (2 Bft) O-SO 112 0,000 mm -2,5 C -3,8 C 12,9 km/h (3 Bft) 95,65 %
05.12.2019 01:00 23,6 C -0,9 C 7,8 C 41 % 89 % 78 % 1024,6 hPa 0,0 l/m 6,4 km/h (2 Bft) O-SO 112 0,000 mm -2,5 C -3,2 C 11,3 km/h (2 Bft) 100,00 %
05.12.2019 00:59 23,6 C -0,9 C 7,8 C 41 % 89 % 78 % 1024,6 hPa 0,0 l/m 11,3 km/h (2 Bft) O 90 0,000 mm -2,5 C -4,7 C 16,1 km/h (3 Bft) 100,00 %
05.12.2019 00:58 23,6 C -1,0 C 7,8 C 41 % 89 % 78 % 1024,7 hPa 0,0 l/m 6,4 km/h (2 Bft) O-NO 67 0,000 mm -2,6 C -3,3 C 11,3 km/h (2 Bft) 91,30 %
05.12.2019 00:57 23,6 C -1,0 C 7,8 C 41 % 89 % 78 % 1024,6 hPa 0,0 l/m 6,4 km/h (2 Bft) O 90 0,000 mm -2,6 C -3,3 C 11,3 km/h (2 Bft) 100,00 %
05.12.2019 00:56 23,6 C -1,0 C 7,8 C 41 % 89 % 78 % 1024,6 hPa 0,0 l/m 4,8 km/h (1 Bft) O 90 0,000 mm -2,6 C -2,6 C 9,7 km/h (2 Bft) 100,00 %
05.12.2019 00:55 23,6 C -1,0 C 7,8 C 41 % 90 % 78 % 1024,7 hPa 0,0 l/m 4,8 km/h (1 Bft) O-NO 67 0,000 mm -2,4 C -2,6 C 8,0 km/h (2 Bft) 100,00 %
05.12.2019 00:54 23,6 C -1,0 C 7,8 C 41 % 90 % 78 % 1024,6 hPa 0,0 l/m 6,4 km/h (2 Bft) O-NO 67 0,000 mm -2,4 C -3,3 C 11,3 km/h (2 Bft) 100,00 %
05.12.2019 00:53 23,6 C -1,1 C 7,8 C 41 % 90 % 78 % 1024,6 hPa 0,0 l/m 6,4 km/h (2 Bft) O-NO 67 0,000 mm -2,5 C -3,5 C 11,3 km/h (2 Bft) 95,65 %
05.12.2019 00:52 23,6 C -1,1 C 7,8 C 41 % 90 % 78 % 1024,6 hPa 0,0 l/m 6,4 km/h (2 Bft) O-SO 112 0,000 mm -2,5 C -3,5 C 9,7 km/h (2 Bft) 100,00 %
05.12.2019 00:51 23,6 C -1,1 C 7,8 C 41 % 89 % 78 % 1024,6 hPa 0,0 l/m 4,8 km/h (1 Bft) N-NO 22 0,000 mm -2,7 C -2,7 C 6,4 km/h (2 Bft) 95,65 %
05.12.2019 00:50 23,7 C -1,1 C 7,8 C 41 % 90 % 78 % 1024,5 hPa 0,0 l/m 4,8 km/h (1 Bft) O 90 0,000 mm -2,5 C -2,7 C 8,0 km/h (2 Bft) 100,00 %
05.12.2019 00:49 23,7 C -1,1 C 7,8 C 41 % 90 % 77 % 1024,5 hPa 0,0 l/m 3,2 km/h (1 Bft) O 90 0,000 mm -2,5 C -1,1 C 6,4 km/h (2 Bft) 95,65 %
05.12.2019 00:48 23,6 C -1,1 C 7,8 C 41 % 90 % 77 % 1024,5 hPa 0,0 l/m 4,8 km/h (1 Bft) O-NO 67 0,000 mm -2,5 C -2,7 C 11,3 km/h (2 Bft) 100,00 %
05.12.2019 00:47 23,7 C -1,1 C 7,8 C 41 % 90 % 77 % 1024,4 hPa 0,0 l/m 6,4 km/h (2 Bft) O 90 0,000 mm -2,5 C -3,5 C 8,0 km/h (2 Bft) 100,00 %
05.12.2019 00:46 23,7 C -1,1 C 7,8 C 41 % 90 % 77 % 1024,5 hPa 0,0 l/m 6,4 km/h (2 Bft) O 90 0,000 mm -2,5 C -3,5 C 9,7 km/h (2 Bft) 95,65 %
05.12.2019 00:45 23,7 C -1,1 C 7,8 C 41 % 90 % 77 % 1024,6 hPa 0,0 l/m 6,4 km/h (2 Bft) O 90 0,000 mm -2,5 C -3,5 C 9,7 km/h (2 Bft) 95,65 %
05.12.2019 00:44 23,7 C -1,1 C 8,3 C 41 % 89 % 77 % 1024,5 hPa 0,0 l/m 4,8 km/h (1 Bft) O 90 0,000 mm -2,7 C -2,7 C 9,7 km/h (2 Bft) 95,65 %
05.12.2019 00:43 23,7 C -1,1 C 7,8 C 41 % 89 % 77 % 1024,5 hPa 0,0 l/m 3,2 km/h (1 Bft) O 90 0,000 mm -2,7 C -1,1 C 9,7 km/h (2 Bft) 100,00 %
05.12.2019 00:42 23,7 C -1,1 C 7,8 C 41 % 89 % 77 % 1024,4 hPa 0,0 l/m 3,2 km/h (1 Bft) O-NO 67 0,000 mm -2,7 C -1,1 C 4,8 km/h (1 Bft) 100,00 %
05.12.2019 00:41 23,7 C -1,1 C 7,8 C 41 % 89 % 77 % 1024,4 hPa 0,0 l/m 3,2 km/h (1 Bft) O 90 0,000 mm -2,7 C -1,1 C 4,8 km/h (1 Bft) 95,65 %
05.12.2019 00:40 23,7 C -1,1 C 7,8 C 41 % 89 % 77 % 1024,4 hPa 0,0 l/m 1,6 km/h (1 Bft) O 90 0,000 mm -2,7 C -1,1 C 1,6 km/h (1 Bft) 100,00 %
05.12.2019 00:39 23,7 C -1,1 C 7,8 C 41 % 89 % 77 % 1024,4 hPa 0,0 l/m 0,0 km/h (0 Bft) O 90 0,000 mm -2,7 C -1,1 C 1,6 km/h (1 Bft) 95,65 %
05.12.2019 00:38 23,7 C -1,1 C 7,8 C 41 % 89 % 77 % 1024,4 hPa 0,0 l/m 1,6 km/h (1 Bft) O 90 0,000 mm -2,7 C -1,1 C 3,2 km/h (1 Bft) 100,00 %
05.12.2019 00:37 23,7 C -1,1 C 8,3 C 41 % 89 % 77 % 1024,5 hPa 0,0 l/m 3,2 km/h (1 Bft) O-SO 112 0,000 mm -2,7 C -1,1 C 4,8 km/h (1 Bft) 91,30 %
05.12.2019 00:36 23,7 C -1,0 C 8,3 C 41 % 89 % 77 % 1024,4 hPa 0,0 l/m 1,6 km/h (1 Bft) O-SO 112 0,000 mm -2,6 C -1,0 C 3,2 km/h (1 Bft) 100,00 %
05.12.2019 00:35 23,7 C -1,0 C 8,3 C 41 % 89 % 77 % 1024,4 hPa 0,0 l/m 3,2 km/h (1 Bft) O-SO 112 0,000 mm -2,6 C -1,0 C 4,8 km/h (1 Bft) 100,00 %
05.12.2019 00:34 23,7 C -1,0 C 8,3 C 41 % 89 % 77 % 1024,4 hPa 0,0 l/m 1,6 km/h (1 Bft) SO 135 0,000 mm -2,6 C -1,0 C 4,8 km/h (1 Bft) 95,65 %
05.12.2019 00:33 23,7 C -1,0 C 8,3 C 41 % 89 % 77 % 1024,3 hPa 0,0 l/m 0,0 km/h (0 Bft) SO 135 0,000 mm -2,6 C -1,0 C 1,6 km/h (1 Bft) 95,65 %
05.12.2019 00:32 23,7 C -0,9 C 8,3 C 41 % 89 % 77 % 1024,4 hPa 0,0 l/m 0,0 km/h (0 Bft) SO 135 0,000 mm -2,5 C -0,9 C 1,6 km/h (1 Bft) 100,00 %
05.12.2019 00:31 23,7 C -0,9 C 8,3 C 41 % 89 % 77 % 1024,4 hPa 0,0 l/m 0,0 km/h (0 Bft) SO 135 0,000 mm -2,5 C -0,9 C 1,6 km/h (1 Bft) 100,00 %
05.12.2019 00:30 23,7 C -0,9 C 8,3 C 41 % 89 % 77 % 1024,4 hPa 0,0 l/m 3,2 km/h (1 Bft) SO 135 0,000 mm -2,5 C -0,9 C 4,8 km/h (1 Bft) 95,65 %
05.12.2019 00:29 23,7 C -0,9 C 8,3 C 41 % 89 % 77 % 1024,6 hPa 0,0 l/m 4,8 km/h (1 Bft) O 90 0,000 mm -2,5 C -2,5 C 6,4 km/h (2 Bft) 100,00 %
05.12.2019 00:28 23,7 C -0,9 C 8,3 C 41 % 89 % 77 % 1024,6 hPa 0,0 l/m 3,2 km/h (1 Bft) O-SO 112 0,000 mm -2,5 C -0,9 C 4,8 km/h (1 Bft) 95,65 %
05.12.2019 00:27 23,7 C -0,9 C 8,3 C 41 % 89 % 77 % 1024,6 hPa 0,0 l/m 4,8 km/h (1 Bft) O 90 0,000 mm -2,5 C -2,5 C 9,7 km/h (2 Bft) 100,00 %
05.12.2019 00:26 23,7 C -0,9 C 8,3 C 41 % 89 % 77 % 1024,5 hPa 0,0 l/m 4,8 km/h (1 Bft) O 90 0,000 mm -2,5 C -2,5 C 11,3 km/h (2 Bft) 95,65 %
05.12.2019 00:25 23,8 C -0,9 C 8,3 C 41 % 89 % 77 % 1024,4 hPa 0,0 l/m 4,8 km/h (1 Bft) SO 135 0,000 mm -2,5 C -2,5 C 8,0 km/h (2 Bft) 95,65 %
05.12.2019 00:24 23,7 C -0,9 C 8,3 C 41 % 89 % 77 % 1024,5 hPa 0,0 l/m 6,4 km/h (2 Bft) SO 135 0,000 mm -2,5 C -3,2 C 11,3 km/h (2 Bft) 91,30 %
05.12.2019 00:23 23,7 C -0,9 C 8,3 C 41 % 89 % 77 % 1024,4 hPa 0,0 l/m 3,2 km/h (1 Bft) O-SO 112 0,000 mm -2,5 C -0,9 C 6,4 km/h (2 Bft) 91,30 %
05.12.2019 00:22 23,7 C -0,9 C 8,3 C 41 % 89 % 77 % 1024,3 hPa 0,0 l/m 4,8 km/h (1 Bft) O 90 0,000 mm -2,5 C -2,5 C 6,4 km/h (2 Bft) 95,65 %
05.12.2019 00:21 23,7 C -0,9 C 8,3 C 41 % 89 % 77 % 1024,2 hPa 0,0 l/m 4,8 km/h (1 Bft) O 90 0,000 mm -2,5 C -2,5 C 9,7 km/h (2 Bft) 95,65 %
05.12.2019 00:20 23,7 C -0,9 C 8,3 C 41 % 89 % 77 % 1024,3 hPa 0,0 l/m 4,8 km/h (1 Bft) O 90 0,000 mm -2,5 C -2,5 C 8,0 km/h (2 Bft) 95,65 %
05.12.2019 00:19 23,7 C -0,9 C 8,3 C 41 % 89 % 77 % 1024,3 hPa 0,0 l/m 6,4 km/h (2 Bft) O 90 0,000 mm -2,5 C -3,2 C 11,3 km/h (2 Bft) 95,65 %
05.12.2019 00:18 23,7 C -0,9 C 8,3 C 41 % 89 % 77 % 1024,4 hPa 0,0 l/m 8,0 km/h (2 Bft) O-SO 112 0,000 mm -2,5 C -3,8 C 12,9 km/h (3 Bft) 91,30 %
05.12.2019 00:17 23,8 C -0,8 C 8,3 C 41 % 89 % 77 % 1024,3 hPa 0,0 l/m 8,0 km/h (2 Bft) O 90 0,000 mm -2,4 C -3,7 C 12,9 km/h (3 Bft) 100,00 %
05.12.2019 00:16 23,7 C -0,9 C 8,3 C 41 % 89 % 77 % 1024,4 hPa 0,0 l/m 3,2 km/h (1 Bft) O 90 0,000 mm -2,5 C -0,9 C 9,7 km/h (2 Bft) 82,61 %
05.12.2019 00:15 23,8 C -0,8 C 8,3 C 41 % 89 % 77 % 1024,4 hPa 0,0 l/m 6,4 km/h (2 Bft) O 90 0,000 mm -2,4 C -3,1 C 14,5 km/h (3 Bft) 95,65 %
05.12.2019 00:14 23,8 C -0,8 C 8,3 C 41 % 89 % 77 % 1024,4 hPa 0,0 l/m 3,2 km/h (1 Bft) N-NO 22 0,000 mm -2,4 C -0,8 C 6,4 km/h (2 Bft) 91,30 %
05.12.2019 00:13 23,8 C -0,8 C 8,3 C 41 % 89 % 77 % 1024,4 hPa 0,0 l/m 3,2 km/h (1 Bft) O-SO 112 0,000 mm -2,4 C -0,8 C 8,0 km/h (2 Bft) 95,65 %
05.12.2019 00:12 23,8 C -0,8 C 8,3 C 41 % 89 % 77 % 1024,4 hPa 0,0 l/m 4,8 km/h (1 Bft) O 90 0,000 mm -2,4 C -2,4 C 6,4 km/h (2 Bft) 95,65 %
05.12.2019 00:11 23,8 C -0,8 C 8,3 C 41 % 89 % 77 % 1024,4 hPa 0,0 l/m 6,4 km/h (2 Bft) SO 135 0,000 mm -2,4 C -3,1 C 11,3 km/h (2 Bft) 91,30 %
05.12.2019 00:10 23,8 C -0,8 C 8,3 C 41 % 89 % 77 % 1024,4 hPa 0,0 l/m 4,8 km/h (1 Bft) O 90 0,000 mm -2,4 C -2,4 C 9,7 km/h (2 Bft) 100,00 %
05.12.2019 00:09 23,8 C -0,8 C 8,3 C 41 % 89 % 77 % 1024,5 hPa 0,0 l/m 6,4 km/h (2 Bft) O 90 0,000 mm -2,4 C -3,1 C 14,5 km/h (3 Bft) 82,61 %
05.12.2019 00:08 23,8 C -0,8 C 8,3 C 41 % 89 % 77 % 1024,6 hPa 0,0 l/m 6,4 km/h (2 Bft) O-SO 112 0,000 mm -2,4 C -3,1 C 14,5 km/h (3 Bft) 100,00 %
05.12.2019 00:07 23,8 C -0,8 C 8,3 C 41 % 89 % 77 % 1024,5 hPa 0,0 l/m 8,0 km/h (2 Bft) O-SO 112 0,000 mm -2,4 C -3,7 C 14,5 km/h (3 Bft) 86,96 %
05.12.2019 00:06 23,8 C -0,8 C 8,3 C 41 % 89 % 77 % 1024,6 hPa 0,0 l/m 4,8 km/h (1 Bft) O-NO 67 0,000 mm -2,4 C -2,4 C 6,4 km/h (2 Bft) 95,65 %
05.12.2019 00:05 23,8 C -0,8 C 8,3 C 41 % 89 % 77 % 1024,6 hPa 0,0 l/m 4,8 km/h (1 Bft) O-SO 112 0,000 mm -2,4 C -2,4 C 4,8 km/h (1 Bft) 86,96 %
05.12.2019 00:04 23,8 C -0,8 C 8,3 C 41 % 89 % 77 % 1024,6 hPa 0,0 l/m 3,2 km/h (1 Bft) O 90 0,000 mm -2,4 C -0,8 C 4,8 km/h (1 Bft) 95,65 %
05.12.2019 00:03 23,8 C -0,8 C 8,3 C 41 % 89 % 77 % 1024,6 hPa 0,0 l/m 8,0 km/h (2 Bft) O-SO 112 0,000 mm -2,4 C -3,7 C 12,9 km/h (3 Bft) 95,65 %
05.12.2019 00:02 23,8 C -0,8 C 8,3 C 41 % 89 % 77 % 1024,6 hPa 0,0 l/m 3,2 km/h (1 Bft) O 90 0,000 mm -2,4 C -0,8 C 6,4 km/h (2 Bft) 91,30 %
05.12.2019 00:01 23,8 C -0,8 C 8,3 C 41 % 89 % 77 % 1024,7 hPa 0,0 l/m 3,2 km/h (1 Bft) O-SO 112 0,000 mm -2,4 C -0,8 C 4,8 km/h (1 Bft) 91,30 %
05.12.2019 00:00 23,8 C -0,7 C 8,3 C 41 % 89 % 77 % 1024,6 hPa 0,0 l/m 3,2 km/h (1 Bft) O-SO 112 0,000 mm -2,3 C -0,7 C 6,4 km/h (2 Bft) 91,30 %
_ Min-Zeit 05:46 07:08 00:38 17:56 11:51 10:36 00:21 - 00:31 - - - 07:08 05:57 12:21 00:09
Minimum _ 22,9 C -1,4 C 7,8 C 36 % 85 % 75 % 1024,2 hPa - 0,0 km/h (0 Bft) - - - -3,3 C -5,2 C 0,0 km/h (0 Bft) 82,61 %
_ Max-Zeit 19:24 11:47 11:14 00:00 00:45 01:18 09:57 00:00 00:59 - - 00:00 11:47 11:47 01:27 00:08
Maximum _ 24,7 C -0,3 C 10,6 C 41 % 90 % 79 % 1028,1 hPa 0,0 l/m 11,3 km/h
O (2 Bft)
- - 0,000 mm -2,2 C -0,3 C 17,7 km/h
O (3 Bft)
100,00 %
Durchschnitt _ 23,8 C -1,0 C 9,0 C 40 % 88 % 77 % 1026,6 hPa #0,0 l/m 3,5 km/h (1 Bft) O - #0,000 mm -2,7 C -1,7 C 6,1 km/h (2 Bft) 96,90 %